[[{"header":{"parameterUnit":"m.s-1","parameterCategory":1,"la1":30.6,"la2":29.2853,"lo1":-89.7004,"lo2":-87.6739,"dy":0.0162,"dx":0.0183,"nx":112,"ny":82,"refTime":"2025-07-07T12:00:00:Z","depth":0,"parameterNumber":2,"parameterNumberName":"U-component_of_WINDS"},"data":[0.0,0.0,0.0,0.0,0.0,0.0,0.0,0.0,0.0,0.0,0.0,0.0,0.0,0.0,0.0,0.0,0.0,0.0,0.0,0.0,0.0,0.0,0.0,0.0,0.0,0.0,0.0,0.0,0.0,0.0,0.0,0.0,0.0,0.0,0.0,0.0,0.0,0.0,0.0,0.0,0.0,0.0,0.0,0.0,0.0,0.0,0.0,0.0,0.0,0.0,0.0,0.0,0.0,0.0,0.0,0.0,0.0,0.0,0.0,0.0,0.0,0.0,0.0,0.0,0.0,0.0,0.0,0.0,0.0,0.0,0.0,0.0,0.0,0.0,0.0,0.0,0.0,0.0,0.0,0.0,0.0,0.0,0.0,0.0,0.0,0.0,0.0,0.0,0.0,0.0,-3.2432,-3.3917,-3.4234,-3.437,-3.4472,-3.4406,-3.3867,-3.2657,0.0,0.0,0.0,0.0,0.0,0.0,0.0,0.0,0.0,0.0,0.0,0.0,0.0,0.0,0.0,0.0,0.0,0.0,0.0,0.0,0.0,0.0,0.0,0.0,0.0,0.0,0.0,0.0,0.0,0.0,0.0,0.0,0.0,0.0,0.0,0.0,0.0,0.0,0.0,0.0,0.0,0.0,0.0,0.0,0.0,0.0,0.0,0.0,0.0,0.0,0.0,0.0,0.0,0.0,0.0,0.0,0.0,0.0,0.0,0.0,0.0,0.0,0.0,0.0,0.0,0.0,0.0,0.0,0.0,0.0,0.0,0.0,0.0,0.0,0.0,0.0,0.0,0.0,0.0,0.0,0.0,0.0,0.0,0.0,0.0,0.0,0.0,0.0,0.0,0.0,0.0,0.0,0.0,0.0,0.0,0.0,0.0,0.0,0.0,0.0,0.0,0.0,0.0,0.0,-3.2122,-3.4202,-3.3912,-3.3829,-3.4438,-3.408,-3.3317,-3.2196,0.0,0.0,0.0,0.0,0.0,0.0,0.0,0.0,0.0,0.0,0.0,0.0,0.0,0.0,0.0,0.0,0.0,0.0,0.0,0.0,0.0,0.0,0.0,0.0,0.0,0.0,0.0,0.0,0.0,0.0,0.0,0.0,0.0,0.0,0.0,0.0,0.0,0.0,0.0,0.0,0.0,0.0,0.0,0.0,0.0,0.0,0.0,0.0,0.0,0.0,0.0,0.0,0.0,0.0,0.0,0.0,0.0,0.0,0.0,0.0,0.0,0.0,0.0,0.0,0.0,0.0,0.0,0.0,0.0,0.0,0.0,0.0,0.0,0.0,0.0,0.0,0.0,0.0,0.0,0.0,0.0,0.0,0.0,0.0,0.0,0.0,0.0,0.0,0.0,0.0,0.0,0.0,0.0,0.0,0.0,0.0,0.0,0.0,0.0,0.0,0.0,0.0,0.0,-3.1632,-3.2018,-3.3723,-3.3237,-3.3102,-3.3846,-3.3406,-3.279,-3.2048,-3.1443,0.0,0.0,0.0,0.0,0.0,0.0,0.0,0.0,0.0,0.0,0.0,0.0,0.0,0.0,0.0,0.0,0.0,0.0,0.0,0.0,0.0,0.0,0.0,0.0,0.0,0.0,0.0,0.0,0.0,0.0,0.0,0.0,0.0,0.0,0.0,0.0,0.0,0.0,0.0,0.0,0.0,0.0,0.0,0.0,0.0,0.0,0.0,0.0,0.0,0.0,0.0,0.0,0.0,0.0,0.0,0.0,0.0,0.0,0.0,0.0,0.0,0.0,0.0,0.0,0.0,0.0,0.0,0.0,0.0,0.0,0.0,0.0,0.0,0.0,0.0,0.0,0.0,0.0,0.0,0.0,0.0,0.0,0.0,0.0,0.0,0.0,0.0,0.0,0.0,0.0,0.0,0.0,0.0,0.0,0.0,0.0,0.0,0.0,0.0,0.0,0.0,0.0,-3.1684,-3.226,-3.334,-3.2693,-3.2521,-3.3383,-3.2724,-3.2124,-3.182,-3.1148,0.0,0.0,0.0,0.0,0.0,0.0,0.0,0.0,0.0,0.0,0.0,0.0,0.0,0.0,0.0,0.0,0.0,0.0,0.0,0.0,0.0,0.0,0.0,0.0,0.0,0.0,0.0,0.0,0.0,0.0,0.0,0.0,0.0,0.0,0.0,0.0,0.0,0.0,0.0,0.0,0.0,0.0,0.0,0.0,0.0,0.0,0.0,0.0,0.0,0.0,0.0,0.0,0.0,0.0,0.0,0.0,0.0,0.0,0.0,0.0,0.0,0.0,0.0,0.0,0.0,0.0,0.0,0.0,0.0,0.0,0.0,0.0,0.0,0.0,0.0,0.0,0.0,0.0,0.0,0.0,0.0,0.0,0.0,0.0,0.0,0.0,0.0,0.0,0.0,0.0,0.0,0.0,0.0,0.0,0.0,0.0,0.0,0.0,0.0,0.0,0.0,0.0,-3.1623,-3.3037,-3.3617,-3.256,-3.2336,-3.3574,-3.2152,-3.1234,-3.1258,-3.0173,0.0,0.0,0.0,0.0,0.0,0.0,0.0,0.0,0.0,0.0,0.0,0.0,0.0,0.0,0.0,0.0,0.0,0.0,0.0,0.0,0.0,0.0,0.0,0.0,0.0,0.0,0.0,0.0,0.0,0.0,0.0,0.0,0.0,0.0,0.0,0.0,0.0,0.0,0.0,0.0,0.0,0.0,0.0,0.0,0.0,0.0,0.0,0.0,0.0,0.0,0.0,0.0,0.0,0.0,0.0,0.0,0.0,0.0,0.0,0.0,0.0,0.0,0.0,0.0,0.0,0.0,0.0,0.0,0.0,0.0,0.0,0.0,0.0,0.0,0.0,0.0,0.0,0.0,0.0,0.0,0.0,0.0,0.0,0.0,0.0,0.0,0.0,0.0,0.0,0.0,0.0,0.0,0.0,0.0,0.0,0.0,0.0,0.0,0.0,0.0,0.0,0.0,-3.0649,-3.1963,-3.307,-3.2359,-3.2166,-3.3126,-3.2293,-3.1353,-3.0511,0.0,0.0,0.0,0.0,0.0,0.0,0.0,0.0,0.0,0.0,0.0,0.0,0.0,0.0,0.0,0.0,0.0,0.0,0.0,0.0,0.0,0.0,0.0,0.0,0.0,0.0,0.0,0.0,0.0,0.0,0.0,0.0,0.0,0.0,0.0,0.0,0.0,0.0,0.0,0.0,0.0,0.0,0.0,0.0,0.0,0.0,0.0,0.0,0.0,0.0,0.0,0.0,0.0,0.0,0.0,0.0,0.0,0.0,0.0,0.0,0.0,0.0,0.0,0.0,0.0,0.0,0.0,0.0,0.0,0.0,0.0,0.0,0.0,0.0,0.0,0.0,0.0,0.0,0.0,0.0,0.0,0.0,0.0,0.0,0.0,0.0,0.0,0.0,0.0,0.0,0.0,0.0,0.0,0.0,0.0,0.0,0.0,0.0,0.0,0.0,0.0,0.0,-2.8951,-3.0299,-3.1691,-3.2857,-3.2403,-3.2258,-3.2946,-3.2272,-3.1222,-2.9848,0.0,0.0,0.0,0.0,0.0,0.0,0.0,0.0,0.0,0.0,0.0,0.0,0.0,0.0,0.0,0.0,0.0,0.0,0.0,0.0,0.0,0.0,0.0,0.0,0.0,0.0,0.0,0.0,0.0,0.0,0.0,0.0,0.0,0.0,0.0,0.0,0.0,0.0,0.0,0.0,0.0,0.0,0.0,0.0,0.0,0.0,0.0,0.0,0.0,0.0,0.0,0.0,0.0,0.0,0.0,0.0,0.0,0.0,0.0,0.0,0.0,0.0,0.0,0.0,0.0,0.0,0.0,0.0,0.0,0.0,0.0,0.0,0.0,0.0,0.0,0.0,0.0,0.0,0.0,0.0,0.0,0.0,0.0,0.0,0.0,0.0,0.0,0.0,0.0,0.0,0.0,0.0,0.0,0.0,0.0,0.0,0.0,0.0,0.0,0.0,0.0,0.0,-2.8488,-3.0735,-3.2586,-3.313,-3.2707,-3.2598,-3.3114,-3.1951,-3.0601,0.0,0.0,0.0,0.0,0.0,0.0,0.0,0.0,0.0,0.0,0.0,0.0,0.0,0.0,0.0,0.0,0.0,0.0,0.0,0.0,0.0,0.0,0.0,0.0,0.0,0.0,0.0,0.0,0.0,0.0,0.0,0.0,0.0,0.0,0.0,0.0,0.0,0.0,0.0,0.0,0.0,0.0,0.0,0.0,0.0,0.0,0.0,0.0,0.0,0.0,0.0,0.0,0.0,0.0,0.0,0.0,0.0,0.0,0.0,0.0,0.0,0.0,0.0,0.0,0.0,0.0,0.0,0.0,0.0,0.0,0.0,0.0,0.0,0.0,0.0,0.0,0.0,0.0,0.0,0.0,0.0,0.0,0.0,0.0,0.0,0.0,0.0,0.0,0.0,0.0,0.0,0.0,0.0,0.0,0.0,0.0,0.0,0.0,0.0,0.0,0.0,0.0,0.0,-2.8488,-3.0672,-3.2146,-3.1828,-3.1554,-3.1289,-3.0955,-3.0571,-2.9529,-2.7631,0.0,0.0,0.0,0.0,0.0,0.0,0.0,0.0,0.0,0.0,0.0,0.0,0.0,0.0,0.0,0.0,0.0,0.0,0.0,0.0,0.0,0.0,0.0,0.0,0.0,0.0,0.0,0.0,0.0,0.0,0.0,0.0,0.0,0.0,0.0,0.0,0.0,0.0,0.0,0.0,0.0,0.0,0.0,0.0,0.0,0.0,0.0,0.0,0.0,0.0,0.0,0.0,0.0,0.0,0.0,0.0,0.0,0.0,0.0,0.0,0.0,0.0,0.0,0.0,0.0,0.0,0.0,0.0,0.0,0.0,0.0,0.0,0.0,0.0,0.0,0.0,0.0,0.0,0.0,0.0,0.0,0.0,0.0,0.0,0.0,0.0,0.0,0.0,0.0,0.0,0.0,0.0,0.0,0.0,0.0,0.0,0.0,0.0,0.0,0.0,0.0,0.0,-2.8311,-3.0284,-3.1573,-3.1162,-3.0818,-3.0445,-3.0046,-2.9963,-2.9022,-2.6976,0.0,0.0,0.0,0.0,0.0,0.0,0.0,0.0,0.0,0.0,0.0,0.0,0.0,0.0,0.0,0.0,0.0,0.0,0.0,0.0,0.0,0.0,0.0,0.0,0.0,0.0,0.0,0.0,0.0,0.0,0.0,0.0,0.0,0.0,0.0,0.0,0.0,0.0,0.0,0.0,0.0,0.0,0.0,0.0,0.0,0.0,0.0,0.0,0.0,0.0,0.0,0.0,0.0,0.0,0.0,0.0,0.0,0.0,0.0,0.0,0.0,0.0,0.0,0.0,0.0,0.0,0.0,0.0,0.0,0.0,0.0,0.0,0.0,0.0,0.0,0.0,0.0,0.0,0.0,0.0,0.0,0.0,0.0,0.0,0.0,0.0,0.0,0.0,0.0,0.0,0.0,0.0,0.0,0.0,0.0,0.0,0.0,0.0,0.0,0.0,0.0,0.0,-2.8005,-2.9678,-3.0904,-3.0904,-3.0281,-2.9815,-2.9686,-2.9569,-2.8696,-2.6834,0.0,0.0,0.0,0.0,0.0,0.0,0.0,0.0,0.0,0.0,0.0,0.0,0.0,0.0,0.0,0.0,0.0,0.0,0.0,0.0,0.0,0.0,0.0,0.0,0.0,0.0,0.0,0.0,0.0,0.0,0.0,0.0,0.0,0.0,0.0,0.0,0.0,0.0,0.0,0.0,0.0,0.0,0.0,0.0,0.0,0.0,0.0,0.0,0.0,0.0,0.0,0.0,0.0,0.0,0.0,0.0,0.0,0.0,0.0,0.0,-3.4466,-3.4085,0.0,0.0,0.0,0.0,0.0,0.0,0.0,0.0,0.0,0.0,0.0,0.0,0.0,0.0,0.0,0.0,0.0,0.0,0.0,0.0,0.0,0.0,0.0,0.0,0.0,0.0,0.0,0.0,0.0,0.0,0.0,0.0,0.0,0.0,0.0,0.0,0.0,0.0,0.0,0.0,-2.7944,-2.9217,-3.0072,-3.0072,-2.9377,-2.8483,-2.7489,-2.7381,-2.6767,-2.54,-2.5033,0.0,0.0,0.0,0.0,0.0,0.0,0.0,0.0,0.0,0.0,0.0,0.0,0.0,0.0,0.0,0.0,0.0,0.0,0.0,0.0,0.0,0.0,0.0,0.0,0.0,0.0,0.0,0.0,0.0,0.0,0.0,0.0,0.0,0.0,0.0,0.0,0.0,0.0,0.0,0.0,0.0,0.0,0.0,0.0,0.0,0.0,0.0,0.0,0.0,0.0,0.0,0.0,0.0,0.0,0.0,0.0,0.0,0.0,0.0,-3.4544,-3.4475,0.0,0.0,0.0,0.0,0.0,0.0,0.0,0.0,0.0,0.0,0.0,0.0,0.0,0.0,0.0,0.0,0.0,0.0,0.0,0.0,0.0,0.0,0.0,0.0,0.0,0.0,0.0,0.0,0.0,0.0,0.0,0.0,0.0,0.0,0.0,0.0,0.0,0.0,0.0,0.0,-2.8129,-2.8336,-2.8468,-2.8747,-2.7862,-2.6977,-2.6312,-2.6256,-2.5887,-2.4997,-2.4682,0.0,0.0,0.0,0.0,0.0,0.0,0.0,0.0,0.0,0.0,0.0,0.0,0.0,0.0,0.0,0.0,0.0,0.0,0.0,0.0,0.0,0.0,0.0,0.0,0.0,0.0,0.0,0.0,0.0,0.0,0.0,0.0,0.0,0.0,0.0,0.0,0.0,0.0,0.0,0.0,0.0,0.0,0.0,0.0,0.0,0.0,0.0,0.0,0.0,0.0,0.0,0.0,0.0,-3.591,-3.5623,-3.563,-3.4542,-3.4043,-3.405,-3.4391,-3.4627,-3.4739,-3.4304,0.0,0.0,0.0,0.0,0.0,0.0,0.0,0.0,0.0,0.0,0.0,0.0,0.0,0.0,0.0,0.0,0.0,0.0,0.0,0.0,0.0,0.0,-2.9921,-2.9594,-2.9388,-2.8814,-2.7201,0.0,0.0,0.0,0.0,0.0,0.0,0.0,0.0,0.0,0.0,0.0,-2.8078,-2.7399,-2.7018,-2.7636,-2.6554,-2.5755,-2.566,-2.566,-2.5425,-2.4863,-2.4741,-2.4233,0.0,0.0,0.0,0.0,0.0,0.0,0.0,0.0,0.0,0.0,0.0,0.0,0.0,0.0,0.0,0.0,0.0,0.0,0.0,0.0,0.0,0.0,0.0,0.0,0.0,0.0,0.0,0.0,0.0,0.0,0.0,0.0,-3.309,-3.3336,0.0,0.0,0.0,0.0,0.0,0.0,0.0,0.0,0.0,0.0,0.0,0.0,0.0,-3.6904,-3.8105,-3.6948,-3.6642,-3.7185,-3.61,-3.5152,-3.4331,-3.3951,-3.3751,-3.3745,-3.3565,0.0,-3.3572,-3.4064,0.0,0.0,0.0,0.0,0.0,0.0,0.0,0.0,0.0,0.0,0.0,0.0,0.0,0.0,0.0,0.0,0.0,0.0,0.0,0.0,0.0,0.0,-2.8952,-2.9405,-2.9094,-2.862,-2.837,-2.7804,-2.74,-2.7596,-2.6654,-2.5977,0.0,0.0,0.0,0.0,0.0,0.0,-2.699,-2.6807,-2.6975,-2.7636,-2.6554,-2.5605,-2.5146,-2.5118,-2.4863,-2.4258,-2.3743,-2.3386,-2.3223,-2.3182,0.0,0.0,0.0,0.0,0.0,0.0,0.0,0.0,0.0,0.0,0.0,0.0,0.0,0.0,0.0,0.0,0.0,0.0,0.0,0.0,0.0,0.0,0.0,0.0,0.0,0.0,0.0,0.0,0.0,-3.2214,-3.3354,-3.2932,-3.3248,-3.3213,0.0,0.0,0.0,0.0,0.0,0.0,0.0,0.0,0.0,-3.6586,-3.6507,-3.7103,-3.8536,-3.7399,-3.6879,-3.6967,-3.6603,-3.5943,-3.5057,-3.4697,-3.4364,-3.4017,-3.352,-3.3309,-3.3324,-3.3625,-3.3561,-3.3309,0.0,0.0,0.0,0.0,-3.2574,-3.2382,-3.1508,-3.0955,-3.0393,-2.907,0.0,0.0,0.0,0.0,0.0,0.0,0.0,-2.919,-2.9434,-2.9312,-2.9108,-2.8994,-2.8777,-2.8587,-2.8587,-2.8357,-2.8232,-2.8547,-2.8122,-2.7584,-2.7313,-2.6864,0.0,0.0,0.0,-2.6342,-2.7148,-2.6369,-2.5986,-2.6566,-2.5551,-2.4736,-2.4505,-2.4476,-2.4361,-2.4112,-2.3835,-2.372,-2.372,-2.3365,-2.3104,0.0,0.0,0.0,0.0,0.0,0.0,0.0,0.0,0.0,0.0,0.0,0.0,0.0,0.0,0.0,0.0,0.0,0.0,0.0,0.0,0.0,0.0,0.0,0.0,0.0,0.0,0.0,0.0,-3.295,-3.36,-3.3038,-3.3634,-3.3722,0.0,0.0,0.0,0.0,0.0,0.0,-3.426,-3.5248,-3.6356,-3.7566,-3.7015,-3.7347,-3.8623,-3.7802,-3.7281,-3.7101,-3.7281,-3.6891,-3.5986,-3.5441,-3.4908,-3.4365,-3.362,-3.3309,-3.3309,-3.3309,-3.3309,-3.3309,-3.316,-3.3118,-3.3038,-3.2465,-3.2272,-3.2117,-3.1102,-3.0539,-3.006,-2.8932,-2.7869,-2.7023,-2.7023,0.0,0.0,0.0,0.0,-2.9285,-2.9285,-2.9285,-2.9176,-2.8695,-2.8587,-2.8587,-2.8587,-2.8554,-2.8656,-2.9125,-2.9,-2.8637,-2.8102,-2.7534,0.0,-2.6736,-2.6151,-2.6104,-2.7081,-2.6034,-2.5301,-2.5576,-2.4713,-2.4083,-2.4083,-2.4083,-2.4083,-2.4083,-2.4083,-2.4083,-2.4083,-2.3495,-2.3305,-2.3603,0.0,0.0,0.0,0.0,0.0,0.0,0.0,0.0,0.0,0.0,0.0,0.0,0.0,0.0,0.0,0.0,0.0,0.0,0.0,0.0,0.0,0.0,0.0,0.0,0.0,0.0,0.0,0.0,0.0,-3.4582,-3.5249,0.0,0.0,0.0,0.0,-3.3494,-3.4881,-3.5902,-3.6239,-3.7032,-3.7521,-3.7593,-3.7562,-3.7769,-3.8238,-3.8179,-3.8136,-3.8119,-3.8136,-3.7609,-3.6542,-3.5623,-3.5013,-3.4638,-3.3699,-3.3309,-3.3309,-3.3309,-3.3309,-3.324,-3.2807,-3.2656,-3.2532,-3.1667,-3.1365,-3.1278,-3.0777,-3.0401,-3.005,-2.9668,-2.8675,-2.7664,-2.7664,-2.7691,0.0,0.0,-2.8193,-2.8641,-2.8641,-2.8641,-2.8627,-2.86,-2.8587,-2.8587,-2.8587,-2.8444,-2.832,-2.8352,-2.7894,-2.7551,-2.7768,0.0,-2.76,-2.6839,-2.7616,-2.7736,-2.6107,-2.5811,-2.5576,-2.5097,-2.4478,-2.4083,-2.4083,-2.4083,-2.4083,-2.4083,-2.4083,-2.4083,-2.4083,-2.3446,-2.2841,-2.2293,-2.2134,0.0,0.0,0.0,0.0,0.0,0.0,0.0,0.0,0.0,0.0,0.0,0.0,0.0,0.0,0.0,0.0,0.0,0.0,0.0,0.0,0.0,0.0,0.0,0.0,0.0,0.0,0.0,0.0,-3.4635,-3.5542,0.0,-3.4588,-3.4729,-3.5134,-3.5707,-3.6018,-3.6689,-3.7832,-3.8157,-3.8326,-3.8311,-3.8547,-3.8766,-3.8917,-3.8907,-3.8907,-3.8907,-3.8907,-3.8502,-3.772,-3.6907,-3.6044,-3.5106,-3.4295,-3.3704,-3.3282,-3.2969,-3.3038,-3.324,-3.2765,-3.2586,-3.2477,-3.161,-3.1307,-3.1219,-3.0747,-3.0371,-3.0019,-2.9446,-2.8834,-2.8275,-2.8275,-2.8275,-2.8275,-2.8275,-2.8424,-2.8587,-2.8587,-2.8587,-2.8587,-2.8587,-2.8587,-2.8587,-2.8587,-2.8444,-2.8268,-2.8197,-2.7879,-2.7702,-2.7769,-2.743,-2.7046,-2.6738,-2.6754,-2.6522,-2.5876,-2.5497,-2.5227,-2.5018,-2.4452,-2.4083,-2.4083,-2.4083,-2.4083,-2.4083,-2.3704,-2.3471,-2.3471,-2.2816,-2.2494,-2.259,-2.1843,-2.1027,0.0,0.0,0.0,0.0,0.0,0.0,0.0,0.0,0.0,0.0,0.0,0.0,0.0,0.0,0.0,0.0,0.0,0.0,0.0,0.0,0.0,0.0,0.0,0.0,0.0,-3.4152,-3.474,-3.4986,-3.5701,-3.59,-3.5155,-3.542,-3.5928,-3.6647,-3.6694,-3.7109,-3.8094,-3.8363,-3.8512,-3.853,-3.9049,-3.9299,-3.9299,-3.9299,-3.9299,-3.9299,-3.9299,-3.9029,-3.85,-3.767,-3.664,-3.5483,-3.4422,-3.3497,-3.2719,-3.2162,-3.2027,-3.2179,-3.2185,-3.216,-3.2076,-3.1321,-3.1073,-3.0984,-3.0582,-3.0219,-2.9834,-2.9289,-2.8876,-2.8587,-2.8587,-2.8587,-2.8587,-2.8587,-2.8587,-2.8587,-2.8587,-2.8587,-2.8587,-2.8587,-2.8587,-2.8587,-2.8509,-2.8346,-2.8183,-2.8033,-2.7888,-2.7776,-2.7723,-2.7308,-2.6961,-2.6961,-2.6478,-2.6046,-2.5819,-2.5315,-2.4926,-2.473,-2.4347,-2.4083,-2.4083,-2.4083,-2.3995,-2.3763,-2.3339,-2.2997,-2.2774,-2.2132,-2.1906,-2.2217,-2.1103,-2.0536,-2.0579,0.0,0.0,0.0,0.0,0.0,0.0,0.0,0.0,0.0,0.0,0.0,0.0,0.0,0.0,0.0,0.0,0.0,0.0,0.0,0.0,0.0,0.0,0.0,-3.3616,-3.426,-3.486,-3.5704,-3.5775,-3.5609,-3.5259,-3.6178,-3.6589,-3.6144,-3.6816,-3.7169,-3.7035,-3.77,-3.8111,-3.8146,-3.8874,-3.9265,-3.9265,-3.9282,-3.9299,-3.9299,-3.9282,-3.9088,-3.8739,-3.7731,-3.6728,-3.563,-3.3995,-3.2672,-3.1601,-3.0877,-3.0335,-3.0065,-3.0913,-3.1247,-3.1189,-3.0718,-3.0554,-3.0509,-3.0205,-2.9867,-2.954,-2.9194,-2.8876,-2.8587,-2.8587,-2.8587,-2.8587,-2.8587,-2.8587,-2.8587,-2.8587,-2.8587,-2.8587,-2.8587,-2.8587,-2.8554,-2.832,-2.8183,-2.8046,-2.7855,-2.7776,-2.7723,-2.7523,-2.749,-2.749,-2.749,-2.7027,0.0,-2.5871,-2.5315,-2.4756,-2.4178,-2.4083,-2.4083,-2.4083,-2.4083,-2.3793,-2.3118,-2.3058,-2.2756,-2.2125,-2.1451,-2.1094,-2.1117,-2.0031,-1.9943,-2.0894,0.0,0.0,0.0,0.0,0.0,0.0,0.0,0.0,0.0,0.0,0.0,0.0,0.0,0.0,0.0,0.0,0.0,0.0,0.0,0.0,0.0,-3.1466,-3.232,-3.3584,-3.3542,-3.397,-3.5617,-3.5322,-3.5222,-3.5794,-3.4848,-3.4852,-3.6431,-3.5983,-3.628,-3.7786,-3.7797,-3.7633,-3.74,-3.8129,-3.8493,-3.8493,-3.9033,-3.9299,-3.9299,-3.8758,-3.8319,-3.7986,-3.7169,-3.587,-3.4254,-3.3472,-3.2306,-3.0835,-3.0065,-2.9669,-2.9606,-2.9844,-2.9909,-2.9882,-2.9403,-2.9493,-2.9827,-2.9486,-2.9468,-2.954,-2.9194,-2.8876,-2.8587,-2.8587,-2.8587,-2.8587,-2.8587,-2.8587,-2.8587,-2.8587,-2.8587,-2.8587,-2.8587,-2.8587,-2.8554,-2.832,-2.8183,-2.8046,-2.7855,-2.7689,-2.7556,-2.749,-2.749,-2.749,-2.749,-2.6654,-2.6007,-2.5806,-2.4962,-2.4282,-2.4109,-2.4083,-2.3894,-2.3412,-2.3369,-2.31,-2.2421,-2.1928,-2.1717,-2.1888,-2.1282,-2.1119,-2.1439,-2.1159,-2.0948,0.0,0.0,0.0,0.0,0.0,0.0,0.0,0.0,0.0,0.0,0.0,0.0,0.0,0.0,0.0,0.0,0.0,0.0,0.0,0.0,0.0,0.0,-3.1406,-3.2104,-3.2978,-3.2987,-3.3433,-3.488,-3.4508,-3.4392,-3.4959,-3.4266,-3.4327,-3.559,-3.5333,-3.5719,-3.7053,-3.7131,-3.6982,-3.6638,-3.7367,-3.7748,-3.7748,-3.8162,-3.8377,-3.8361,-3.7947,-3.7628,-3.7423,-3.6875,-3.5516,-3.3626,-3.2971,-3.155,-2.9622,-2.8858,-2.845,0.0,0.0,0.0,0.0,0.0,-2.8913,-2.916,-2.8681,-2.8796,-2.9075,-2.836,-2.8352,-2.8546,-2.8302,-2.8223,-2.8314,-2.8522,-2.8457,-2.8327,-2.8554,-2.8587,-2.8587,-2.8587,-2.8587,-2.8522,-2.8281,-2.8164,-2.7934,-2.7439,-2.7025,0.0,-2.6668,-2.7121,-2.7411,-2.721,-2.6399,-2.5608,-2.5099,-2.4257,-2.3573,-2.3292,-2.3263,-2.31,-2.2713,-2.2695,0.0,0.0,0.0,-2.15,-2.1711,-2.1394,0.0,0.0,0.0,0.0,0.0,0.0,0.0,0.0,-2.2826,-2.2801,0.0,0.0,0.0,0.0,0.0,0.0,0.0,0.0,0.0,0.0,0.0,0.0,0.0,0.0,0.0,0.0,-3.1202,-3.1512,-3.2107,-3.2493,-3.3003,-3.3768,-3.3445,-3.3228,-3.3406,-3.3895,-3.4186,-3.4121,-3.4718,-3.5211,-3.5475,-3.6066,0.0,0.0,0.0,-3.6986,-3.6986,-3.7069,-3.7102,-3.7102,-3.7036,-3.6986,-3.6944,-3.6425,-3.5156,-3.3288,-3.2205,-3.0412,-2.8226,-2.7598,-2.7119,-2.6922,-2.8055,-2.8491,-2.8491,-2.8491,-2.8534,-2.848,-2.7824,0.0,0.0,-2.7168,-2.7528,-2.8302,-2.7773,-2.7613,-2.7735,-2.8271,-2.8025,-2.7729,-2.8268,-2.8425,-2.8425,-2.8425,-2.8425,-2.8327,-2.8013,-2.7848,-2.7551,-2.67,-2.5977,-2.5452,-2.5328,-2.6353,-2.7043,-2.6602,-2.5993,-2.5178,-2.4104,-2.3366,-2.2687,-2.2078,0.0,0.0,-2.1913,-2.1894,-2.1639,-2.1028,-2.1477,-2.1756,-2.1682,-2.1723,-2.1723,-2.168,-2.1723,-2.1942,-2.2313,-2.2331,-2.2826,-2.3575,-2.2335,-2.2226,0.0,0.0,0.0,0.0,0.0,0.0,0.0,0.0,0.0,0.0,0.0,0.0,0.0,0.0,0.0,-3.1134,-3.1681,-3.1938,-3.1481,-3.1472,-3.1903,-3.299,-3.2229,-3.1987,-3.2932,-3.2303,-3.2149,-3.2867,-3.3556,-3.4159,-3.468,-3.5268,-3.5459,-3.5114,-3.5827,-3.6224,-3.6224,-3.6804,-3.7102,-3.7102,-3.6506,0.0,-3.615,-3.4398,-3.2957,-3.1739,-3.0134,-2.8742,-2.7565,-2.7085,-2.6858,-2.6835,-2.7082,-2.7183,-2.7183,-2.7183,-2.7476,-2.7801,-2.7187,-2.7354,-2.7771,-2.7032,-2.6955,-2.7118,-2.6996,-2.6729,0.0,-2.7086,-2.6882,-2.6627,-2.7159,-2.731,-2.731,-2.731,-2.731,-2.7242,-2.7019,-2.64,-2.5832,-2.5478,-2.4748,-2.4164,-2.4131,-2.4695,-2.5252,-2.5526,-2.4753,-2.4014,-2.3786,-2.2578,-2.1673,-2.1554,-2.1191,-2.0901,-2.0745,-2.0718,-2.0594,-2.0302,-2.1151,-2.1798,-2.216,-2.2531,-2.2553,-2.2182,-2.2542,-2.2597,-2.2313,-2.2684,-2.2968,-2.3132,-2.2859,-2.3034,0.0,0.0,0.0,0.0,0.0,0.0,0.0,0.0,0.0,0.0,0.0,-2.8454,-2.9241,0.0,-3.0683,-3.0838,-3.1358,-3.1633,-3.1241,-3.119,-3.1404,-3.1978,-3.1688,-3.1602,-3.1998,-3.1688,-3.1735,-3.2406,-3.2987,-3.3599,-3.4314,-3.4856,-3.5071,-3.4899,-3.5263,-3.5446,-3.5446,-3.581,-3.6009,-3.5992,-3.5628,-3.53,-3.5005,-3.3551,-3.2091,-3.0641,-2.9353,-2.8143,-2.7093,-2.6884,-2.6806,-2.6806,-2.6806,-2.6806,-2.6806,-2.6806,-2.6888,-2.6946,-2.6495,-2.6637,-2.6839,-2.5878,-2.5949,-2.636,-2.5809,-2.5514,-2.5453,-2.5992,-2.5987,-2.5927,-2.6473,-2.6788,-2.7007,-2.7007,-2.7007,-2.6939,-2.6748,-2.6009,-2.5253,-2.4805,-2.373,-2.2888,-2.281,-2.2758,-2.3071,-2.4006,-2.3489,-2.2779,-2.2123,-2.1178,-2.0411,-2.0065,-1.9858,-1.9664,-1.9553,-1.975,-2.0052,-2.0456,-2.1188,-2.1811,-2.2302,-2.2761,-2.2892,-2.2663,-2.2881,-2.2892,-2.2663,-2.2892,-2.3001,-2.3001,-2.3001,-2.3132,0.0,0.0,0.0,0.0,0.0,0.0,0.0,-2.5918,-2.6733,-2.7473,-2.8117,-2.8738,-2.9387,-2.9968,-3.0356,-3.0477,-3.0898,-3.119,-3.119,-3.119,-3.119,-3.119,-3.1447,-3.1487,-3.123,-3.143,-3.1726,-3.2059,-3.2635,-3.3294,-3.393,-3.4552,-3.4899,-3.4899,-3.4899,-3.4899,-3.4899,-3.4899,-3.4899,-3.4899,-3.4787,-3.4439,-3.3858,-3.2818,-3.1394,-2.9753,-2.8826,-2.7806,-2.6806,-2.6806,-2.6806,-2.6806,-2.6806,-2.6806,-2.6806,-2.6806,-2.6592,-2.627,-2.5988,-2.5939,-2.5802,-2.4682,-2.4909,-2.5441,-2.4576,-2.4292,-2.4398,-2.4912,-2.5086,-2.5207,-2.5739,-2.627,-2.6654,-2.6654,-2.6578,-2.6468,-2.6311,-2.5455,-2.455,-2.3936,-2.2636,-2.1601,-2.1492,-2.0974,-2.1063,-2.238,-2.2191,-2.1471,-2.0343,-1.9718,-1.9147,-1.8616,-1.8469,-1.8447,-1.8545,-1.9091,-1.9746,-2.0566,-2.121,-2.1767,-2.216,-2.2706,-2.3001,-2.3001,-2.3001,-2.3001,-2.3001,-2.3001,-2.3001,-2.3001,-2.2964,-2.2964,-1.9322,-2.0483,-2.1997,-2.3963,-2.4134,-2.4447,0.0,-2.7179,-2.7167,-2.795,-2.8607,-2.9064,-2.9127,-2.9886,-3.0477,-3.0497,-3.0898,-3.119,-3.119,-3.119,-3.119,-3.119,-3.123,-3.1249,-3.121,-3.123,-3.1283,-3.1309,-3.2366,-3.3043,-3.3143,-3.4253,-3.4899,-3.4899,-3.4899,-3.4899,-3.4899,-3.4899,-3.4899,-3.4899,-3.4423,-3.386,-3.3145,-3.1201,-2.9878,-2.9027,-2.7628,-2.6943,-2.6806,-2.6806,-2.6806,-2.6806,-2.6806,-2.6806,-2.6806,-2.6806,-2.6592,-2.627,-2.5988,-2.5453,-2.4832,-2.4421,-2.4109,-2.3846,-2.3722,-2.3414,-2.3194,-2.3742,-2.3924,-2.4087,-2.4568,-2.5089,-2.5476,-2.5476,-2.5125,-2.4774,-2.474,-2.3441,-2.2261,-2.217,-2.1148,-2.0314,-2.0281,-1.9899,-1.9931,-2.0986,-2.0665,-2.0158,-1.9568,-1.8753,-1.8163,-1.8086,-1.7693,-1.7645,-1.8043,-1.8905,-1.9431,-1.9572,-2.085,-2.1614,-2.1669,-2.2531,-2.3001,-2.3001,-2.3001,-2.3001,-2.3001,-2.3001,-2.3001,-2.3001,-2.2815,-2.2815,-1.8948,-2.0355,-2.1721,-2.2921,-2.4154,-2.5346,-2.6489,-2.7245,-2.7786,-2.8125,-2.8462,-2.87,-2.87,-2.9234,-2.9777,-3.0054,-3.0477,-3.0878,-3.1171,-3.119,-3.119,-3.119,-3.119,-3.119,-3.119,-3.119,-3.119,-3.119,-3.2316,-3.3009,-3.3009,-3.4203,-3.4899,-3.4899,-3.4899,-3.4899,-3.4899,-3.4899,-3.4739,-3.4423,-3.3811,-3.3003,-3.2053,-3.0253,-2.8796,-2.7706,-2.7065,-2.6806,-2.6806,-2.6806,-2.6806,-2.6806,-2.6806,-2.6806,-2.6806,-2.6806,-2.65,-2.6001,-2.5619,-2.5049,-2.4366,-2.3691,-2.3335,-2.3125,-2.2866,-2.2665,-2.2543,-2.2762,-2.3317,-2.3854,-2.4025,-2.4699,-2.5312,-2.5312,-2.4903,-2.445,-2.4243,-2.2976,-2.1848,-2.1662,-2.0786,-2.0118,-2.0118,-1.9943,-1.9758,-1.9658,-1.92,-1.8799,-1.8622,-1.7999,-1.7791,-1.8338,-1.8217,-1.8414,-1.9158,-1.9091,-1.9113,-1.9366,-2.0216,-2.0871,-2.119,-2.2095,-2.2655,-2.2804,-2.2815,-2.2777,-2.2665,-2.2665,-2.2665,-2.2665,-2.2553,-2.2553,-1.8552,-1.9907,-2.1051,-2.2013,-2.3811,-2.5441,-2.5941,-2.6924,-2.7746,-2.7953,-2.8073,-2.8181,-2.8365,-2.8779,-2.9257,-2.9728,-3.0204,-3.0658,-3.1114,-3.119,-3.119,-3.119,-3.119,-3.119,-3.119,-3.119,-3.1275,-3.1478,-3.2433,-3.311,-3.3327,-3.4319,-3.4899,-3.4899,-3.4899,-3.4899,-3.4899,-3.4899,-3.4618,-3.4101,-3.3266,-3.2253,-3.107,-2.929,-2.788,-2.6806,-2.6806,-2.6806,-2.6806,-2.6806,-2.6806,-2.6806,-2.6806,-2.6806,-2.6806,-2.6806,-2.6474,-2.5934,-2.5384,-2.4753,-2.4076,-2.3198,-2.2818,-2.2635,-2.2309,-2.2197,-2.2197,-2.2197,-2.2879,-2.3589,-2.3589,-2.4314,-2.5059,-2.4915,-2.459,-2.4176,-2.3693,-2.2618,-2.1621,-2.1261,-2.0599,-2.0118,-2.0118,-1.9889,-1.9475,-1.8796,-1.8305,-1.7955,-1.7824,-1.7617,-1.7737,-1.8425,-1.8611,-1.8971,-1.9649,-1.9091,-1.8785,-1.9015,-1.9573,-2.0129,-2.0642,-2.1568,-2.2255,-2.2692,-2.2665,-2.2553,-2.2402,-2.2402,-2.2402,-2.2402,-2.2327,-2.2327,-1.8336,-1.9066,-2.0086,-2.1915,-2.2989,-2.404,-2.5879,-2.6331,-2.657,-2.7355,-2.7467,-2.7626,-2.8288,-2.8779,-2.9257,-2.9728,-3.0204,-3.0658,-3.1114,-3.119,-3.119,-3.119,-3.119,-3.119,-3.119,-3.119,-3.1515,-3.2209,-3.2719,-3.3344,-3.4114,-3.4619,-3.4899,-3.4899,-3.4899,-3.4899,-3.4899,-3.4899,-3.4618,-3.4084,-3.2825,-3.1605,-3.0371,-2.824,-2.7107,-2.6806,-2.6806,-2.6806,-2.6806,-2.6806,-2.6806,-2.6806,-2.6806,-2.6806,-2.6806,-2.6806,-2.6566,-2.6176,-2.5453,-2.4682,-2.3888,-2.3125,-2.2574,-2.2216,-2.2197,-2.2197,-2.2197,-2.2197,-2.2582,-2.3035,-2.3035,-2.3773,-2.4422,-2.3962,-2.3842,-2.3586,-2.2725,-2.1862,-2.1085,-2.069,-2.0335,-2.0118,-2.0118,-1.9364,-1.872,-1.8698,-1.8305,-1.7835,-1.7394,-1.7704,-1.7999,-1.8032,-1.8425,-1.8698,-1.8731,-1.8709,-1.8501,-1.8075,-1.8897,-1.9627,-2.0118,-2.0896,-2.1765,-2.2681,-2.2515,-2.2402,-2.2402,-2.2402,-2.2402,-2.2402,-2.2214,-2.2101,-1.7082,-1.7682,-1.8494,-1.9647,-2.0971,-2.2171,-2.2956,-2.3679,-2.4372,-2.5059,-2.5749,-2.6557,-2.7511,-2.8443,-2.9371,-3.014,-3.0393,-3.0658,-3.1114,-3.119,-3.1271,-3.1506,-3.1774,-3.2021,-3.2295,-3.1638,-3.1495,-3.2242,-3.2719,-3.3361,-3.4164,-3.4659,-3.4899,-3.4899,-3.4899,-3.4899,-3.4899,-3.4899,-3.4388,-3.3347,-3.1265,-2.9607,-2.8398,-2.758,-2.7104,-2.6925,-2.6846,-2.6806,-2.6806,-2.6806,-2.6806,-2.6806,-2.6806,-2.6806,-2.6753,-2.634,-2.6138,-2.5961,-2.5384,-2.4682,-2.3888,-2.3125,-2.2574,-2.2197,-2.2197,-2.2197,-2.2197,-2.2197,-2.2602,-2.3011,-2.3011,-2.3529,-2.4061,-2.423,-2.4047,-2.3742,-2.3539,-2.2548,-2.1575,-2.1183,-2.0577,-2.0009,-1.9682,-1.9355,-1.896,-1.8338,-1.7835,-1.7802,-1.86,-1.884,-1.931,-2.0282,-2.026,-2.0293,-2.0587,-1.9725,-1.896,-1.849,-1.8763,-1.9299,-2.0085,-2.0695,-2.1561,-2.2681,-2.2515,-2.2327,-2.2214,-2.1748,-2.1528,-2.1517,-2.1141,-2.0959,-1.6163,-1.6751,-1.7514,-1.8235,-1.9567,-2.0796,-2.1145,-2.2021,-2.2973,-2.3562,-2.4566,-2.565,-2.6825,-2.7976,-2.9067,-3.0091,-3.0393,-3.0658,-3.1114,-3.119,-3.1329,-3.1657,-3.2175,-3.2674,-3.3075,-3.2716,-3.2635,-3.3059,-3.3427,-3.3922,-3.4554,-3.4792,-3.4899,-3.4899,-3.4899,-3.4899,-3.4899,-3.4899,-3.4037,-3.2329,-3.0101,-2.8449,-2.7335,-2.7233,-2.7093,-2.6925,-2.6846,-2.6806,-2.6806,-2.6806,-2.6806,-2.6806,-2.6806,-2.6806,-2.6727,-2.6111,-2.5893,-2.5784,-2.4922,-2.4295,-2.3712,-2.2927,-2.2463,-2.2197,-2.2197,-2.2197,-2.2197,-2.2197,-2.2438,-2.2702,-2.2702,-2.3119,-2.3553,-2.3652,-2.358,-2.3421,-2.3053,-2.2437,-2.1715,-2.1052,-2.0479,-2.0009,-1.9693,-1.9496,-1.9331,-1.9069,-1.8469,-1.8316,-1.9058,-1.931,-1.991,-2.1199,-2.108,-2.1015,-2.1332,-2.0467,-1.9648,-1.8993,-1.9113,-1.9572,-2.0336,-2.0793,-2.1536,-2.2569,-2.2402,-2.2176,-2.1987,-2.1379,-2.1114,-2.1104,-2.0602,-2.0385,-1.5525,-1.6157,-1.6995,-1.7576,-1.8684,-1.9749,-2.0348,-2.126,-2.2189,-2.2855,-2.383,-2.4971,-2.6291,-2.7465,-2.856,-2.9723,-3.0241,-3.0699,-3.1202,-3.1258,-3.1363,-3.1694,-3.2474,-3.3163,-3.3547,-3.4357,-3.4776,-3.4618,-3.4746,-3.4963,-3.5281,-3.5065,-3.4923,-3.4899,-3.4866,-3.4833,-3.4833,-3.4767,-3.3517,-3.1139,-2.9439,-2.8125,-2.7207,-2.7207,-2.7052,-2.6806,-2.6806,-2.6806,-2.6806,-2.6806,-2.6806,-2.6806,-2.6806,-2.6806,-2.6727,-2.6084,-2.5866,-2.5633,-2.4105,-2.3577,-2.3458,-2.2543,-2.2216,-2.2197,-2.2197,-2.2197,-2.2197,-2.2197,-2.2197,-2.2197,-2.2197,-2.257,-2.2855,-2.2342,-2.2618,-2.2687,-2.1565,-2.1638,-2.1548,-2.0402,-2.0129,-2.0118,-2.0118,-1.9725,-1.9768,-2.0719,-2.0063,-1.9331,-1.8895,-1.9244,-1.9888,-2.0872,-2.0971,-2.0971,-2.0971,-2.0949,-2.0533,-1.955,-1.9889,-2.0402,-2.0916,-2.1168,-2.1636,-2.2381,-2.2193,-2.1956,-2.1766,-2.128,-2.1041,-2.1031,-2.0529,-2.0323,-1.4573,-1.4668,-1.5006,-1.5425,-1.6252,-1.7063,-1.7358,-1.8388,-1.9449,-2.0015,-2.2285,-2.4509,-2.5625,-2.7785,-2.9761,-3.0936,-3.1066,-3.1257,-3.1935,-3.2022,-3.2042,-3.2144,-3.3614,-3.4631,-3.4694,-3.5972,-3.6582,-3.6098,-3.5517,-3.5223,-3.5304,-3.5281,-3.5165,-3.4899,-3.4369,-3.4071,-3.4071,-3.2994,-3.1763,-3.0442,-2.9357,-2.8299,-2.735,-2.7144,-2.7029,-2.6951,-2.6846,-2.6806,-2.6806,-2.6806,-2.6806,-2.6806,-2.6806,-2.6806,-2.6674,-2.5619,-2.5217,-2.5021,-2.3442,-2.3215,-2.3488,-2.2896,-2.2494,-2.2197,-2.2197,-2.2197,-2.2197,-2.2197,-2.2197,-2.2197,-2.2197,-2.2294,-2.2462,-2.2714,-2.2883,-2.2955,-2.2723,-2.2275,-2.1727,-2.1185,-2.0544,-2.0118,-2.0118,-2.0009,-2.0009,-2.026,-2.0424,-2.061,-2.0817,-2.0959,-2.1265,-2.1876,-2.1942,-2.1942,-2.1942,-2.1614,-2.1179,-2.0566,-2.0643,-2.0893,-2.1385,-2.1352,-2.1718,-2.2606,-2.194,-2.1549,-2.1512,-2.0564,-2.0145,-2.0124,-1.9668,-1.9417,-1.4401,-1.4441,-1.4663,-1.4971,-1.5601,-1.6278,-1.6785,-1.7834,-1.891,-1.9867,-2.2144,-2.4357,-2.5659,-2.7794,-2.9907,-3.1587,-3.1616,-3.188,-3.3175,-3.3057,-3.2884,-3.3017,-3.4322,-3.5258,-3.539,-3.6552,-3.7148,-3.688,-3.6376,-3.5962,-3.5677,-3.5492,-3.531,-3.5142,-3.4263,-3.3624,-3.3332,-3.1967,-3.103,-3.0494,-2.9242,-2.8271,-2.761,-2.7258,-2.7015,-2.6925,-2.6832,-2.6806,-2.6806,-2.6806,-2.6806,-2.6806,-2.6806,-2.6647,-2.6272,-2.5356,-2.4823,-2.4423,-2.3138,-2.2909,-2.3125,-2.2726,-2.2402,-2.2197,-2.2197,-2.2197,-2.2197,-2.2197,-2.2197,-2.2197,-2.2197,-2.2197,-2.227,-2.257,-2.263,-2.2587,-2.2376,-2.2115,-2.1704,-2.0963,-2.0621,-2.0456,-2.0456,-2.0609,-2.0816,-2.1034,-2.1144,-2.1244,-2.1299,-2.1461,-2.1854,-2.2542,-2.2408,-2.2313,-2.2313,-2.2248,-2.192,-2.1255,-2.1605,-2.1822,-2.1781,-2.1844,-2.1994,-2.212,-2.1644,-2.1267,-2.0948,-2.017,-1.9793,-1.9782,-1.9316,-1.9108,-1.4703,-1.488,-1.5096,-1.5379,-1.5844,-1.6483,-1.7409,-1.8399,-1.9548,-2.1072,-2.2896,-2.4669,-2.615,-2.7881,-2.9799,-3.1979,-3.2128,-3.2626,-3.4584,-3.4251,-3.3882,-3.4134,-3.4953,-3.5625,-3.5933,-3.6596,-3.7032,-3.7125,-3.6958,-3.6628,-3.6139,-3.5642,-3.5256,-3.4964,-3.4006,-3.3143,-3.2437,-3.1373,-3.0817,-3.0733,-2.9187,-2.8264,-2.7889,-2.7469,-2.7104,-2.6806,-2.6806,-2.6806,-2.6806,-2.6806,-2.6806,-2.6806,-2.6806,-2.6474,-2.5948,-2.5245,-2.4681,-2.406,-2.306,-2.272,-2.2647,-2.2309,-2.2197,-2.2197,-2.2197,-2.2197,-2.2197,-2.2197,-2.2197,-2.2197,-2.2197,-2.2197,-2.2197,-2.2197,-2.2197,-2.203,-2.1411,-2.1514,-2.1403,-2.0325,-2.0533,-2.0916,-2.0982,-2.1363,-2.1811,-2.2171,-2.1865,-2.1385,-2.0872,-2.1288,-2.1909,-2.2728,-2.2521,-2.2346,-2.2411,-2.2772,-2.2652,-2.1832,-2.2542,-2.2742,-2.2172,-2.2476,-2.2286,-2.1539,-2.1376,-2.0969,-2.0385,-1.9913,-1.9699,-1.9699,-1.9357,-1.9191,-1.5051,-1.4812,-1.4698,-1.5074,-1.5536,-1.6146,-1.7055,-1.8364,0.0,-2.1388,-2.3944,-2.6136,-2.6979,-2.9053,-3.117,-3.2842,-3.3152,-3.3756,-3.5374,-3.5498,-3.5293,-3.5026,-3.6238,-3.7022,-3.6817,-3.6922,-3.6951,-3.6806,-3.6024,-3.5697,-3.6071,-3.5597,-3.45,-3.2736,-3.2224,-3.1631,-3.0886,-3.0674,-3.0374,-2.9988,-2.956,-2.8865,-2.7898,-2.77,-2.7302,-2.6806,-2.6806,-2.6806,-2.6806,-2.6806,-2.6806,-2.6806,-2.6806,-2.6727,-2.65,-2.5412,-2.4922,-2.4652,-2.3198,-2.272,-2.2647,-2.2309,-2.2197,-2.2197,-2.2197,-2.2197,-2.2197,-2.2197,-2.2197,-2.2197,-2.2197,-2.2197,-2.2197,-2.2197,-2.2197,-2.2092,-2.1694,-2.1183,-2.0683,-2.0194,-2.0533,-2.1015,-2.143,-2.1865,-2.2084,-2.1767,-2.1647,-2.1265,-2.0358,-2.1046,-2.1647,-2.1822,-2.2127,-2.2466,-2.2848,-2.2957,-2.2936,-2.2761,-2.2903,-2.2957,-2.2844,-2.2585,-2.2371,-2.2248,-2.1146,-2.0503,-2.0385,-1.9592,-1.9222,-1.9233,-1.9533,-1.9679,-1.5503,-1.5488,-1.5577,-1.5678,-1.6249,-1.7118,-1.8336,0.0,0.0,-2.3147,-2.5054,-2.6786,-2.8417,-2.9956,-3.1594,-3.3377,-3.3371,-3.377,-3.556,-3.5893,-3.572,-3.5123,-3.6155,-3.6698,-3.6117,-3.5972,-3.5952,-3.6059,-3.5537,-3.5279,-3.5479,-3.4829,-3.3741,-3.2147,-3.1774,-3.125,-3.0506,-3.0506,-3.0384,-3.0156,-2.9859,-2.9248,-2.84,-2.7997,-2.7479,-2.6899,-2.6832,-2.6806,-2.6806,-2.6806,-2.6806,-2.6806,-2.6806,-2.6621,-2.6245,-2.5674,-2.5077,-2.4394,-2.356,-2.3017,-2.2647,-2.2402,-2.2247,-2.2197,-2.2197,-2.2197,-2.2197,-2.2197,-2.2197,-2.2197,-2.2197,-2.2197,-2.2197,-2.2197,-2.2061,-2.1894,-2.1714,-2.1115,-2.0539,-2.0388,-2.0654,-2.0883,-2.0839,-2.1243,-2.1308,-2.0577,-2.0456,-2.0194,-1.9442,-1.979,-2.0369,-2.1168,-2.1647,-2.2127,-2.2608,-2.2859,-2.3001,-2.3001,-2.3001,-2.2964,-2.2852,-2.2665,-2.2398,-2.2041,-2.1062,-2.0448,-2.0243,-1.9463,-1.9108,-1.9108,-1.9326,-1.9564,-1.6163,-1.6303,-1.6513,-1.657,-1.714,-1.8104,-1.9729,-2.065,0.0,-2.4917,-2.6283,-2.7598,-2.9801,-3.0863,-3.1963,-3.3762,-3.3759,-3.4078,-3.5696,-3.6376,-3.6329,-3.5347,-3.6067,-3.6343,-3.5541,-3.517,-3.5086,-3.5382,-3.5008,-3.4707,-3.4606,-3.394,-3.3103,-3.2096,-3.1688,-3.1191,-3.0609,-3.0547,-3.0506,-3.0506,-3.0135,-2.9572,-2.8881,-2.8328,-2.7695,-2.6977,-2.6873,-2.6806,-2.6806,-2.6806,-2.6806,-2.6806,-2.6806,-2.65,-2.6084,-2.5948,-2.5203,-2.4263,-2.3917,-2.3322,-2.2678,-2.2463,-2.2309,-2.2197,-2.2197,-2.2197,-2.2197,-2.2197,-2.2197,-2.2197,-2.2197,-2.2197,-2.2197,-2.2197,-2.1987,-2.1788,-2.1714,-2.1178,-2.0733,-2.0781,-2.0743,-2.062,-2.0314,-2.0522,-2.038,-1.9408,-1.9255,-1.9047,-1.8458,-1.8381,-1.8936,-2.0282,-2.0926,-2.1527,-2.2116,-2.2499,-2.2739,-2.2848,-2.2859,-2.2829,-2.2777,-2.274,-2.2445,-2.1923,-2.1201,-2.0631,-2.0239,-1.9573,-1.9202,-1.9108,-1.9305,-1.9585,-1.7161,-1.6795,-1.6683,-1.7399,-1.7632,-1.823,-2.0248,0.0,-2.3078,-2.5678,-2.771,-2.9407,-3.069,-3.1846,-3.2995,0.0,0.0,-3.5941,-3.6278,-3.7671,-3.8055,-3.6459,-3.6985,-3.7165,-3.6376,-3.5606,-3.516,-3.5138,-3.3999,-3.3398,-3.3618,-3.3326,-3.2774,-3.1942,-3.1356,-3.1022,-3.0955,-3.0651,-3.0506,-3.0506,-3.0447,-2.9897,-2.8881,-2.8724,-2.8027,-2.6977,-2.6873,-2.6806,-2.6806,-2.6806,-2.6806,-2.6806,-2.6806,-2.6779,-2.6647,-2.6084,-2.5481,-2.4809,-2.4063,-2.3322,-2.2678,-2.2463,-2.2309,-2.2197,-2.2197,-2.2197,-2.2197,-2.2197,-2.2197,-2.2197,-2.2197,-2.2197,-2.2197,-2.2197,-2.2185,-2.2061,-2.1788,-2.1411,-2.1179,-2.1284,-2.0709,-2.0303,-2.0763,-2.0467,-1.9845,-1.8905,-1.8753,-1.8425,-1.7558,-1.7437,-1.782,-1.8785,-1.9693,-2.062,-2.1581,-2.1691,-2.1909,-2.2357,-2.2342,-2.2564,-2.2942,-2.2815,-2.2681,-2.2601,-2.176,-2.1114,-2.0642,-2.0018,-1.9513,-1.9119,-1.9913,-2.0281,-1.8574,-1.8578,-1.8847,-1.8593,-1.9512,-2.083,-2.2228,-2.3696,-2.5428,-2.7758,-2.9026,-3.0127,-3.1543,-3.2431,-3.3193,0.0,0.0,0.0,-3.5596,-3.6816,-3.7193,-3.5998,-3.6708,-3.6783,-3.5447,-3.4921,-3.4542,-3.427,-3.3424,-3.2971,-3.3062,-3.2634,-3.215,-3.1673,-3.1428,-3.1114,-3.0695,-3.0773,-3.0712,-3.0506,-3.0506,-2.9984,-2.902,-2.8818,-2.8125,-2.7119,-2.6884,-2.6806,-2.6806,-2.6806,-2.6806,-2.6806,-2.6806,-2.6806,-2.6779,-2.6527,-2.5825,-2.4951,-2.4639,-2.3796,-2.2787,-2.2616,-2.2463,-2.2309,-2.2216,-2.2197,-2.2197,-2.2197,-2.2197,-2.2197,-2.2197,-2.2197,-2.2197,-2.2197,-2.2197,-2.2154,-2.2018,-2.158,-2.1319,-2.1638,-2.0841,-2.0085,-2.0009,-1.9594,-1.8949,-1.8017,-1.7875,-1.7733,-1.735,-1.7306,-1.7667,-1.8589,-1.9299,-2.0107,-2.1102,-2.1452,-2.168,-2.1865,-2.2149,-2.2364,-2.2586,-2.2785,-2.2889,-2.2889,-2.2008,-2.1358,-2.0882,-2.0149,-1.9554,-1.9119,-1.9761,-2.0172,-2.0259,-2.0433,-2.09,-2.0612,-2.1631,-2.3023,-2.4208,-2.5762,-2.7503,-2.9291,-3.0165,-3.1009,-3.2294,-3.2947,-3.3411,0.0,0.0,-3.5045,-3.5429,-3.6841,-3.7401,-3.628,-3.6793,-3.6686,-3.5218,-3.4615,-3.4185,-3.382,-3.3273,-3.289,-3.2795,-3.2318,-3.1948,-3.1783,-3.1673,-3.1353,-3.0797,-3.0935,-3.0834,-3.0506,-3.0506,-3.007,-2.9303,-2.8935,-2.8271,-2.7382,-2.7015,-2.6846,-2.6806,-2.6806,-2.6806,-2.6806,-2.6806,-2.6806,-2.6779,-2.6594,-2.5865,-2.4951,-2.4794,-2.3943,-2.2878,-2.2739,-2.2555,-2.2359,-2.2247,-2.2197,-2.2197,-2.2197,-2.2197,-2.2197,-2.2197,-2.2197,-2.2197,-2.2197,-2.2197,-2.2154,-2.2061,-2.1612,-2.1319,-2.1671,-2.0751,-1.9791,-1.9442,-1.8895,-1.8206,-1.7426,-1.7306,-1.7306,-1.7306,-1.7306,-1.7612,-1.8403,-1.8916,-1.9594,-2.0566,-2.097,-2.1221,-2.1363,-2.1691,-2.2018,-2.2302,-2.263,-2.2822,-2.2916,-2.2258,-2.1558,-2.0917,-2.0285,-1.9761,-1.9316,-1.9782,-2.0193,-2.2213,-2.2074,-2.2381,-2.3637,-2.3822,-2.4128,-2.5879,-2.7471,-2.8854,-2.9796,-3.1113,-3.2294,-3.297,-3.3415,-3.3834,-3.4233,0.0,0.0,-3.6272,-3.848,-3.9555,-3.7881,-3.7625,-3.7221,-3.6283,-3.5106,-3.4281,-3.4023,-3.3564,-3.3154,-3.2811,-3.254,-3.2388,-3.2388,-3.2073,-3.1784,-3.1485,-3.1157,-3.0834,-3.0506,-3.0506,-3.0241,-2.9772,-2.9182,-2.8535,-2.7864,-2.7258,-2.6925,-2.6806,-2.6806,-2.6806,-2.6806,-2.6806,-2.6806,-2.6727,-2.6111,-2.5508,-2.4894,-2.4321,-2.3573,-2.2878,-2.2739,-2.2555,-2.2359,-2.2247,-2.2197,-2.2197,-2.2197,-2.2197,-2.2197,-2.2197,-2.2197,-2.2197,-2.2197,-2.2197,-2.2123,-2.1788,-2.1443,-2.1255,-2.1385,-2.0323,-1.943,-1.9387,-1.8643,-1.7846,-1.7383,-1.7306,-1.7306,-1.7306,-1.7306,-1.7464,-1.7966,-1.8425,-1.9091,-2.0042,-2.0096,-2.0325,-2.0872,-2.0905,-2.1343,-2.228,-2.2288,-2.2422,-2.2692,-2.2505,-2.1861,-2.0705,-2.0492,-2.0193,-1.9803,-2.0213,-2.0622,-2.4475,-2.4883,-2.5575,-2.5582,-2.632,-2.7267,-2.8152,-2.9546,-3.0846,-3.1444,-3.2221,-3.2845,-3.3064,-3.3643,-3.4389,-3.5195,-3.5977,0.0,-3.7908,-3.8661,-3.8965,-3.8581,-3.7413,-3.6283,-3.5401,-3.4808,-3.4397,-3.4281,-3.3915,-3.355,-3.3154,-3.2829,-3.247,-3.2055,-3.2179,-3.1893,-3.1173,-3.1291,-3.1058,-3.0506,-3.0506,-3.0241,-2.9772,-2.9182,-2.8535,-2.7864,-2.7244,-2.6925,-2.6806,-2.6806,-2.6806,-2.6806,-2.6806,-2.6806,-2.6727,-2.6111,-2.5508,-2.4894,-2.4321,-2.3632,-2.3017,-2.2878,-2.2739,-2.2586,-2.2389,-2.2278,-2.2197,-2.2197,-2.2197,-2.2197,-2.2197,-2.2197,-2.2197,-2.2197,-2.2197,-2.2092,-2.1788,-2.1443,-2.1255,-2.1385,-2.0323,-1.9387,-1.9387,-1.8632,-1.7835,-1.7383,-1.7306,-1.7306,-1.7306,-1.7306,-1.7612,-1.8392,-1.86,-1.8949,-1.9562,-1.9922,-2.0172,-2.0325,-2.0719,-2.1036,-2.1343,-2.1964,-2.2353,-2.2422,-2.2541,-2.2129,-2.1125,-2.0786,-2.0334,-1.9803,-1.9938,-2.0379,0.0,-2.6983,-2.7932,-2.78,-2.8559,-2.9493,-3.0049,-3.1159,-3.2161,-3.2533,-3.2993,-3.3364,-3.3515,-3.4025,-3.4753,-3.578,-3.6445,-3.7234,-3.8369,-3.9301,-3.9682,-3.9196,-3.7729,-3.6282,-3.5095,-3.4701,-3.4473,-3.4416,-3.4086,-3.3716,-3.3321,-3.2968,-3.2586,-3.2091,-3.2284,-3.2072,-3.1351,-3.1447,-3.1235,-3.0692,-3.0551,-3.0342,-3.0049,-2.9303,-2.8701,-2.8143,-2.7397,-2.6963,0.0,-2.6806,-2.6806,-2.6806,-2.6806,-2.6806,-2.6727,-2.6111,-2.5508,-2.4894,-2.4321,-2.3662,-2.3078,-2.2878,-2.2678,-2.2506,-2.2371,-2.2278,-2.2197,-2.2197,-2.2197,-2.2197,-2.2197,-2.2197,-2.2197,-2.2197,-2.2197,-2.2092,-2.1788,-2.1443,-2.114,-2.0879,-1.9903,-1.9091,-1.8916,-1.8239,-1.7628,-1.735,-1.7306,-1.7306,-1.7306,-1.7306,-1.7601,-1.8348,-1.8436,-1.8698,-1.9364,-1.9834,-2.0118,-2.0118,-2.0424,-2.0675,-2.0883,-2.1439,-2.1819,-2.1933,-2.2269,-2.202,-2.1207,-2.0857,-2.0404,-1.9793,-1.9793,-2.0093,0.0,-2.8534,-2.9536,-3.0174,-3.052,-3.0889,-3.1528,-3.2298,0.0,-3.3112,-3.3472,-3.386,-3.4308,-3.4509,-3.5015,-3.6197,-3.7245,-3.7945,-3.8094,-4.0255,-4.1197,-3.9508,-3.8293,-3.6954,-3.5259,-3.4744,-3.4484,-3.4397,-3.4111,-3.3743,-3.3335,-3.3016,-3.2702,-3.2405,-3.2406,-3.2232,-3.1894,-3.1635,-3.1332,-3.0995,-3.0654,-3.0506,-3.0468,-2.955,-2.9005,-2.8662,-2.767,-2.7078,-2.6806,-2.6806,-2.6806,-2.6806,-2.6806,-2.6806,-2.6727,-2.6111,-2.555,-2.4951,-2.4321,-2.3691,-2.3108,-2.28,-2.2506,-2.2228,-2.2228,-2.2197,-2.2197,-2.2197,-2.2197,-2.2197,-2.2197,-2.2197,-2.2197,-2.2197,-2.2197,-2.2092,-2.1788,-2.1439,-2.0931,-2.011,-1.9257,-1.8531,-1.8105,-1.7623,-1.7306,-1.7306,-1.7306,-1.7306,-1.7306,-1.7306,-1.7475,-1.7999,-1.8054,-1.8436,-1.9355,-1.9824,-2.0074,-2.0118,-2.0118,-2.0314,-2.0818,-2.0872,-2.1022,-2.1336,-2.179,-2.1693,-2.103,-2.0822,-2.0404,-1.9827,-1.9803,-1.9793,-2.9695,0.0,-3.1228,-3.138,-3.1649,-3.202,0.0,-3.2903,-3.3343,0.0,0.0,0.0,-3.51,-3.501,-3.5571,-3.7879,-3.8065,-3.843,-3.9908,-4.0101,-3.938,-3.7506,-3.6942,-3.6285,-3.5201,-3.4774,-3.4539,-3.4484,-3.4351,-3.403,-3.3419,-3.3258,-3.2925,-3.2423,-3.2406,-3.2232,-3.1894,-3.1635,-3.1332,-3.0995,-3.0654,-3.0506,-3.0468,-2.9897,-2.9348,-2.8811,-2.8061,-2.7433,-2.6951,-2.6846,-2.6806,-2.6806,-2.6806,-2.6806,-2.6727,-2.6111,-2.5811,-2.555,-2.4465,-2.4015,-2.375,-2.2939,-2.2659,-2.2525,-2.229,-2.2197,-2.2197,-2.2197,-2.2197,-2.2197,-2.2197,-2.2197,-2.2197,-2.2197,-2.2197,-2.2092,-2.1788,-2.1315,-2.0815,-2.0362,-1.931,-1.8436,-1.8324,-1.7754,-1.7306,-1.7306,-1.7306,-1.7306,-1.7306,-1.7306,-1.7623,-1.8436,-1.8523,-1.8927,-1.9867,-1.9704,-1.9715,-2.0085,-2.0118,-2.0162,-2.0282,-2.0664,-2.109,-2.1511,-2.199,-2.1894,-2.1242,-2.102,-2.0635,-2.0033,-1.9861,-1.9793,-3.1271,-3.2004,-3.2486,-3.2486,-3.2897,-3.3366,-3.3539,0.0,0.0,0.0,0.0,0.0,0.0,-3.5346,-3.5989,-3.7614,-3.8224,-3.9047,-4.0584,-3.9713,-3.8504,-3.745,-3.6784,-3.6067,-3.5182,-3.4803,-3.4561,-3.4506,-3.4473,-3.4203,-3.3662,-3.3447,-3.3108,-3.2606,-3.2456,-3.2319,-3.2126,-3.171,-3.1408,-3.1232,-3.0736,-3.0506,-3.0468,-2.9793,-2.9273,-2.8858,-2.8042,-2.7423,-2.6977,-2.6925,-2.6873,-2.6806,-2.6806,-2.6806,-2.6753,-2.642,-2.6138,-2.5811,-2.5147,-2.4509,-2.3826,-2.2969,-2.2647,-2.2525,-2.2278,-2.2197,-2.2197,-2.2197,-2.2197,-2.2197,-2.2197,-2.2197,-2.2197,-2.2197,-2.2197,-2.2094,-2.1646,-2.1209,-2.0716,-2.0082,-1.9119,-1.8339,-1.8126,-1.7667,-1.7306,-1.7306,-1.7306,-1.7306,-1.7306,-1.7475,-1.789,-1.8611,-1.8687,-1.9091,-2.0031,-1.966,-1.9595,-2.0085,-2.0118,-2.0118,-2.0118,-2.0402,-2.0762,-2.1277,-2.1516,-2.1411,-2.0978,-2.0994,-2.067,-2.0044,-1.9861,-1.9793,-3.2454,-3.3191,-3.3546,-3.3354,-3.39,-3.448,-3.4416,0.0,0.0,0.0,0.0,0.0,0.0,-3.5761,-3.6432,-3.7163,-3.851,-3.9658,-4.0314,-3.9127,-3.8115,-3.7845,-3.6863,-3.5914,-3.5163,-3.4803,-3.4591,-3.4517,-3.4506,-3.4316,-3.3889,-3.3574,-3.3214,-3.2781,-3.2523,-3.2406,-3.2406,-3.1801,-3.1485,-3.1485,-3.0818,-3.0506,-3.0468,-2.9661,-2.9166,-2.8881,-2.8008,0.0,-2.7029,-2.7003,-2.6925,-2.6806,-2.6806,-2.6806,-2.6806,-2.6806,-2.6474,-2.6002,-2.5839,-2.4936,-2.3725,-2.2969,-2.2616,-2.242,-2.2278,-2.2216,-2.2197,-2.2197,-2.2197,-2.2197,-2.2197,-2.2197,-2.2197,-2.2197,-2.2197,-2.2053,-2.1512,-2.1111,-2.0576,-1.9587,-1.8827,-1.8199,-1.7779,-1.7473,-1.7306,-1.7306,-1.7306,-1.7306,-1.7306,-1.7704,-1.8185,-1.8643,-1.8753,-1.9168,-2.0042,-1.9736,-1.9671,-2.0085,-2.0118,-2.0118,-2.0118,-2.0183,-2.0413,-2.0774,-2.0927,-2.0869,-2.059,-2.093,-2.0776,-2.0149,-2.0049,-1.9927,-3.2503,-3.3832,-3.4651,-3.3584,-3.39,-3.4392,-3.4014,0.0,0.0,0.0,0.0,0.0,0.0,-3.6742,-3.7329,-3.9565,-4.0279,-4.0089,-3.8773,-3.8367,-3.7671,-3.6245,-3.5619,-3.5248,-3.5106,-3.4803,-3.4602,-3.4591,-3.4528,-3.4274,-3.3773,-3.3514,-3.3169,-3.2654,-3.2473,-3.2406,-3.2406,-3.1801,-3.1485,-3.1485,-3.0818,-3.0506,-3.0506,-3.0363,-2.9837,-2.9051,0.0,-2.8091,-2.7155,-2.7055,-2.6925,-2.6806,-2.6806,-2.6806,-2.6806,-2.6806,-2.6727,-2.6527,-2.5495,-2.4652,-2.3914,-2.3138,-2.2769,-2.2616,-2.242,-2.2278,-2.2197,-2.2197,-2.2197,-2.2197,-2.2197,-2.2197,-2.2197,-2.2197,-2.2197,-2.2053,-2.1512,-2.099,-2.0399,-1.9573,-1.873,-1.8038,-1.775,-1.7473,-1.7306,-1.7306,-1.7306,-1.7306,-1.7306,-1.7704,-1.8185,-1.8643,-1.9058,-1.9507,-2.0063,-2.0042,-2.0031,-2.0107,-2.0118,-2.0118,-2.0118,-2.0533,-2.0598,-2.0227,-2.1057,-2.1207,-2.059,-2.1275,-2.1349,-2.0857,-2.0865,-2.06,-3.2878,-3.4063,-3.4981,-3.4587,-3.4971,-3.5473,-3.571,0.0,0.0,0.0,0.0,0.0,0.0,-3.6755,-3.7904,-4.0135,-3.9888,-3.9127,-3.8309,-3.7787,-3.7058,-3.5839,-3.535,-3.5106,-3.5106,-3.4803,-3.4612,-3.4612,-3.4561,-3.4431,-3.4148,-3.3773,-3.3443,-3.3202,-3.2753,-3.2524,-3.2524,-3.1839,-3.1485,-3.1485,-3.0818,-3.0506,-3.0489,-3.0236,-2.9897,-2.9438,0.0,-2.8247,-2.766,-2.7284,-2.7015,-2.6899,-2.6832,-2.6806,-2.6806,-2.6806,-2.6806,-2.6633,-2.5412,-2.4823,-2.4394,-2.3275,-2.2848,-2.2769,-2.2482,-2.2359,-2.2278,-2.2216,-2.2197,-2.2197,-2.2197,-2.2197,-2.2197,-2.2197,-2.2197,-2.1969,-2.1151,-2.0754,-2.0334,-1.9364,-1.86,-1.8057,-1.7947,-1.7573,-1.7394,-1.7628,-1.7453,-1.7492,-1.7977,-1.8239,-1.8556,-1.9037,-1.9486,-1.9867,-2.0096,-2.0118,-2.0118,-2.0118,-2.0118,-2.0118,-2.0118,-2.0325,-2.0336,-2.0085,-2.0554,-2.063,-2.0346,-2.0857,-2.0979,-2.081,-2.0973,-2.081,-3.3302,-3.4191,-3.5096,-3.5473,0.0,-3.6293,-3.7065,-3.5793,0.0,0.0,0.0,0.0,-3.5484,-3.6763,-3.8222,-3.9711,-3.8981,-3.8135,-3.7922,-3.7328,-3.6582,-3.5728,-3.5328,-3.5089,-3.5066,-3.4773,-3.4612,-3.4612,-3.4612,-3.455,-3.4461,-3.3981,-3.368,-3.3625,-3.3006,-3.2655,-3.2606,-3.1894,-3.1542,-3.1485,-3.0818,-3.0506,-3.0506,-3.0135,-2.9903,-2.975,-2.8857,-2.8328,-2.8052,-2.7433,-2.7119,-2.6977,-2.6846,-2.6806,-2.6806,-2.6806,-2.6806,-2.6647,-2.5591,-2.5133,-2.4809,-2.3573,-2.3047,-2.2848,-2.2543,-2.242,-2.2359,-2.2247,-2.2101,-2.2005,-2.2005,-2.2005,-2.1981,-2.1861,-2.1825,-2.156,-2.0622,-2.0394,-2.0105,-1.9087,-1.8464,-1.8084,-1.803,-1.7601,-1.7426,-1.7781,-1.7617,-1.7715,-1.8436,-1.872,-1.9004,-1.9344,-1.9824,-2.0118,-2.0118,-2.0118,-2.0118,-2.0118,-2.0118,-2.0118,-2.0118,-2.0118,-2.0118,-2.0118,-2.0118,-2.0074,-2.0042,-2.043,-2.059,-2.0601,-2.0877,-2.0949,-3.3578,-3.4362,-3.5132,-3.5654,-3.5796,0.0,-3.6601,-3.5769,0.0,-3.5678,0.0,-3.5422,-3.6265,-3.7368,-3.8196,-3.8349,-3.8264,-3.7922,-3.7116,-3.6942,-3.6534,-3.5547,-3.5224,-3.5039,-3.4926,-3.473,-3.4612,-3.4612,-3.4612,-3.4517,-3.4316,-3.393,-3.3607,-3.3433,-3.3068,-3.2786,-3.2606,-3.1985,-3.162,-3.1485,-3.0818,-3.0506,-3.0506,-3.0485,-3.0199,-2.9772,-2.9257,-2.8677,-2.8052,-2.7433,-2.7119,-2.6977,-2.6846,-2.6806,-2.6806,-2.6806,-2.6806,-2.67,-2.6056,-2.5481,-2.4908,-2.4234,-2.3514,-2.2878,-2.2708,-2.2555,-2.2359,-2.2247,-2.1837,-2.1464,-2.1464,-2.1464,-2.1344,-2.0839,-2.073,-2.0562,-1.9973,-1.9868,-1.9605,-1.88,-1.8356,-1.803,-1.7767,-1.7501,-1.7317,-1.735,-1.7682,-1.7977,-1.8043,-1.8818,-1.9344,-1.9408,-1.9824,-2.0118,-2.0118,-2.0118,-2.0118,-2.0118,-2.0118,-2.0118,-2.0118,-2.0118,-2.0118,-2.0118,-2.0118,-2.0042,-1.99,-2.0386,-2.059,-2.0601,-2.0877,-2.1101,-3.3541,-3.4027,-3.4576,-3.5349,-3.5372,0.0,0.0,-3.5952,-3.5145,-3.5989,-3.5642,-3.5492,-3.65,-3.7032,-3.752,-3.811,-3.7748,-3.729,-3.6961,-3.6355,-3.5824,-3.5443,-3.5149,-3.4954,-3.4898,-3.472,-3.4612,-3.4612,-3.4612,-3.4517,-3.4305,-3.4043,-3.3778,-3.3597,-3.322,-3.276,-3.2181,-3.2055,-3.1616,-3.0878,-3.0624,-3.0506,-3.0506,-3.0506,-3.0405,-3.0215,-2.9728,-2.9234,-2.8677,-2.7953,-2.7433,-2.7093,-2.6884,-2.6806,-2.6806,-2.6806,-2.6806,-2.67,-2.6111,-2.5743,-2.5398,-2.4408,-2.3897,-2.3543,-2.3,-2.2708,-2.2482,-2.1959,-2.1849,-2.1897,-2.1897,-2.1404,-2.0947,-2.1079,-2.0851,-2.0466,-1.9929,-1.9808,-1.9624,-1.8961,-1.8614,-1.8302,-1.8002,-1.7739,-1.77,-1.8094,-1.8075,-1.8327,-1.9191,-1.9355,-1.9507,-1.9813,-1.9998,-2.0118,-2.0118,-2.0118,-2.0118,-2.0118,-2.0118,-2.0118,-2.0118,-2.0118,-2.0118,-2.0118,-2.0118,-2.0074,-2.0009,-2.0194,-2.028,-2.0291,-2.0746,-2.0986,-3.3643,-3.3855,-3.4166,-3.4866,0.0,0.0,-3.632,-3.5817,-3.5335,-3.6218,-3.5807,-3.5515,-3.6247,-3.6421,-3.6639,-3.7266,-3.6897,-3.6516,-3.6516,-3.5925,-3.5451,-3.5316,-3.51,-3.4917,-3.4821,-3.4678,-3.4612,-3.4612,-3.4539,-3.445,-3.4305,-3.4049,-3.3842,-3.3698,-3.3118,-3.2517,-3.1915,-3.1884,-3.1341,-3.0283,-3.0297,-3.0377,-3.0506,-3.0506,-3.0506,-3.0468,-3.0006,-2.9528,-2.9051,-2.828,-2.7645,-2.7104,-2.6884,-2.6806,-2.6806,-2.6806,-2.6806,-2.6727,-2.634,-2.6056,-2.5757,-2.495,-2.4408,-2.3985,-2.3365,-2.3047,-2.2786,-2.2043,-2.1885,-2.1928,-2.1927,-2.1284,-2.0658,-2.0851,-2.049,-1.9997,-1.964,-1.9555,-1.9447,-1.9059,-1.8774,-1.8533,-1.8302,-1.8072,-1.8075,-1.8537,-1.8517,-1.8807,-1.9758,-1.9725,-1.9747,-2.0085,-2.0118,-2.0118,-2.0118,-2.0118,-2.0118,-2.0118,-2.0118,-2.0118,-2.0118,-2.0118,-2.0118,-2.0118,-2.0118,-2.0118,-2.0118,-2.0118,-2.0118,-2.0118,-2.0478,-2.0724,-3.3921,-3.3998,-3.4043,0.0,0.0,0.0,-3.4999,-3.5304,-3.5662,-3.6269,-3.5921,-3.5494,-3.5502,-3.5554,-3.561,-3.5601,-3.5668,-3.5704,-3.5704,-3.5704,-3.5553,-3.5146,-3.5087,-3.4942,-3.4618,-3.4594,-3.4594,-3.4594,-3.439,-3.4274,-3.4274,-3.3902,-3.368,-3.368,-3.2724,-3.209,-3.1879,-3.1414,-3.072,-2.9789,-2.9854,-3.0098,-3.0472,-3.0472,-3.0472,-3.0452,-2.9989,-2.9512,-2.9035,-2.8376,-2.766,-2.6977,-2.6846,-2.6806,-2.6806,-2.6806,-2.6806,-2.6806,-2.6806,-2.642,-2.5921,-2.5893,-2.509,-2.4089,-2.3859,-2.3619,-2.3271,-2.2592,-2.1854,-2.1312,-2.1395,-2.0995,-2.0466,-1.9941,-1.9399,-1.8987,-1.8987,-1.8987,-1.8987,-1.8987,-1.8774,-1.8587,-1.8587,-1.8473,-1.8406,-1.8417,-1.8967,-1.9408,-1.943,-1.9813,-2.0118,-2.0118,-2.0118,-2.0118,-2.0118,-2.0118,-2.0118,-2.0118,-2.0118,-2.0118,-2.0118,-2.0118,-2.0118,-2.0118,-2.0118,-2.0118,-2.0118,-2.0118,-2.0118,-2.0118,-2.0118,-2.027,-3.3775,-3.3855,-3.3881,-3.3992,0.0,0.0,0.0,-3.5062,0.0,0.0,-3.5619,-3.5494,-3.5502,-3.5515,-3.5554,-3.5584,-3.562,-3.5637,-3.5637,-3.554,-3.518,-3.4351,-3.4137,-3.3733,-3.2924,-3.2837,-3.2837,-3.2837,-3.2795,-3.2657,-3.2413,-3.2293,-3.2093,-3.1815,-3.1515,-3.1061,-3.0428,-3.0711,-3.0178,-2.8888,-2.9334,-2.944,-2.9226,-2.9084,-2.9019,-2.9019,-2.8883,-2.882,-2.8762,-2.8207,-2.757,-2.6977,-2.6846,-2.6806,-2.6806,-2.6806,-2.6806,-2.6806,-2.6806,-2.6674,-2.6447,-2.6029,-2.566,-2.5231,-2.4509,-2.3859,-2.3251,-2.2483,-2.1985,-2.1489,-2.0859,-2.0588,-2.0346,-1.9899,-1.9399,-1.8987,-1.8987,-1.8987,-1.8987,-1.8987,-1.8934,-1.8827,-1.864,-1.8363,-1.8346,-1.8832,-1.8901,-1.9157,-1.9813,-2.002,-2.0118,-2.0118,-2.0118,-2.0118,-2.0118,-2.0118,-2.0118,-2.0118,-2.0118,-2.0118,-2.0118,-2.0118,-2.0118,-2.0118,-2.0118,-2.0118,-2.0118,-2.0118,-2.0118,-2.0118,-2.0118,-2.027,-3.3555,-3.3694,0.0,-3.3842,-3.3961,-3.4189,-3.4612,-3.499,-3.5312,-3.5479,-3.55,-3.5507,-3.5495,-3.5496,-3.5515,-3.5554,-3.5577,-3.5606,-3.5606,-3.5219,-3.4658,-3.3987,-3.3428,-3.2854,-3.2162,-3.2105,-3.2105,-3.2105,-3.2025,-3.1888,-3.1684,-3.1549,-3.1383,-3.1137,-3.073,-3.0292,-2.9802,-3.0111,-2.9637,-2.8398,-2.8774,-2.8631,-2.8044,-2.83,-2.8392,-2.8392,-2.8165,-2.8058,-2.7982,-2.7357,-2.6956,-2.666,-2.6465,-2.6413,-2.6442,-2.6704,-2.6646,-2.6457,-2.6718,-2.6806,-2.6727,-2.6367,-2.6084,-2.5784,-2.5077,-2.4293,-2.3508,-2.2696,-2.2143,-2.1582,-2.0835,-2.037,-2.0017,-1.9842,-1.9399,-1.8987,-1.8987,-1.8987,-1.8987,-1.8987,-1.8987,-1.8934,-1.8774,-1.8655,-1.8797,-1.9399,-1.9462,-1.9522,-1.9801,-1.9998,-2.0042,-1.9845,-1.9998,-2.0118,-2.0118,-2.0118,-2.0118,-2.0118,-2.0118,-2.0118,-2.0118,-2.0118,-2.0118,-2.0118,-2.0118,-2.0118,-2.0118,-2.0118,-2.0118,-2.0118,-2.0118,-2.0161,-3.3426,-3.3591,-3.3766,-3.3867,-3.391,-3.4055,-3.4529,-3.5025,-3.5372,-3.5467,-3.55,-3.55,-3.55,-3.5495,-3.5502,-3.5502,-3.5559,-3.5595,-3.5601,-3.4853,-3.4178,-3.3834,-3.298,-3.2249,-3.1918,-3.1879,-3.1879,-3.1879,-3.1707,-3.1581,-3.1548,-3.1262,-3.1088,-3.1068,-3.0184,-2.9694,-2.9694,-2.9566,-2.9057,-2.8174,-2.8231,-2.7818,-2.7024,-2.784,-2.8194,-2.8191,-2.7764,-2.7338,-2.6909,-2.6294,-2.6086,-2.6145,-2.5906,-2.5756,-2.5763,-2.6413,-2.6283,-2.5905,-2.6515,-2.6762,-2.6806,-2.6806,-2.642,-2.5921,-2.5577,-2.4833,-2.3933,-2.319,-2.235,-2.1575,-2.1094,-2.0345,-1.9728,-1.9806,-1.9416,-1.8987,-1.8987,-1.8987,-1.8987,-1.8987,-1.8987,-1.8987,-1.8987,-1.9124,-1.9409,-1.9942,-2.0304,-2.0252,-1.9505,-1.978,-1.9878,-1.9431,-1.978,-2.0063,-2.0107,-2.0118,-2.0118,-2.0118,-2.0118,-2.0118,-2.0118,-2.0118,-2.0118,-2.0118,-2.0118,-2.0118,-2.0118,-2.0118,-2.0118,-2.0118,-2.0118,-2.0042,-3.432,-3.4029,0.0,-3.4527,-3.4439,-3.4166,-3.4277,-3.4676,-3.5094,-3.5357,-3.546,-3.55,-3.55,-3.5507,-3.5494,-3.5494,-3.5515,-3.554,-3.5584,-3.5341,-3.4597,-3.3134,-3.2638,-3.1823,-3.0368,-3.0208,-3.0208,-3.0208,-3.018,-3.0015,-2.9698,-2.9599,-2.9464,-2.9201,-2.8969,-2.8853,-2.8853,-2.8827,-2.855,-2.8041,-2.7944,-2.7539,-2.6842,-2.6733,-2.6684,-2.6699,-2.7154,-2.7081,-2.6639,-2.6941,-2.6632,-2.595,-2.5794,-2.5437,-2.5042,-2.5241,-2.5527,-2.5832,-2.5977,-2.637,-2.6806,-2.6806,-2.67,-2.6553,-2.6217,-2.5158,-2.4002,-2.3641,-2.2536,-2.1368,-2.0943,-2.0701,-2.046,-2.0194,-1.9534,-1.8987,-1.8987,-1.8987,-1.8987,-1.8987,-1.8987,-1.8987,-1.8987,-1.8869,-1.8876,-1.9258,-1.9725,-1.9896,-1.9461,-1.9475,-1.9507,-1.9398,-1.9475,-1.9693,-2.0085,-2.0118,-2.0118,-2.0118,-2.0118,-2.0118,-2.0118,-2.0118,-2.0118,-2.0118,-2.0118,-2.0118,-2.0118,-2.0118,-2.0118,-2.0118,-2.0118,-2.0074,-3.3735,0.0,0.0,-3.4238,-3.4226,-3.403,-3.4172,-3.439,-3.4648,-3.4962,-3.5254,-3.546,-3.5493,-3.55,-3.55,-3.55,-3.5149,-3.488,-3.4834,-3.4059,-3.3241,-3.2586,-3.2019,-3.1308,-3.0368,-3.0265,-3.0114,-2.972,-2.9617,-2.9463,-2.9251,-2.909,-2.8927,-2.8749,-2.865,-2.86,-2.86,-2.86,-2.8453,-2.8183,-2.7933,-2.7474,-2.6874,-2.6416,-2.6202,-2.6219,-2.6601,-2.6494,-2.6044,-2.6317,-2.6141,-2.5649,-2.5522,-2.5114,-2.4652,-2.4998,-2.5034,-2.4921,-2.5226,-2.556,-2.585,-2.5879,-2.5879,-2.5814,-2.5489,-2.465,-2.3738,-2.3339,-2.2427,-2.1506,-2.1191,-2.0932,-2.0759,-2.0535,-1.9862,-1.9303,-1.9303,-1.9146,-1.8987,-1.8987,-1.8987,-1.8987,-1.8987,-1.9096,-1.914,-1.9021,-1.9444,-1.9579,-1.9131,-1.9277,-1.9387,-1.9387,-1.9595,-1.9834,-2.0096,-2.0118,-2.0118,-2.0118,-2.0118,-2.0118,-2.0118,-2.0118,-2.0118,-2.0118,-2.0118,-2.0118,-2.0118,-2.0118,-2.0118,-2.0118,-2.0118,-2.0118,-3.3019,0.0,-3.3542,-3.3689,-3.3748,-3.3873,-3.4086,-3.4172,-3.4265,-3.4486,-3.4971,-3.535,-3.5376,-3.5424,-3.54,-3.5199,-3.4574,-3.4004,-3.3761,-3.2466,-3.1689,-3.2048,-3.1374,-3.0884,-3.0893,-3.0893,-3.0612,-2.9964,-2.9746,-2.9582,-2.9402,-2.9097,-2.8922,-2.8905,-2.8712,-2.86,-2.86,-2.86,-2.8536,-2.8419,-2.7989,-2.7567,-2.7086,-2.6572,-2.631,-2.6257,-2.6221,-2.599,-2.5612,-2.5554,-2.5468,-2.5336,-2.5215,-2.4844,-2.4395,-2.4885,-2.4602,-2.4057,-2.4486,-2.4723,-2.481,-2.4863,-2.4878,-2.4853,-2.4564,-2.4022,-2.3387,-2.2902,-2.2287,-2.1722,-2.1471,-2.1142,-2.0894,-2.0894,-2.0334,-1.9759,-1.963,-1.933,-1.9093,-1.9013,-1.8987,-1.9013,-1.9093,-1.9402,-1.9479,-1.8987,-1.9229,-1.9258,-1.8657,-1.8927,-1.92,-1.9288,-1.9627,-1.9933,-2.0107,-2.0118,-2.0118,-2.0118,-2.0118,-2.0118,-2.0118,-2.0118,-2.0118,-2.0118,-2.0118,-2.0118,-2.0118,-2.0118,-2.0118,-2.0118,-2.0118,-2.0118,-3.3936,0.0,-3.4187,0.0,-3.3597,-3.382,-3.386,-3.4018,-3.4215,-3.4242,-3.4726,-3.5088,-3.4917,-3.507,-3.4945,-3.4001,-3.3755,-3.3449,-3.2798,-3.2341,-3.1882,-3.1321,-3.0998,-3.0835,-3.0893,-3.0893,-3.0856,-3.0743,-3.0705,-3.0318,-2.945,-2.9198,-2.9023,-2.8887,-2.8712,-2.86,-2.86,-2.86,-2.8587,-2.8562,-2.8045,-2.7701,-2.7507,-2.7085,-2.6775,-2.6537,-2.6292,-2.6168,-2.6114,-2.6096,-2.5726,-2.5136,-2.5116,-2.4673,-2.4012,-2.3754,-2.3955,-2.4309,-2.4095,-2.4346,-2.481,-2.481,-2.4839,-2.4878,-2.4775,-2.4168,-2.345,-2.3122,-2.2432,-2.1722,-2.1471,-2.1361,-2.1326,-2.1326,-2.0981,-2.0459,-1.9759,-1.9565,-1.9434,-1.9066,-1.8987,-1.9119,-1.946,-1.9285,-1.9063,-1.8912,-1.8954,-1.8771,-1.8185,-1.8152,-1.8348,-1.8742,-1.8851,-1.9222,-2.0042,-2.0118,-2.0118,-2.0118,-2.0118,-2.0118,-2.0118,-2.0118,-2.0118,-2.0118,-2.0118,-2.0118,-2.0118,-2.0118,-2.0118,-2.0118,-2.0118,-2.0118,-3.3142,-3.3281,-3.3225,0.0,-3.3273,-3.3522,-3.3522,-3.3775,-3.3985,-3.3974,-3.4311,-3.4636,-3.4773,-3.4908,-3.4679,-3.376,-3.3211,-3.2454,-3.1114,-3.0864,-3.064,-3.0199,-3.0497,-3.0767,-3.0835,-3.0442,-2.9983,-2.9533,-2.9429,-2.9184,-2.876,-2.896,-2.9071,-2.9012,-2.8932,-2.8845,-2.8773,-2.8845,-2.8809,-2.8644,-2.8242,-2.7947,-2.7806,-2.7402,-2.7006,-2.6589,-2.6485,-2.6345,-2.6202,-2.6202,-2.5879,-2.5375,-2.5378,-2.493,-2.4271,-2.4094,-2.3941,-2.3807,-2.3665,-2.3674,-2.3728,-2.3728,-2.3766,-2.3766,-2.3728,-2.3479,-2.3086,-2.271,-2.231,-2.1926,-2.152,-2.1399,-2.1399,-2.1399,-2.1264,-2.0981,-2.0409,-2.0093,-1.9823,-1.9396,-1.933,-1.933,-1.9277,-1.9119,-1.8884,-1.852,-1.8444,-1.8351,-1.8024,-1.801,-1.8294,-1.9015,-1.9102,-1.9386,-2.0053,-2.0118,-2.0118,-2.0118,-2.0118,-2.0118,-2.0118,-2.0118,-2.0118,-2.0118,-2.0118,-2.0118,-2.0118,-2.0118,-2.0118,-2.0118,-2.0118,-2.0118,0.0,0.0,-3.2369,-3.2619,-3.2905,-3.3199,-3.3291,-3.3437,-3.3592,-3.3762,-3.3897,-3.4092,-3.4505,-3.4651,-3.4373,-3.3298,-3.2468,-3.1318,-2.9542,-2.912,-2.9008,-2.9088,-2.9676,-3.0165,-3.043,-2.9925,-2.9242,-2.8464,-2.825,-2.8173,-2.8202,-2.859,-2.8912,-2.9097,-2.9097,-2.9049,-2.895,-2.9038,-2.8971,-2.8743,-2.8409,-2.8187,-2.8039,-2.7644,-2.7231,-2.6809,-2.6657,-2.6485,-2.6292,-2.6238,-2.5968,-2.56,-2.5602,-2.5204,-2.462,-2.4518,-2.4156,-2.3659,-2.3471,-2.3238,-2.3008,-2.2933,-2.2888,-2.2888,-2.2888,-2.2888,-2.2797,-2.2324,-2.2208,-2.2091,-2.1544,-2.1399,-2.1399,-2.1399,-2.1399,-2.1288,-2.0883,-2.0498,-2.0144,-1.9939,-1.9734,-1.9539,-1.933,-1.9146,-1.8827,-1.8302,-1.8139,-1.8068,-1.7942,-1.7853,-1.8185,-1.9135,-1.9233,-1.9442,-2.0063,-2.0118,-2.0118,-2.0118,-2.0118,-2.0118,-2.0118,-2.0118,-2.0118,-2.0118,-2.0118,-2.0118,-2.0118,-2.0118,-2.0118,-2.0118,-2.0118,-2.0118,0.0,-3.2301,0.0,-3.2318,-3.2569,-3.2905,-3.3232,-3.3078,-3.3029,-3.368,-3.355,-3.3462,-3.3863,-3.4257,-3.3926,-3.2098,-3.118,-3.0116,-2.8413,-2.752,-2.7354,-2.8183,-2.8295,-2.8659,-2.9492,-2.9539,-2.9204,-2.8465,-2.8222,-2.8135,-2.8202,-2.8108,-2.8376,-2.9078,-2.9097,-2.9104,-2.9093,-2.9104,-2.9034,-2.8893,-2.8552,-2.8308,-2.8174,-2.7832,-2.7569,-2.7326,-2.6826,-2.6589,-2.6571,-2.6292,-2.5952,-2.5605,-2.5605,-2.5339,-2.4926,-2.462,-2.4477,-2.4338,-2.3638,-2.3384,-2.3334,-2.3,-2.2888,-2.2888,-2.2888,-2.2888,-2.2797,-2.2324,-2.2208,-2.2091,-2.1544,-2.1399,-2.1399,-2.1399,-2.1399,-2.1288,-2.0883,-2.0498,-2.0296,-2.0684,-2.0131,-1.9708,-2.008,-1.9512,-1.8907,-1.8614,-1.8302,-1.8014,-1.7745,-1.7479,-1.7711,-1.8632,-1.8731,-1.9113,-2.0031,-2.0118,-2.0118,-2.0118,-2.0118,-2.0118,-2.0118,-2.0118,-2.0118,-2.0118,-2.0118,-2.0118,-2.0118,-2.0118,-2.0118,-2.0118,-2.0118,-2.0118,-3.1324,0.0,0.0,-3.1133,-3.1531,-3.1936,-3.2512,-3.2732,-3.2874,-3.3105,-3.306,-3.3014,-3.3166,-3.3711,-3.3395,-3.1231,-3.065,-2.9499,-2.6698,-2.6604,-2.6727,-2.6436,-2.697,-2.7512,-2.7858,-2.7269,-2.6996,-2.7295,-2.6794,-2.672,-2.722,-2.7391,-2.783,-2.8633,-2.8642,-2.8913,-2.9482,-2.9141,-2.9052,-2.9206,-2.8583,-2.8286,-2.8308,-2.7901,-2.7657,-2.7567,-2.7246,-2.7023,-2.6842,-2.6657,-2.6296,-2.585,-2.5758,-2.5419,-2.4985,-2.4882,-2.4666,-2.4457,-2.4198,-2.3967,-2.3717,-2.3334,-2.3224,-2.3172,-2.2978,-2.2797,-2.2638,-2.2301,-2.2091,-2.1864,-2.1496,-2.1399,-2.1399,-2.1399,-2.1399,-2.1361,-2.1215,-2.1068,-2.0945,-2.0833,-2.0572,-2.0334,-2.0233,-1.9746,-1.9303,-1.9028,-1.8869,-1.8548,-1.7783,-1.7843,-1.8019,-1.8232,-1.8512,-1.896,-1.9595,-1.9933,-2.0118,-2.0118,-2.0118,-2.0118,-2.0118,-2.0118,-2.0118,-2.0118,-2.0118,-2.0118,-2.0118,-2.0118,-2.0118,-2.0118,-2.0118,-2.0118,-3.0421,-2.9903,-2.9696,-3.0489,-3.0664,-3.0921,-3.2038,-3.2192,-3.2218,-3.2693,-3.2699,-3.2668,-3.2779,-3.2994,-3.257,-3.0771,-3.0338,-2.9248,-2.6315,-2.6278,-2.6437,-2.6159,-2.6665,-2.7009,-2.6972,-2.6395,-2.6146,-2.6383,-2.6066,-2.613,-2.6726,-2.6972,-2.7491,-2.8369,-2.8679,-2.911,-2.9683,-2.9359,-2.9246,-2.9402,-2.8785,-2.8464,-2.8394,-2.801,-2.7786,-2.7701,-2.7569,-2.7355,-2.7119,-2.694,-2.659,-2.6157,-2.5943,-2.5591,-2.515,-2.5045,-2.4862,-2.4661,-2.4539,-2.4338,-2.4109,-2.3717,-2.3508,-2.3377,-2.3127,-2.2851,-2.2532,-2.2278,-2.202,-2.1722,-2.1471,-2.1399,-2.1399,-2.1399,-2.1399,-2.1399,-2.1399,-2.1399,-2.1326,-2.1055,-2.0894,-2.0734,-2.0447,-1.9965,-1.9539,-1.937,-1.9265,-1.8869,-1.7947,-1.8104,-1.8276,-1.8269,-1.839,-1.8745,-1.9371,-1.9557,-1.9693,-1.9867,-1.9867,-1.9943,-2.0107,-2.0118,-2.0118,-2.0118,-2.0118,-2.0118,-2.0118,-2.0118,-2.0118,-2.0118,-2.0118,-2.0118,0.0,0.0,0.0,-3.0437,-3.0041,-2.9937,-3.1812,-3.1411,-3.1063,-3.2456,-3.2485,-3.2351,-3.2681,-3.2152,-3.1431,-3.0671,-3.0202,-2.9263,-2.7327,-2.6452,-2.6387,-2.7417,-2.7374,-2.7164,-2.6905,-2.7108,-2.6859,-2.5912,-2.6174,-2.6541,-2.6905,-2.6934,-2.7392,-2.8369,-2.9251,-2.9701,-2.9701,-2.9683,-2.9607,-2.9402,-2.918,-2.8842,-2.8407,-2.8192,-2.795,-2.7701,-2.7716,-2.7615,-2.7388,-2.7119,-2.6824,-2.6488,-2.6157,-2.5815,-2.5465,-2.5146,-2.5005,-2.4946,-2.4641,-2.4518,-2.4457,-2.413,-2.3739,-2.3428,-2.3428,-2.3046,-2.2555,-2.2301,-2.2006,-2.1722,-2.1471,-2.1399,-2.1399,-2.1399,-2.1399,-2.1399,-2.1399,-2.1399,-2.1399,-2.1399,-2.108,-2.0833,-2.0833,-2.0156,-1.9642,-1.9642,-1.9422,-1.8975,-1.8247,-1.8255,-1.8456,-1.8782,-1.8342,-1.8437,-1.9415,-1.9007,-1.8914,-1.9364,-1.9366,-1.9573,-2.0053,-2.0085,-2.0096,-2.0096,-2.0107,-2.0107,-2.0096,-2.0107,-2.0107,-2.0096,-2.0085,-2.0085,-2.9075,0.0,0.0,0.0,0.0,0.0,-3.0023,-3.0041,-3.011,-3.1081,-3.1202,-3.1167,-3.1255,-3.1301,-3.0819,-2.9262,-2.8787,-2.7982,-2.6136,-2.587,-2.5916,-2.605,-2.6254,-2.6333,-2.6254,-2.6231,-2.6313,-2.658,-2.6372,-2.6559,-2.7232,-2.773,-2.8119,-2.839,-2.9251,-2.9701,-2.9701,-2.955,-2.9511,-2.9531,-2.9093,-2.8748,-2.8529,-2.844,-2.8143,-2.7698,-2.7911,-2.784,-2.7615,-2.7478,-2.718,-2.679,-2.6624,-2.6141,-2.5484,-2.5406,-2.5208,-2.4985,-2.4886,-2.4866,-2.4822,-2.4477,-2.4297,-2.4135,-2.3903,-2.3436,-2.2904,-2.264,-2.218,-2.1722,-2.1471,-2.1399,-2.1399,-2.1399,-2.1399,-2.1399,-2.1399,-2.1399,-2.1399,-2.1399,-2.1313,-2.124,-2.124,-2.0809,-2.0472,-2.0472,-2.0396,-2.0067,-1.9291,-1.9475,-1.9486,-1.8991,-1.9116,-1.9174,-1.9,-1.9179,-1.9153,-1.8914,-1.8884,-1.8949,-1.9091,-1.9398,-1.9584,-1.9584,-1.9933,-1.9943,-1.9595,-1.9943,-1.9933,-1.9584,-1.9255,-1.9277,-2.8816,-2.8178,-2.8006,-2.8316,0.0,0.0,-2.9265,-2.9265,-2.9265,-3.0041,-3.0196,-3.0196,-3.0196,-3.0109,-2.9672,-2.8574,-2.8043,-2.74,-2.6333,-2.6335,-2.646,-2.6474,-2.657,-2.6587,-2.6476,-2.6507,-2.6819,-2.7472,-2.7189,-2.7158,-2.7556,-2.8074,-2.838,-2.8442,-2.9242,-2.9683,-2.9747,-2.9569,-2.9511,-2.955,-2.9209,-2.8941,-2.8766,-2.8718,-2.8407,-2.7869,-2.8034,-2.7954,-2.7701,-2.7615,-2.7415,-2.7132,-2.689,-2.6471,-2.598,-2.5817,-2.5519,-2.5208,-2.5208,-2.5127,-2.4982,-2.4766,-2.462,-2.4457,-2.4271,-2.3689,-2.3038,-2.2777,-2.218,-2.1616,-2.1447,-2.1399,-2.1399,-2.1399,-2.1399,-2.1399,-2.1399,-2.1399,-2.1399,-2.1399,-2.1399,-2.1399,-2.1399,-2.1068,-2.0795,-2.0795,-2.0795,-2.0535,-1.9785,-1.9991,-2.0016,-1.9462,-1.94,-1.9365,-1.9217,-1.9041,-1.8879,-1.8744,-1.8541,-1.849,-1.8676,-1.896,-1.9113,-1.9113,-1.9397,-1.9366,-1.9113,-1.9573,-1.9562,-1.9102,-1.8818,-1.8949,-2.9075,-2.8178,-2.7782,-2.8282,-2.7971,0.0,-2.8989,-2.8816,-2.8592,-2.9248,-2.9386,-2.9386,-2.9386,-2.8834,-2.8368,-2.8282,-2.773,-2.7299,-2.7299,-2.7362,-2.7467,-2.7733,-2.7585,-2.7394,-2.7152,-2.7483,-2.7862,-2.8273,-2.8197,-2.807,-2.793,-2.8243,-2.8484,-2.863,-2.9279,-2.9673,-2.9799,-2.9673,-2.9569,-2.9482,-2.9433,-2.927,-2.9004,-2.9019,-2.8719,-2.8139,-2.8139,-2.7978,-2.773,-2.763,-2.7557,-2.7465,-2.7021,-2.6808,-2.6657,-2.6298,-2.589,-2.5503,-2.5503,-2.5269,-2.5005,-2.5005,-2.4786,-2.4559,-2.4559,-2.3946,-2.3194,-2.2785,-2.2063,-2.1399,-2.1399,-2.1399,-2.1399,-2.1399,-2.1399,-2.1399,-2.1399,-2.1399,-2.1399,-2.1399,-2.1399,-2.1399,-2.1399,-2.1104,-2.0883,-2.0883,-2.0883,-2.066,-2.0029,-2.0169,-2.027,-2.0131,-1.9578,-1.9382,-1.9773,-1.8871,-1.8398,-1.8691,-1.8264,-1.8156,-1.8512,-1.8589,-1.8611,-1.8611,-1.8611,-1.8611,-1.8611,-1.9047,-1.9037,-1.8611,-1.8556,-1.8818,-3.0662,-3.0144,-2.9765,-2.8661,-2.8747,0.0,-2.7937,-2.8075,-2.8437,-2.8575,-2.861,-2.861,-2.861,-2.8506,-2.8213,-2.7609,-2.7385,-2.7299,-2.7299,-2.7315,-2.7329,-2.7392,-2.7407,-2.74,-2.7347,-2.7979,-2.8202,-2.7709,-2.8088,-2.848,-2.8753,-2.9037,-2.9279,-2.9454,-2.967,-2.9773,-2.9808,-2.9773,-2.9655,-2.9423,-2.9412,-2.9249,-2.9014,-2.9222,-2.8978,-2.8428,-2.8428,-2.8232,-2.7929,-2.7644,-2.7511,-2.7481,-2.7343,-2.7038,-2.6691,-2.6607,-2.6123,-2.5503,-2.5503,-2.5269,-2.5005,-2.5005,-2.4946,-2.4886,-2.4886,-2.4584,-2.4009,-2.2987,-2.2063,-2.1399,-2.1399,-2.1399,-2.1399,-2.1399,-2.1399,-2.1399,-2.1399,-2.1399,-2.1399,-2.1399,-2.1399,-2.1399,-2.1399,-2.1337,-2.1288,-2.1288,-2.1288,-2.1191,-2.0959,-2.097,-2.0934,-2.0737,-2.06,-2.0334,-1.9824,-1.9592,-1.9131,-1.8285,-1.8144,-1.7924,-1.758,-1.7933,-1.8141,-1.8141,-1.8141,-1.8141,-1.8141,-1.8239,-1.8239,-1.813,-1.7737,-1.8039,-3.1214,-3.0714,-3.0317,-2.8782,-2.8678,0.0,0.0,-2.7592,-2.7851,-2.7851,-2.7851,-2.7851,-2.7851,-2.7851,-2.7664,-2.7091,-2.717,-2.7153,-2.6775,-2.7056,-2.7299,-2.7299,-2.7153,-2.7274,-2.7831,-2.811,-2.8195,-2.8055,-2.8977,-2.9303,-2.8743,-2.916,-2.9522,-2.9786,-2.9761,-2.9813,-2.9942,-2.9924,-2.9771,-2.9503,-2.9503,-2.9384,-2.92,-2.9336,-2.916,-2.8749,-2.8749,-2.8458,-2.7982,-2.7771,-2.76,-2.7436,-2.7376,-2.7218,-2.699,-2.699,-2.6624,-2.6068,-2.5872,-2.5556,-2.5227,-2.5048,-2.5005,-2.5005,-2.5005,-2.463,-2.3994,-2.2987,-2.2273,-2.1722,-2.1471,-2.1399,-2.1399,-2.1399,-2.1399,-2.1399,-2.1399,-2.1399,-2.1399,-2.1399,-2.1399,-2.1399,-2.1399,-2.1399,-2.1399,-2.1399,-2.1399,-2.1375,-2.1302,-2.118,-2.1071,-2.0974,-2.085,-2.0637,-2.0283,-1.9965,-1.9436,-1.859,-1.8267,-1.787,-1.7334,-1.7536,-1.7639,-1.7639,-1.7639,-1.7639,-1.7639,-1.7639,-1.7639,-1.7639,-1.7415,-1.7809,-3.161,-3.0903,-3.0351,-2.8954,-2.861,-2.8385,0.0,0.0,0.0,-2.7333,-2.7234,-2.7169,-2.7169,-2.7169,-2.7039,-2.6657,-2.6891,-2.6908,-2.621,-2.6641,-2.7023,-2.7055,-2.6925,-2.7146,-2.7994,-2.7912,-2.8065,-2.8737,-2.9639,-2.9691,-2.867,-2.9046,-2.9464,-2.9869,-2.9786,-2.9851,-3.0109,-3.0053,-2.9905,-2.9662,-2.9626,-2.9541,-2.944,-2.9399,-2.9283,-2.9071,-2.9014,-2.867,-2.8116,-2.795,-2.773,-2.7454,-2.7329,-2.7299,-2.7299,-2.7299,-2.7056,-2.6641,-2.6245,-2.5835,-2.5446,-2.5107,-2.5005,-2.5005,-2.5005,-2.4513,-2.3773,-2.2995,-2.2526,-2.21,-2.153,-2.1399,-2.1399,-2.1399,-2.1399,-2.1399,-2.1399,-2.1399,-2.1399,-2.1399,-2.1399,-2.1399,-2.1399,-2.1399,-2.1399,-2.1399,-2.1399,-2.1399,-2.1399,-2.118,-2.1033,-2.0997,-2.0823,-2.0737,-2.0699,-2.0258,-1.9734,-1.9198,-1.859,-1.8034,-1.749,-1.7351,-1.7306,-1.7306,-1.7306,-1.7362,-1.7462,-1.7362,-1.7306,-1.7306,-1.7306,-1.7809,-3.2714,-3.1696,-3.0507,-2.9592,-2.9386,-2.9006,-2.7609,0.0,-2.8092,-2.742,0.0,-2.6775,-2.6775,0.0,0.0,-2.6228,-2.6402,-2.6471,-2.6157,-2.6034,-2.6052,-2.6228,-2.6825,-2.7139,-2.6927,-2.7192,-2.7954,-2.9366,-2.8638,-2.8479,-2.9332,-2.904,-2.9164,-2.9792,-2.9842,-2.9939,-3.0109,-3.0095,-3.0015,-2.9861,-2.9689,-2.9589,-2.957,-2.9451,-2.9386,-2.9336,-2.9093,-2.8862,-2.8591,-2.8102,-2.7815,-2.7627,-2.739,-2.7299,-2.7299,-2.7299,-2.7056,-2.6641,-2.6245,-2.5835,-2.5446,-2.5107,-2.5005,-2.5005,-2.5005,-2.4569,-2.3958,-2.3326,-2.2725,-2.2142,-2.1554,-2.1399,-2.1399,-2.1399,-2.1399,-2.1399,-2.1399,-2.1399,-2.1399,-2.1399,-2.1399,-2.1399,-2.1399,-2.1399,-2.1399,-2.1399,-2.1399,-2.1399,-2.1399,-2.1277,-2.1131,-2.1021,-2.0924,-2.0838,-2.0699,-2.0624,-2.0334,-1.9759,-1.9212,-1.8629,-1.8011,-1.7562,-1.7306,-1.7306,-1.7306,-1.7534,-1.8023,-1.7534,-1.7306,-1.7306,-1.7306,-1.7809,-3.2507,-3.18,-3.1041,-2.9817,-2.9179,-2.8592,-2.754,-2.754,-2.7661,-2.7351,0.0,0.0,0.0,0.0,0.0,0.0,-2.591,-2.5892,-2.5294,-2.5559,-2.5855,-2.6015,-2.6122,-2.6411,-2.6935,-2.7582,-2.8218,-2.8868,-2.8822,-2.8765,-2.8748,-2.9194,-2.951,-2.9626,-2.9652,-2.9765,-2.9977,-2.9977,-2.9891,-2.9715,-2.9644,-2.9561,-2.9491,-2.9419,-2.9396,-2.9396,-2.9283,-2.9041,-2.8676,-2.8285,-2.795,-2.7672,-2.7405,-2.7299,-2.7299,-2.7299,-2.7202,-2.699,-2.659,-2.6176,-2.5744,-2.5185,-2.5005,-2.5005,-2.5005,-2.4766,-2.4405,-2.3858,-2.3238,-2.2589,-2.2049,-2.166,-2.1399,-2.1399,-2.1399,-2.1399,-2.1399,-2.1399,-2.1399,-2.1399,-2.1399,-2.1399,-2.1399,-2.1399,-2.1399,-2.1399,-2.1399,-2.1399,-2.1399,-2.1277,-2.118,-2.1106,-2.0999,-2.0888,-2.0825,-2.0737,-2.0435,-1.9824,-1.9291,-1.8881,-1.8617,-1.8398,-1.8302,-1.8302,-1.8302,-1.8398,-1.8629,-1.8034,-1.776,-1.776,-1.7423,-1.7678,-3.1731,-3.1334,-3.0903,-2.9782,-2.8954,-2.8213,-2.7471,-2.7299,-2.725,-2.7104,-2.6691,0.0,0.0,0.0,-2.554,-2.5214,0.0,-2.537,-2.4695,-2.5059,-2.5446,-2.5594,-2.5481,-2.5788,-2.678,-2.7419,-2.7996,-2.8511,-2.8853,-2.9012,-2.9005,-2.9683,-3.0058,-3.001,-3.013,-3.0199,-3.0235,-3.0235,-3.0036,-2.9689,-2.9635,-2.9551,-2.9451,-2.9427,-2.9396,-2.9396,-2.9396,-2.9181,-2.8802,-2.8453,-2.8116,-2.7771,-2.7436,-2.7299,-2.7299,-2.7299,-2.7299,-2.7234,-2.6842,-2.635,-2.5817,-2.5188,-2.5005,-2.5005,-2.5005,-2.4926,-2.4746,-2.4245,-2.3687,-2.3091,-2.2475,-2.1969,-2.1592,-2.1423,-2.1399,-2.1399,-2.1399,-2.1399,-2.1399,-2.1399,-2.1399,-2.1399,-2.1399,-2.1399,-2.1399,-2.1399,-2.1399,-2.1399,-2.1399,-2.1277,-2.1204,-2.1204,-2.1035,-2.0938,-2.0938,-2.0837,-2.0511,-1.9901,-1.9448,-1.9146,-1.9013,-1.8987,-1.8987,-1.8987,-1.8987,-1.8987,-1.8987,-1.8402,-1.8093,-1.8093,-1.7562,-1.754,-3.0524,-3.0162,-2.9558,-2.9523,-2.8954,-2.8213,-2.7471,-2.7299,-2.7153,-2.664,-2.6246,-2.5852,-2.5329,-2.5214,-2.5095,-2.4675,-2.491,0.0,0.0,-2.4446,-2.4426,-2.463,-2.5095,-2.5572,-2.601,-2.6118,-2.6949,-2.8843,-2.8284,-2.8785,-3.0882,-3.0726,-3.0812,-3.1316,-3.1711,-3.1636,-3.1071,-3.1052,-3.0673,-2.9886,-2.968,-2.9598,-2.9589,-2.9451,-2.9396,-2.9396,-2.9396,-2.9315,-2.9145,-2.8547,-2.8219,-2.8034,-2.7511,-2.7299,-2.7299,-2.7299,-2.7299,-2.7234,-2.6842,-2.6192,-2.5465,-2.5107,-2.5005,-2.5005,-2.5005,-2.5005,-2.4866,-2.4266,-2.4,-2.3629,-2.2566,-2.2249,-2.2044,-2.152,-2.1399,-2.1399,-2.1399,-2.1399,-2.1399,-2.1399,-2.1399,-2.1399,-2.1399,-2.1399,-2.1399,-2.1399,-2.1399,-2.1399,-2.1399,-2.1277,-2.1204,-2.1204,-2.1082,-2.0997,-2.0997,-2.0997,-2.0711,-2.0042,-1.985,-1.9552,-1.9013,-1.8987,-1.8987,-1.8987,-1.8987,-1.8987,-1.8987,-1.8402,-1.8093,-1.8093,-1.7562,-1.754,0.0,0.0,-2.8885,-2.9386,-2.8575,-2.773,-2.7971,-2.7594,-2.7038,-2.659,-2.6139,-2.5684,-2.5272,-2.4879,-2.4589,-2.4544,-2.4549,-2.4528,0.0,-2.4343,-2.4338,-2.4385,-2.463,-2.4974,-2.5424,-2.5326,-2.5921,-2.7551,-2.8,-2.8704,-2.9851,-3.0565,-3.099,-3.1138,-3.1298,-3.1429,-3.1499,-3.1009,-3.0636,-3.0355,-2.9744,-2.9471,-2.9461,-2.9419,-2.9396,-2.9396,-2.9355,-2.9283,-2.9156,-2.8496,-2.8183,-2.8047,-2.7511,-2.7299,-2.7299,-2.7299,-2.7299,-2.7234,-2.6842,-2.6367,-2.5835,-2.5443,-2.5188,-2.5005,-2.5005,-2.5005,-2.4946,-2.4645,-2.4245,-2.3815,-2.3384,-2.2754,-2.2161,-2.1973,-2.1664,-2.1399,-2.1399,-2.1399,-2.1399,-2.1399,-2.1399,-2.1399,-2.1399,-2.1399,-2.1399,-2.1399,-2.1399,-2.1399,-2.1399,-2.135,-2.1326,-2.1326,-2.1204,-2.1131,-2.1131,-2.101,-2.0787,-2.0485,-2.041,-2.0309,-2.0131,-2.0131,-2.0131,-2.0131,-2.0131,-1.9926,-1.9526,-1.8975,-1.8483,-1.8093,-1.7562,-1.7394,-2.9041,-2.8765,0.0,-2.8989,-2.8385,-2.7747,-2.7954,-2.7463,-2.6841,-2.6402,-2.5906,-2.5403,-2.5056,-2.4614,-2.4338,-2.4477,-2.438,-2.4302,0.0,-2.4302,-2.4302,-2.4302,-2.4421,-2.4625,-2.4914,-2.4811,-2.5298,-2.6716,-2.7626,-2.8543,-2.9518,-3.0664,-3.1396,-3.1664,-3.1828,-3.1973,-3.21,-3.1355,-3.085,-3.0553,-2.9758,-2.9396,-2.9396,-2.9396,-2.9396,-2.9396,-2.9334,-2.9262,-2.9156,-2.8489,-2.8156,-2.8047,-2.7511,-2.7299,-2.7299,-2.7299,-2.7299,-2.7234,-2.6842,-2.6436,-2.6034,-2.5633,-2.5269,-2.5005,-2.5005,-2.5005,-2.4966,-2.4842,-2.4487,-2.4105,-2.3846,-2.3246,-2.2595,-2.2278,-2.1949,-2.164,-2.1447,-2.1399,-2.1399,-2.1399,-2.1399,-2.1399,-2.1399,-2.1399,-2.1399,-2.1399,-2.1399,-2.1399,-2.1399,-2.1399,-2.1399,-2.1399,-2.1326,-2.1253,-2.1204,-2.1035,-2.0899,-2.0775,-2.0737,-2.0699,-2.0699,-2.0699,-2.0699,-2.0699,-2.0485,-2.0093,-1.9526,-1.8948,-1.8387,-1.7815,-1.7462,-1.7306]},{"header":{"parameterUnit":"m.s-1","parameterCategory":1,"la1":30.6,"la2":29.2853,"lo1":-89.7004,"lo2":-87.6739,"dy":0.0162,"dx":0.0183,"nx":112,"ny":82,"refTime":"2025-07-07T12:00:00:Z","depth":0,"parameterNumber":3,"parameterNumberName":"V-component_of_WINDS"},"data":[0.0,0.0,0.0,0.0,0.0,0.0,0.0,0.0,0.0,0.0,0.0,0.0,0.0,0.0,0.0,0.0,0.0,0.0,0.0,0.0,0.0,0.0,0.0,0.0,0.0,0.0,0.0,0.0,0.0,0.0,0.0,0.0,0.0,0.0,0.0,0.0,0.0,0.0,0.0,0.0,0.0,0.0,0.0,0.0,0.0,0.0,0.0,0.0,0.0,0.0,0.0,0.0,0.0,0.0,0.0,0.0,0.0,0.0,0.0,0.0,0.0,0.0,0.0,0.0,0.0,0.0,0.0,0.0,0.0,0.0,0.0,0.0,0.0,0.0,0.0,0.0,0.0,0.0,0.0,0.0,0.0,0.0,0.0,0.0,0.0,0.0,0.0,0.0,0.0,0.0,-2.1314,-2.2396,-2.0876,-1.9844,-1.9902,-2.0015,-2.0199,-2.0456,0.0,0.0,0.0,0.0,0.0,0.0,0.0,0.0,0.0,0.0,0.0,0.0,0.0,0.0,0.0,0.0,0.0,0.0,0.0,0.0,0.0,0.0,0.0,0.0,0.0,0.0,0.0,0.0,0.0,0.0,0.0,0.0,0.0,0.0,0.0,0.0,0.0,0.0,0.0,0.0,0.0,0.0,0.0,0.0,0.0,0.0,0.0,0.0,0.0,0.0,0.0,0.0,0.0,0.0,0.0,0.0,0.0,0.0,0.0,0.0,0.0,0.0,0.0,0.0,0.0,0.0,0.0,0.0,0.0,0.0,0.0,0.0,0.0,0.0,0.0,0.0,0.0,0.0,0.0,0.0,0.0,0.0,0.0,0.0,0.0,0.0,0.0,0.0,0.0,0.0,0.0,0.0,0.0,0.0,0.0,0.0,0.0,0.0,0.0,0.0,0.0,0.0,0.0,0.0,-1.8969,-2.0247,-1.9777,-1.9531,-1.9883,-2.0528,-2.1021,-2.121,0.0,0.0,0.0,0.0,0.0,0.0,0.0,0.0,0.0,0.0,0.0,0.0,0.0,0.0,0.0,0.0,0.0,0.0,0.0,0.0,0.0,0.0,0.0,0.0,0.0,0.0,0.0,0.0,0.0,0.0,0.0,0.0,0.0,0.0,0.0,0.0,0.0,0.0,0.0,0.0,0.0,0.0,0.0,0.0,0.0,0.0,0.0,0.0,0.0,0.0,0.0,0.0,0.0,0.0,0.0,0.0,0.0,0.0,0.0,0.0,0.0,0.0,0.0,0.0,0.0,0.0,0.0,0.0,0.0,0.0,0.0,0.0,0.0,0.0,0.0,0.0,0.0,0.0,0.0,0.0,0.0,0.0,0.0,0.0,0.0,0.0,0.0,0.0,0.0,0.0,0.0,0.0,0.0,0.0,0.0,0.0,0.0,0.0,0.0,0.0,0.0,0.0,0.0,-1.9958,-1.9143,-1.9519,-1.9189,-1.9111,-1.9541,-2.0321,-2.094,-2.1363,-2.156,0.0,0.0,0.0,0.0,0.0,0.0,0.0,0.0,0.0,0.0,0.0,0.0,0.0,0.0,0.0,0.0,0.0,0.0,0.0,0.0,0.0,0.0,0.0,0.0,0.0,0.0,0.0,0.0,0.0,0.0,0.0,0.0,0.0,0.0,0.0,0.0,0.0,0.0,0.0,0.0,0.0,0.0,0.0,0.0,0.0,0.0,0.0,0.0,0.0,0.0,0.0,0.0,0.0,0.0,0.0,0.0,0.0,0.0,0.0,0.0,0.0,0.0,0.0,0.0,0.0,0.0,0.0,0.0,0.0,0.0,0.0,0.0,0.0,0.0,0.0,0.0,0.0,0.0,0.0,0.0,0.0,0.0,0.0,0.0,0.0,0.0,0.0,0.0,0.0,0.0,0.0,0.0,0.0,0.0,0.0,0.0,0.0,0.0,0.0,0.0,0.0,0.0,-2.0674,-2.0207,-1.9786,-1.9499,-1.9444,-1.9713,-2.0498,-2.1212,-2.1666,-2.2321,0.0,0.0,0.0,0.0,0.0,0.0,0.0,0.0,0.0,0.0,0.0,0.0,0.0,0.0,0.0,0.0,0.0,0.0,0.0,0.0,0.0,0.0,0.0,0.0,0.0,0.0,0.0,0.0,0.0,0.0,0.0,0.0,0.0,0.0,0.0,0.0,0.0,0.0,0.0,0.0,0.0,0.0,0.0,0.0,0.0,0.0,0.0,0.0,0.0,0.0,0.0,0.0,0.0,0.0,0.0,0.0,0.0,0.0,0.0,0.0,0.0,0.0,0.0,0.0,0.0,0.0,0.0,0.0,0.0,0.0,0.0,0.0,0.0,0.0,0.0,0.0,0.0,0.0,0.0,0.0,0.0,0.0,0.0,0.0,0.0,0.0,0.0,0.0,0.0,0.0,0.0,0.0,0.0,0.0,0.0,0.0,0.0,0.0,0.0,0.0,0.0,0.0,-2.133,-2.1815,-2.1057,-2.1296,-2.1352,-2.0979,-2.1943,-2.2537,-2.2503,-2.2789,0.0,0.0,0.0,0.0,0.0,0.0,0.0,0.0,0.0,0.0,0.0,0.0,0.0,0.0,0.0,0.0,0.0,0.0,0.0,0.0,0.0,0.0,0.0,0.0,0.0,0.0,0.0,0.0,0.0,0.0,0.0,0.0,0.0,0.0,0.0,0.0,0.0,0.0,0.0,0.0,0.0,0.0,0.0,0.0,0.0,0.0,0.0,0.0,0.0,0.0,0.0,0.0,0.0,0.0,0.0,0.0,0.0,0.0,0.0,0.0,0.0,0.0,0.0,0.0,0.0,0.0,0.0,0.0,0.0,0.0,0.0,0.0,0.0,0.0,0.0,0.0,0.0,0.0,0.0,0.0,0.0,0.0,0.0,0.0,0.0,0.0,0.0,0.0,0.0,0.0,0.0,0.0,0.0,0.0,0.0,0.0,0.0,0.0,0.0,0.0,0.0,0.0,-2.1163,-2.1559,-2.1837,-2.1775,-2.1747,-2.1822,-2.2665,-2.2937,-2.2269,0.0,0.0,0.0,0.0,0.0,0.0,0.0,0.0,0.0,0.0,0.0,0.0,0.0,0.0,0.0,0.0,0.0,0.0,0.0,0.0,0.0,0.0,0.0,0.0,0.0,0.0,0.0,0.0,0.0,0.0,0.0,0.0,0.0,0.0,0.0,0.0,0.0,0.0,0.0,0.0,0.0,0.0,0.0,0.0,0.0,0.0,0.0,0.0,0.0,0.0,0.0,0.0,0.0,0.0,0.0,0.0,0.0,0.0,0.0,0.0,0.0,0.0,0.0,0.0,0.0,0.0,0.0,0.0,0.0,0.0,0.0,0.0,0.0,0.0,0.0,0.0,0.0,0.0,0.0,0.0,0.0,0.0,0.0,0.0,0.0,0.0,0.0,0.0,0.0,0.0,0.0,0.0,0.0,0.0,0.0,0.0,0.0,0.0,0.0,0.0,0.0,0.0,-2.1423,-2.1963,-2.2501,-2.2847,-2.2848,-2.285,-2.2855,-2.3501,-2.3474,-2.2441,0.0,0.0,0.0,0.0,0.0,0.0,0.0,0.0,0.0,0.0,0.0,0.0,0.0,0.0,0.0,0.0,0.0,0.0,0.0,0.0,0.0,0.0,0.0,0.0,0.0,0.0,0.0,0.0,0.0,0.0,0.0,0.0,0.0,0.0,0.0,0.0,0.0,0.0,0.0,0.0,0.0,0.0,0.0,0.0,0.0,0.0,0.0,0.0,0.0,0.0,0.0,0.0,0.0,0.0,0.0,0.0,0.0,0.0,0.0,0.0,0.0,0.0,0.0,0.0,0.0,0.0,0.0,0.0,0.0,0.0,0.0,0.0,0.0,0.0,0.0,0.0,0.0,0.0,0.0,0.0,0.0,0.0,0.0,0.0,0.0,0.0,0.0,0.0,0.0,0.0,0.0,0.0,0.0,0.0,0.0,0.0,0.0,0.0,0.0,0.0,0.0,0.0,-2.2258,-2.4013,-2.5004,-2.4181,-2.4814,-2.4957,-2.4169,-2.4517,-2.4341,0.0,0.0,0.0,0.0,0.0,0.0,0.0,0.0,0.0,0.0,0.0,0.0,0.0,0.0,0.0,0.0,0.0,0.0,0.0,0.0,0.0,0.0,0.0,0.0,0.0,0.0,0.0,0.0,0.0,0.0,0.0,0.0,0.0,0.0,0.0,0.0,0.0,0.0,0.0,0.0,0.0,0.0,0.0,0.0,0.0,0.0,0.0,0.0,0.0,0.0,0.0,0.0,0.0,0.0,0.0,0.0,0.0,0.0,0.0,0.0,0.0,0.0,0.0,0.0,0.0,0.0,0.0,0.0,0.0,0.0,0.0,0.0,0.0,0.0,0.0,0.0,0.0,0.0,0.0,0.0,0.0,0.0,0.0,0.0,0.0,0.0,0.0,0.0,0.0,0.0,0.0,0.0,0.0,0.0,0.0,0.0,0.0,0.0,0.0,0.0,0.0,0.0,0.0,-2.2258,-2.4126,-2.5285,-2.4644,-2.4931,-2.4888,-2.4239,-2.4317,-2.3806,-2.2425,0.0,0.0,0.0,0.0,0.0,0.0,0.0,0.0,0.0,0.0,0.0,0.0,0.0,0.0,0.0,0.0,0.0,0.0,0.0,0.0,0.0,0.0,0.0,0.0,0.0,0.0,0.0,0.0,0.0,0.0,0.0,0.0,0.0,0.0,0.0,0.0,0.0,0.0,0.0,0.0,0.0,0.0,0.0,0.0,0.0,0.0,0.0,0.0,0.0,0.0,0.0,0.0,0.0,0.0,0.0,0.0,0.0,0.0,0.0,0.0,0.0,0.0,0.0,0.0,0.0,0.0,0.0,0.0,0.0,0.0,0.0,0.0,0.0,0.0,0.0,0.0,0.0,0.0,0.0,0.0,0.0,0.0,0.0,0.0,0.0,0.0,0.0,0.0,0.0,0.0,0.0,0.0,0.0,0.0,0.0,0.0,0.0,0.0,0.0,0.0,0.0,0.0,-2.2419,-2.4143,-2.5284,-2.4954,-2.4789,-2.4599,-2.4222,-2.4263,-2.3871,-2.2787,0.0,0.0,0.0,0.0,0.0,0.0,0.0,0.0,0.0,0.0,0.0,0.0,0.0,0.0,0.0,0.0,0.0,0.0,0.0,0.0,0.0,0.0,0.0,0.0,0.0,0.0,0.0,0.0,0.0,0.0,0.0,0.0,0.0,0.0,0.0,0.0,0.0,0.0,0.0,0.0,0.0,0.0,0.0,0.0,0.0,0.0,0.0,0.0,0.0,0.0,0.0,0.0,0.0,0.0,0.0,0.0,0.0,0.0,0.0,0.0,0.0,0.0,0.0,0.0,0.0,0.0,0.0,0.0,0.0,0.0,0.0,0.0,0.0,0.0,0.0,0.0,0.0,0.0,0.0,0.0,0.0,0.0,0.0,0.0,0.0,0.0,0.0,0.0,0.0,0.0,0.0,0.0,0.0,0.0,0.0,0.0,0.0,0.0,0.0,0.0,0.0,0.0,-2.2678,-2.4087,-2.5025,-2.5025,-2.4521,-2.4197,-2.4201,-2.4375,-2.4293,-2.3846,0.0,0.0,0.0,0.0,0.0,0.0,0.0,0.0,0.0,0.0,0.0,0.0,0.0,0.0,0.0,0.0,0.0,0.0,0.0,0.0,0.0,0.0,0.0,0.0,0.0,0.0,0.0,0.0,0.0,0.0,0.0,0.0,0.0,0.0,0.0,0.0,0.0,0.0,0.0,0.0,0.0,0.0,0.0,0.0,0.0,0.0,0.0,0.0,0.0,0.0,0.0,0.0,0.0,0.0,0.0,0.0,0.0,0.0,0.0,0.0,-2.0607,-2.0178,0.0,0.0,0.0,0.0,0.0,0.0,0.0,0.0,0.0,0.0,0.0,0.0,0.0,0.0,0.0,0.0,0.0,0.0,0.0,0.0,0.0,0.0,0.0,0.0,0.0,0.0,0.0,0.0,0.0,0.0,0.0,0.0,0.0,0.0,0.0,0.0,0.0,0.0,0.0,0.0,-2.2628,-2.3818,-2.4624,-2.4624,-2.427,-2.406,-2.4107,-2.4171,-2.4154,-2.4051,-2.46,0.0,0.0,0.0,0.0,0.0,0.0,0.0,0.0,0.0,0.0,0.0,0.0,0.0,0.0,0.0,0.0,0.0,0.0,0.0,0.0,0.0,0.0,0.0,0.0,0.0,0.0,0.0,0.0,0.0,0.0,0.0,0.0,0.0,0.0,0.0,0.0,0.0,0.0,0.0,0.0,0.0,0.0,0.0,0.0,0.0,0.0,0.0,0.0,0.0,0.0,0.0,0.0,0.0,0.0,0.0,0.0,0.0,0.0,0.0,-2.1638,-2.149,0.0,0.0,0.0,0.0,0.0,0.0,0.0,0.0,0.0,0.0,0.0,0.0,0.0,0.0,0.0,0.0,0.0,0.0,0.0,0.0,0.0,0.0,0.0,0.0,0.0,0.0,0.0,0.0,0.0,0.0,0.0,0.0,0.0,0.0,0.0,0.0,0.0,0.0,0.0,0.0,-2.4024,-2.4741,-2.5242,-2.5545,-2.4923,-2.4505,-2.4536,-2.4538,-2.4673,-2.4942,-2.5227,0.0,0.0,0.0,0.0,0.0,0.0,0.0,0.0,0.0,0.0,0.0,0.0,0.0,0.0,0.0,0.0,0.0,0.0,0.0,0.0,0.0,0.0,0.0,0.0,0.0,0.0,0.0,0.0,0.0,0.0,0.0,0.0,0.0,0.0,0.0,0.0,0.0,0.0,0.0,0.0,0.0,0.0,0.0,0.0,0.0,0.0,0.0,0.0,0.0,0.0,0.0,0.0,0.0,-2.1311,-2.1563,-2.2481,-2.1532,-2.1845,-2.3075,-2.2494,-2.281,-2.3764,-2.3466,0.0,0.0,0.0,0.0,0.0,0.0,0.0,0.0,0.0,0.0,0.0,0.0,0.0,0.0,0.0,0.0,0.0,0.0,0.0,0.0,0.0,0.0,-2.9212,-2.7717,-2.8133,-2.8193,-2.5757,0.0,0.0,0.0,0.0,0.0,0.0,0.0,0.0,0.0,0.0,0.0,-2.5616,-2.5831,-2.6034,-2.663,-2.5699,-2.5035,-2.5161,-2.5161,-2.5425,-2.6029,-2.5957,-2.5873,0.0,0.0,0.0,0.0,0.0,0.0,0.0,0.0,0.0,0.0,0.0,0.0,0.0,0.0,0.0,0.0,0.0,0.0,0.0,0.0,0.0,0.0,0.0,0.0,0.0,0.0,0.0,0.0,0.0,0.0,0.0,0.0,-1.6273,-1.6304,0.0,0.0,0.0,0.0,0.0,0.0,0.0,0.0,0.0,0.0,0.0,0.0,0.0,-1.9622,-2.1014,-2.1278,-2.18,-2.2565,-2.2723,-2.2828,-2.2939,-2.3117,-2.3305,-2.3519,-2.3776,0.0,-2.4169,-2.4522,0.0,0.0,0.0,0.0,0.0,0.0,0.0,0.0,0.0,0.0,0.0,0.0,0.0,0.0,0.0,0.0,0.0,0.0,0.0,0.0,0.0,0.0,-2.9656,-2.9923,-2.9736,-2.938,-2.8996,-2.685,-2.4998,-2.4957,-2.4105,-2.3544,0.0,0.0,0.0,0.0,0.0,0.0,-2.5781,-2.5887,-2.6106,-2.663,-2.5699,-2.5217,-2.5757,-2.5784,-2.6029,-2.6647,-2.6139,-2.5803,-2.5792,-2.5803,0.0,0.0,0.0,0.0,0.0,0.0,0.0,0.0,0.0,0.0,0.0,0.0,0.0,0.0,0.0,0.0,0.0,0.0,0.0,0.0,0.0,0.0,0.0,0.0,0.0,0.0,0.0,0.0,0.0,-1.593,-1.6268,-1.6107,-1.6261,-1.6199,0.0,0.0,0.0,0.0,0.0,0.0,0.0,0.0,0.0,-1.9096,-2.0029,-2.1045,-2.2081,-2.2361,-2.2766,-2.3325,-2.3207,-2.351,-2.4094,-2.3791,-2.3895,-2.432,-2.4242,-2.42,-2.4212,-2.443,-2.4384,-2.42,0.0,0.0,0.0,0.0,-2.5052,-2.53,-2.638,-2.7027,-2.7426,-2.7647,0.0,0.0,0.0,0.0,0.0,0.0,0.0,-3.0161,-3.0413,-3.0287,-3.0076,-3.0024,-2.9799,-2.9602,-2.9602,-2.8543,-2.7503,-2.709,-2.6687,-2.6233,-2.5638,-2.4888,0.0,0.0,0.0,-2.5999,-2.7266,-2.7128,-2.7145,-2.7752,-2.675,-2.6123,-2.6394,-2.642,-2.6527,-2.6779,-2.653,-2.6344,-2.6344,-2.6006,-2.5716,0.0,0.0,0.0,0.0,0.0,0.0,0.0,0.0,0.0,0.0,0.0,0.0,0.0,0.0,0.0,0.0,0.0,0.0,0.0,0.0,0.0,0.0,0.0,0.0,0.0,0.0,0.0,0.0,-1.6071,-1.6342,-1.6114,-1.645,-1.6493,0.0,0.0,0.0,0.0,0.0,0.0,-1.7035,-1.8154,-1.928,-2.029,-2.1317,-2.2219,-2.3092,-2.3279,-2.3523,-2.3807,-2.3523,-2.3843,-2.4675,-2.4018,-2.4104,-2.4739,-2.437,-2.42,-2.42,-2.42,-2.42,-2.42,-2.437,-2.4394,-2.4503,-2.5194,-2.5441,-2.5604,-2.6858,-2.7497,-2.7848,-2.8184,-2.8174,-2.8044,-2.8044,0.0,0.0,0.0,0.0,-3.0259,-3.0259,-3.0259,-3.0147,-2.9715,-2.9602,-2.9602,-2.9602,-2.9634,-2.9481,-2.8935,-2.8811,-2.8512,-2.7496,-2.6764,0.0,-2.6794,-2.6904,-2.7329,-2.8475,-2.8225,-2.81,-2.8405,-2.7447,-2.6806,-2.6806,-2.6806,-2.6806,-2.6806,-2.6806,-2.6806,-2.6806,-2.644,-2.64,-2.6737,0.0,0.0,0.0,0.0,0.0,0.0,0.0,0.0,0.0,0.0,0.0,0.0,0.0,0.0,0.0,0.0,0.0,0.0,0.0,0.0,0.0,0.0,0.0,0.0,0.0,0.0,0.0,0.0,0.0,-1.6867,-1.7192,0.0,0.0,0.0,0.0,-1.6291,-1.7013,-1.79,-1.8915,-1.938,-2.0372,-2.2034,-2.2125,-2.2694,-2.3836,-2.3857,-2.3888,-2.3878,-2.3888,-2.3845,-2.3844,-2.3746,-2.3952,-2.4423,-2.426,-2.42,-2.42,-2.42,-2.42,-2.4261,-2.4778,-2.4945,-2.5075,-2.622,-2.6611,-2.6714,-2.7289,-2.7736,-2.8145,-2.8463,-2.8612,-2.8647,-2.8647,-2.8675,0.0,0.0,-2.9195,-2.9659,-2.9659,-2.9659,-2.9645,-2.9617,-2.9602,-2.9602,-2.9602,-2.9713,-2.9777,-2.9747,-2.9266,-2.916,-2.9974,0.0,-2.8519,-2.9289,-2.9421,-2.9227,-2.8741,-2.8666,-2.8405,-2.7811,-2.7186,-2.6806,-2.6806,-2.6806,-2.6806,-2.6806,-2.6806,-2.6806,-2.6806,-2.721,-2.7161,-2.6626,-2.764,0.0,0.0,0.0,0.0,0.0,0.0,0.0,0.0,0.0,0.0,0.0,0.0,0.0,0.0,0.0,0.0,0.0,0.0,0.0,0.0,0.0,0.0,0.0,0.0,0.0,0.0,0.0,0.0,-1.6893,-1.6763,0.0,-1.6359,-1.6426,-1.6758,-1.7367,-1.8105,-1.8896,-1.9747,-2.1042,-2.2016,-2.2623,-2.3333,-2.3873,-2.4259,-2.4312,-2.4312,-2.4312,-2.4312,-2.4588,-2.5144,-2.4777,-2.4831,-2.5214,-2.4803,-2.4487,-2.4236,-2.4563,-2.4503,-2.4261,-2.4802,-2.5004,-2.5146,-2.6289,-2.6679,-2.6782,-2.7323,-2.7769,-2.8177,-2.8748,-2.9087,-2.9279,-2.9279,-2.9279,-2.9279,-2.9279,-2.9434,-2.9602,-2.9602,-2.9602,-2.9602,-2.9602,-2.9602,-2.9602,-2.9602,-2.9713,-2.9853,-2.9974,-2.9897,-2.9902,-3.0238,-2.9674,-2.9258,-2.9566,-2.9261,-2.8944,-2.8739,-2.8318,-2.7956,-2.7724,-2.7157,-2.6806,-2.6806,-2.6806,-2.6806,-2.6806,-2.7089,-2.724,-2.724,-2.774,-2.8152,-2.84,-2.866,-2.8223,0.0,0.0,0.0,0.0,0.0,0.0,0.0,0.0,0.0,0.0,0.0,0.0,0.0,0.0,0.0,0.0,0.0,0.0,0.0,0.0,0.0,0.0,0.0,0.0,0.0,-1.7121,-1.6944,-1.7064,-1.6838,-1.6503,-1.6114,-1.6564,-1.7089,-1.7578,-1.8195,-1.9061,-2.0255,-2.1594,-2.2629,-2.3209,-2.4047,-2.4497,-2.4497,-2.4497,-2.4497,-2.4497,-2.4497,-2.4924,-2.5664,-2.5289,-2.5241,-2.5426,-2.4894,-2.4505,-2.4211,-2.4401,-2.4354,-2.4249,-2.5203,-2.5581,-2.5687,-2.6633,-2.6952,-2.7053,-2.7536,-2.7934,-2.8373,-2.8908,-2.932,-2.9602,-2.9602,-2.9602,-2.9602,-2.9602,-2.9602,-2.9602,-2.9602,-2.9602,-2.9602,-2.9602,-2.9602,-2.9602,-2.9651,-2.9806,-2.996,-3.0127,-3.0235,-3.0312,-3.0387,-3.013,-2.9943,-2.9943,-2.9406,-2.8927,-2.8738,-2.8115,-2.7623,-2.7405,-2.7041,-2.6806,-2.6806,-2.6806,-2.6884,-2.7037,-2.7327,-2.759,-2.775,-2.8264,-2.8808,-2.9283,-2.9113,-2.8991,-2.8984,0.0,0.0,0.0,0.0,0.0,0.0,0.0,0.0,0.0,0.0,0.0,0.0,0.0,0.0,0.0,0.0,0.0,0.0,0.0,0.0,0.0,0.0,0.0,-1.8395,-1.7598,-1.7144,-1.7462,-1.7497,-1.7032,-1.5837,-1.7063,-1.7698,-1.6998,-1.7266,-1.838,-2.0529,-2.1059,-2.2114,-2.3836,-2.4291,-2.4476,-2.4476,-2.4487,-2.4497,-2.4497,-2.4487,-2.4722,-2.5158,-2.5092,-2.5007,-2.4948,-2.4417,-2.4176,-2.4139,-2.3639,-2.3701,-2.4292,-2.5996,-2.6629,-2.6697,-2.7237,-2.7451,-2.753,-2.7921,-2.8281,-2.8651,-2.9004,-2.932,-2.9602,-2.9602,-2.9602,-2.9602,-2.9602,-2.9602,-2.9602,-2.9602,-2.9602,-2.9602,-2.9602,-2.9602,-2.9634,-2.9777,-2.996,-3.0142,-3.0266,-3.0312,-3.0387,-3.0568,-3.0598,-3.0598,-3.0598,-3.0016,0.0,-2.8796,-2.8115,-2.7434,-2.6852,-2.6806,-2.6806,-2.6806,-2.6806,-2.7011,-2.7489,-2.754,-2.779,-2.8319,-2.8858,-2.9167,-2.9199,-2.901,-2.9567,-3.0904,0.0,0.0,0.0,0.0,0.0,0.0,0.0,0.0,0.0,0.0,0.0,0.0,0.0,0.0,0.0,0.0,0.0,0.0,0.0,0.0,0.0,-1.8581,-1.8707,-1.8616,-1.7834,-1.7308,-1.742,-1.7132,-1.68,-1.6454,-1.6856,-1.7424,-1.8065,-1.8433,-1.9341,-2.0945,-2.1603,-2.2389,-2.337,-2.3826,-2.4053,-2.4053,-2.4332,-2.4497,-2.4497,-2.4219,-2.4294,-2.4668,-2.4311,-2.4081,-2.3985,-2.4208,-2.4014,-2.3661,-2.4292,-2.4621,-2.4788,-2.5264,-2.5489,-2.5521,-2.6071,-2.6556,-2.6974,-2.7317,-2.7964,-2.8651,-2.9004,-2.932,-2.9602,-2.9602,-2.9602,-2.9602,-2.9602,-2.9602,-2.9602,-2.9602,-2.9602,-2.9602,-2.9602,-2.9602,-2.9634,-2.9777,-2.996,-3.0142,-3.0266,-3.0417,-3.0538,-3.0598,-3.0598,-3.0598,-3.0598,-2.9668,-2.8884,-2.8723,-2.7723,-2.6968,-2.6835,-2.6806,-2.6948,-2.7291,-2.7302,-2.753,-2.8061,-2.8448,-2.8951,-2.9579,-3.0114,-3.0656,-3.1194,-3.1149,-3.1056,0.0,0.0,0.0,0.0,0.0,0.0,0.0,0.0,0.0,0.0,0.0,0.0,0.0,0.0,0.0,0.0,0.0,0.0,0.0,0.0,0.0,0.0,-1.8453,-1.8535,-1.8658,-1.7957,-1.7497,-1.7629,-1.7018,-1.6543,-1.6488,-1.6713,-1.7208,-1.8085,-1.8541,-1.9394,-2.0857,-2.1546,-2.2221,-2.2894,-2.335,-2.3588,-2.3588,-2.3846,-2.3981,-2.3971,-2.3712,-2.3742,-2.3956,-2.3833,-2.3731,-2.3655,-2.39,-2.3883,-2.3721,-2.4161,-2.446,0.0,0.0,0.0,0.0,0.0,-2.6033,-2.6371,-2.6863,-2.7566,-2.8261,-2.8484,-2.9041,-2.956,-2.9307,-2.9546,-2.9837,-2.9665,-2.9727,-2.9851,-2.9634,-2.9602,-2.9602,-2.9602,-2.9602,-2.9665,-2.9867,-3.0005,-3.0086,-3.0011,-3.0279,0.0,-3.0543,-3.0587,-3.051,-3.0219,-2.9319,-2.8691,-2.862,-2.7721,-2.7178,-2.7393,-2.7418,-2.753,-2.7799,-2.7839,0.0,0.0,0.0,-2.9934,-3.0863,-3.1202,0.0,0.0,0.0,0.0,0.0,0.0,0.0,0.0,-3.3841,-3.341,0.0,0.0,0.0,0.0,0.0,0.0,0.0,0.0,0.0,0.0,0.0,0.0,0.0,0.0,0.0,0.0,-1.8105,-1.8193,-1.849,-1.7965,-1.7641,-1.7908,-1.7133,-1.6522,-1.6338,-1.6761,-1.7184,-1.7527,-1.8073,-1.9019,-2.043,-2.1086,0.0,0.0,0.0,-2.3111,-2.3111,-2.3163,-2.3184,-2.3184,-2.3143,-2.3111,-2.3141,-2.3485,-2.3602,-2.3525,-2.3559,-2.3761,-2.4001,-2.3623,-2.373,-2.4187,-2.5206,-2.5597,-2.5597,-2.5597,-2.5636,-2.5813,-2.6462,0.0,0.0,-2.7767,-2.8507,-2.9307,-2.8759,-2.929,-3.0004,-2.9662,-2.9922,-3.0195,-2.9853,-2.9758,-2.9758,-2.9758,-2.9758,-2.9851,-3.0172,-3.0192,-3.0067,-2.9784,-3.0082,-3.04,-3.0453,-3.0584,-3.0499,-3.0002,-2.9315,-2.8836,-2.8727,-2.797,-2.7644,-2.8132,0.0,0.0,-2.8237,-2.8276,-2.8521,-2.9143,-2.9903,-3.0855,-3.2069,-3.2206,-3.2206,-3.2141,-3.2206,-3.253,-3.308,-3.3186,-3.3841,-3.5033,-3.3113,-3.2951,0.0,0.0,0.0,0.0,0.0,0.0,0.0,0.0,0.0,0.0,0.0,0.0,0.0,0.0,0.0,-1.8066,-1.8291,-1.8393,-1.813,-1.7988,-1.7821,-1.7541,-1.7636,-1.7549,-1.7189,-1.7539,-1.782,-1.7892,-1.8505,-1.9228,-1.9972,-2.0671,-2.1306,-2.1942,-2.2387,-2.2635,-2.2635,-2.2998,-2.3184,-2.3184,-2.2811,0.0,-2.2644,-2.266,-2.2598,-2.2535,-2.3227,-2.3535,-2.3542,-2.3857,-2.4024,-2.4109,-2.4331,-2.4422,-2.4422,-2.4422,-2.4739,-2.5253,-2.5856,-2.6473,-2.7053,-2.7628,-2.7974,-2.8143,-2.8016,-2.8352,0.0,-2.9301,-2.9725,-3.0163,-3.0631,-3.0732,-3.0732,-3.0732,-3.0732,-3.0792,-3.1014,-3.0774,-3.0514,-3.0633,-3.0425,-3.0243,-3.0269,-3.0769,-3.1323,-3.1805,-3.0772,-2.9988,-2.997,-2.8385,-2.7308,-2.7402,-2.6942,-2.6995,-2.7971,-2.8063,-2.8541,-2.9677,-3.0919,-3.2014,-3.2854,-3.3404,-3.3437,-3.2886,-3.342,-3.3501,-3.308,-3.3631,-3.4052,-3.4295,-3.389,-3.4149,0.0,0.0,0.0,0.0,0.0,0.0,0.0,0.0,0.0,0.0,0.0,-1.9147,-1.9446,0.0,-1.871,-1.8529,-1.8379,-1.8217,-1.8037,-1.8008,-1.7949,-1.7726,-1.7565,-1.7517,-1.7691,-1.7565,-1.7681,-1.8241,-1.8997,-1.9693,-2.0212,-2.0943,-2.1492,-2.1807,-2.2035,-2.2149,-2.2149,-2.2377,-2.2501,-2.249,-2.2263,-2.238,-2.2732,-2.2524,-2.268,-2.3142,-2.3401,-2.3615,-2.376,-2.3995,-2.4083,-2.4083,-2.4083,-2.4083,-2.4083,-2.4083,-2.437,-2.48,-2.5309,-2.5949,-2.6664,-2.7032,-2.7584,-2.8082,-2.7981,-2.8461,-2.9088,-2.9186,-2.9763,-3.0357,-3.0454,-3.0749,-3.0999,-3.0999,-3.0999,-3.1058,-3.1248,-3.0928,-3.0566,-3.0428,-3.0237,-3.0099,-3.0133,-3.0685,-3.1036,-3.0865,-2.993,-2.9221,-2.9159,-2.7914,-2.7148,-2.7428,-2.7145,-2.7189,-2.7796,-2.8206,-2.8972,-3.0328,-3.1413,-3.2336,-3.3064,-3.3744,-3.3939,-3.3599,-3.3922,-3.3939,-3.3599,-3.3939,-3.4101,-3.4101,-3.4101,-3.4295,0.0,0.0,0.0,0.0,0.0,0.0,0.0,-2.1556,-2.0792,-2.1272,-2.0711,-2.0216,-2.0482,-1.9835,-1.9199,-1.9044,-1.8428,-1.8008,-1.8008,-1.8008,-1.8008,-1.8008,-1.7476,-1.7364,-1.794,-1.7467,-1.7496,-1.8416,-1.9368,-2.0054,-2.0437,-2.1329,-2.1807,-2.1807,-2.1807,-2.1807,-2.1807,-2.1807,-2.1807,-2.1807,-2.1949,-2.2312,-2.2837,-2.2766,-2.3178,-2.3932,-2.371,-2.3801,-2.4083,-2.4083,-2.4083,-2.4083,-2.4083,-2.4083,-2.4083,-2.4083,-2.4261,-2.4551,-2.4878,-2.5601,-2.6371,-2.6469,-2.7243,-2.8132,-2.7962,-2.8568,-2.927,-2.904,-2.9764,-3.0579,-3.0337,-3.0758,-3.1277,-3.1277,-3.1188,-3.1127,-3.1286,-3.088,-3.0384,-3.0025,-2.9971,-3.0006,-3.0061,-3.0305,-3.0291,-2.9699,-2.8985,-2.8428,-2.8193,-2.7391,-2.703,-2.747,-2.7381,-2.7348,-2.7494,-2.8304,-2.9275,-3.0419,-3.1445,-3.2271,-3.2854,-3.3663,-3.4101,-3.4101,-3.4101,-3.4101,-3.4101,-3.4101,-3.4101,-3.4101,-3.4126,-3.4126,-2.3861,-2.2898,-2.2142,-2.2444,-2.2115,-2.1916,0.0,-2.2206,-2.1755,-2.2183,-2.1557,-2.0971,-2.1017,-1.9922,-1.9044,-1.9011,-1.8428,-1.8008,-1.8008,-1.8008,-1.8008,-1.8008,-1.794,-1.7906,-1.7974,-1.794,-1.7925,-1.8076,-1.9208,-1.9903,-1.9964,-2.1145,-2.1807,-2.1807,-2.1807,-2.1807,-2.1807,-2.1807,-2.1807,-2.1807,-2.2515,-2.2624,-2.2252,-2.3405,-2.3713,-2.3401,-2.3858,-2.4047,-2.4083,-2.4083,-2.4083,-2.4083,-2.4083,-2.4083,-2.4083,-2.4083,-2.4261,-2.4551,-2.4878,-2.5508,-2.6167,-2.6418,-2.6835,-2.7251,-2.7229,-2.7597,-2.8137,-2.8673,-2.9609,-3.0554,-3.1094,-3.1753,-3.2244,-3.2244,-3.1799,-3.1355,-3.1382,-3.0757,-3.0153,-3.0099,-2.9993,-2.9905,-2.9927,-2.9432,-2.941,-3.0534,-3.0139,-2.9468,-2.8807,-2.7542,-2.6739,-2.6814,-2.6231,-2.6099,-2.6749,-2.8029,-2.8876,-2.9016,-3.0911,-3.2044,-3.2125,-3.3404,-3.4101,-3.4101,-3.4101,-3.4101,-3.4101,-3.4101,-3.4101,-3.4101,-3.4226,-3.4226,-2.4035,-2.4045,-2.4123,-2.3996,-2.3684,-2.3481,-2.3851,-2.3014,-2.2201,-2.2372,-2.2037,-2.1726,-2.1726,-2.0901,-2.0085,-1.9704,-1.9044,-1.8462,-1.8042,-1.8008,-1.8008,-1.8008,-1.8008,-1.8008,-1.8008,-1.8008,-1.8008,-1.8008,-1.9178,-1.9883,-1.9883,-2.1114,-2.1807,-2.1807,-2.1807,-2.1807,-2.1807,-2.1807,-2.2025,-2.2515,-2.2485,-2.2842,-2.3502,-2.3583,-2.3685,-2.3768,-2.3998,-2.4083,-2.4083,-2.4083,-2.4083,-2.4083,-2.4083,-2.4083,-2.4083,-2.4083,-2.439,-2.4836,-2.5231,-2.5769,-2.6416,-2.7074,-2.7382,-2.756,-2.78,-2.7989,-2.8213,-2.8488,-2.9445,-3.0463,-3.0751,-3.1613,-3.2398,-3.2398,-3.1874,-3.1435,-3.1595,-3.0839,-3.0141,-3.0299,-3.0103,-2.9896,-2.9896,-2.9637,-2.9362,-2.9076,-2.8466,-2.7936,-2.7608,-2.6685,-2.6377,-2.7187,-2.7008,-2.73,-2.847,-2.8304,-2.8336,-2.8778,-3.0042,-3.0943,-3.1341,-3.2757,-3.3745,-3.4209,-3.4226,-3.425,-3.4325,-3.4325,-3.4325,-3.4325,-3.4399,-3.4399,-2.4342,-2.4694,-2.5144,-2.4936,-2.4657,-2.4461,-2.4617,-2.3508,-2.2469,-2.2586,-2.228,-2.2017,-2.2161,-2.1588,-2.0869,-2.0193,-1.9474,-1.8787,-1.81,-1.8008,-1.8008,-1.8008,-1.8008,-1.8008,-1.8008,-1.8008,-1.8057,-1.8174,-1.9248,-1.9944,-2.0075,-2.1186,-2.1807,-2.1807,-2.1807,-2.1807,-2.1807,-2.1807,-2.2214,-2.3001,-2.2597,-2.3059,-2.422,-2.3666,-2.3654,-2.4083,-2.4083,-2.4083,-2.4083,-2.4083,-2.4083,-2.4083,-2.4083,-2.4083,-2.4083,-2.4083,-2.4419,-2.4935,-2.5439,-2.6027,-2.668,-2.7524,-2.7865,-2.8014,-2.8299,-2.8411,-2.8411,-2.8411,-2.9218,-3.0125,-3.0125,-3.112,-3.2074,-3.189,-3.1474,-3.1153,-3.1228,-3.0497,-2.9895,-3.0153,-3.0042,-2.9896,-2.9896,-2.9556,-2.894,-2.7867,-2.7138,-2.662,-2.6426,-2.6118,-2.6296,-2.7316,-2.7591,-2.8126,-2.92,-2.8304,-2.785,-2.819,-2.9086,-2.9913,-3.0603,-3.2052,-3.3307,-3.4284,-3.4325,-3.4399,-3.4497,-3.4497,-3.4497,-3.4497,-3.4546,-3.4546,-2.4724,-2.424,-2.3991,-2.45,-2.4173,-2.3883,-2.4398,-2.3501,-2.2693,-2.3004,-2.2193,-2.1584,-2.2101,-2.1588,-2.0869,-2.0193,-1.9474,-1.8787,-1.81,-1.8008,-1.8008,-1.8008,-1.8008,-1.8008,-1.8008,-1.8008,-1.8149,-1.8549,-1.9417,-2.0085,-2.0548,-2.137,-2.1807,-2.1807,-2.1807,-2.1807,-2.1807,-2.1807,-2.2214,-2.299,-2.3198,-2.3386,-2.3622,-2.3591,-2.3772,-2.4083,-2.4083,-2.4083,-2.4083,-2.4083,-2.4083,-2.4083,-2.4083,-2.4083,-2.4083,-2.4083,-2.429,-2.4624,-2.5342,-2.6067,-2.6823,-2.756,-2.8063,-2.8372,-2.8411,-2.8411,-2.8411,-2.8411,-2.8904,-2.9417,-2.9417,-3.0428,-3.1259,-3.0602,-3.0448,-3.0325,-2.9953,-2.9477,-2.9222,-2.948,-2.9726,-2.9896,-2.9896,-2.8709,-2.7753,-2.7721,-2.7138,-2.6442,-2.5726,-2.6247,-2.6685,-2.6733,-2.7316,-2.7721,-2.7769,-2.7737,-2.7429,-2.6798,-2.8082,-2.9167,-2.9896,-3.1421,-3.2883,-3.4267,-3.4423,-3.4497,-3.4497,-3.4497,-3.4497,-3.4497,-3.4618,-3.4691,-2.4567,-2.4115,-2.3671,-2.3467,-2.3037,-2.271,-2.2757,-2.1889,-2.1233,-2.1783,-2.1606,-2.1362,-2.1446,-2.1288,-2.0709,-1.9573,-1.9177,-1.8787,-1.81,-1.8008,-1.7828,-1.7329,-1.7931,-1.8209,-1.7718,-1.7854,-1.8184,-1.8568,-1.9417,-2.0095,-2.0578,-2.1343,-2.1807,-2.1807,-2.1807,-2.1807,-2.1807,-2.1807,-2.2066,-2.2546,-2.2925,-2.3236,-2.3461,-2.3555,-2.3717,-2.3979,-2.4067,-2.4083,-2.4083,-2.4083,-2.4083,-2.4083,-2.4083,-2.4083,-2.4141,-2.4563,-2.475,-2.4907,-2.5439,-2.6067,-2.6823,-2.756,-2.8063,-2.8411,-2.8411,-2.8411,-2.8411,-2.8411,-2.8864,-2.9387,-2.9387,-3.0048,-3.0797,-3.1012,-3.0709,-3.0526,-3.1026,-3.0403,-2.9832,-3.0112,-3.001,-2.9734,-2.9248,-2.8762,-2.8109,-2.7187,-2.6442,-2.6393,-2.7575,-2.7931,-2.8628,-3.0069,-2.9966,-3.0014,-3.0522,-2.9243,-2.8109,-2.7413,-2.7818,-2.8611,-2.9848,-3.0826,-3.2268,-3.4267,-3.4423,-3.4546,-3.4618,-3.4221,-3.4037,-3.402,-3.3588,-3.3379,-2.4247,-2.3702,-2.3241,-2.3079,-2.2559,-2.2107,-2.2234,-2.1452,-2.0867,-2.1496,-2.1308,-2.1145,-2.1433,-2.1129,-2.0495,-1.9541,-1.9177,-1.8787,-1.81,-1.8008,-1.7725,-1.701,-1.7652,-1.7879,-1.7126,-1.7349,-1.7951,-1.899,-1.9445,-2.0031,-2.0762,-2.1425,-2.1807,-2.1807,-2.1807,-2.1807,-2.1807,-2.1807,-2.1999,-2.2375,-2.3045,-2.3399,-2.345,-2.3569,-2.376,-2.3979,-2.4067,-2.4083,-2.4083,-2.4083,-2.4083,-2.4083,-2.4083,-2.4083,-2.4171,-2.4778,-2.5005,-2.5118,-2.5864,-2.6455,-2.6979,-2.775,-2.8177,-2.8411,-2.8411,-2.8411,-2.8411,-2.8411,-2.8719,-2.9058,-2.9058,-2.9525,-3.0079,-3.0274,-3.0181,-3.0181,-3.0732,-3.046,-3.0164,-3.0275,-3.0077,-2.9734,-2.9264,-2.8973,-2.866,-2.8271,-2.7381,-2.7154,-2.8255,-2.8628,-2.9518,-3.1429,-3.1179,-3.1082,-3.1551,-3.0344,-2.913,-2.8158,-2.8336,-2.9016,-3.022,-3.0972,-3.2308,-3.4341,-3.4497,-3.4643,-3.4763,-3.413,-3.3789,-3.3773,-3.305,-3.2702,-2.3849,-2.3021,-2.2605,-2.3219,-2.2565,-2.1982,-2.2599,-2.2016,-2.1474,-2.2022,-2.1316,-2.0953,-2.1963,-2.1123,-2.0231,-2.0096,-1.9452,-1.8721,-1.8105,-1.8047,-1.7745,-1.6941,-1.7221,-1.7126,-1.6272,-1.648,-1.7576,-1.9686,-1.9459,-1.9831,-2.1146,-2.154,-2.1769,-2.1807,-2.1787,-2.1766,-2.1766,-2.1725,-2.1975,-2.2468,-2.3417,-2.3757,-2.3599,-2.3599,-2.3776,-2.4083,-2.4083,-2.4083,-2.4083,-2.4083,-2.4083,-2.4083,-2.4083,-2.4083,-2.4171,-2.4806,-2.5033,-2.5244,-2.6654,-2.7122,-2.7225,-2.8088,-2.8372,-2.8411,-2.8411,-2.8411,-2.8411,-2.8411,-2.8411,-2.8411,-2.8411,-2.8889,-2.9187,-2.8596,-2.895,-2.9367,-2.921,-2.9714,-3.014,-2.9964,-2.9913,-2.9896,-2.9896,-2.9313,-2.9308,-3.0645,-2.9745,-2.866,-2.8012,-2.853,-2.9486,-3.0872,-3.1017,-3.1017,-3.1017,-3.0985,-3.037,-2.8984,-2.9556,-3.0247,-3.0937,-3.1755,-3.2921,-3.4464,-3.4586,-3.4714,-3.4833,-3.4054,-3.3673,-3.3657,-3.2934,-3.2602,-2.3321,-2.2426,-2.1681,-2.1625,-2.1084,-2.0561,-2.0594,-2.0422,-2.0451,-2.1045,-2.1148,-2.1165,-2.1359,-2.0701,-2.0074,-1.9851,-1.8944,-1.832,-1.8437,-1.8442,-1.7853,-1.6202,-1.7359,-1.7645,-1.5994,-1.6346,-1.7351,-1.8891,-1.8736,-1.9324,-2.1108,-2.1146,-2.1339,-2.1807,-2.1476,-2.129,-2.129,-2.0617,-2.0874,-2.1965,-2.2022,-2.2561,-2.3463,-2.37,-2.3861,-2.3949,-2.4067,-2.4083,-2.4083,-2.4083,-2.4083,-2.4083,-2.4083,-2.4083,-2.4229,-2.5231,-2.5605,-2.5797,-2.7265,-2.7484,-2.7199,-2.7775,-2.8152,-2.8411,-2.8411,-2.8411,-2.8411,-2.8411,-2.8411,-2.8411,-2.8411,-2.8535,-2.875,-2.9073,-2.9289,-2.9579,-3.0223,-3.024,-3.018,-3.0325,-3.0103,-2.9896,-2.9896,-2.9734,-2.9734,-3.0107,-3.0279,-3.0483,-3.0862,-3.1073,-3.1526,-3.2433,-3.253,-3.253,-3.253,-3.2044,-3.1325,-3.0419,-3.0532,-3.0975,-3.1704,-3.2032,-3.289,-3.4317,-3.4028,-3.3907,-3.3931,-3.2751,-3.2161,-3.2128,-3.1399,-3.1073,-2.2389,-2.1663,-2.1087,-2.0845,-2.0378,-1.9967,-2.0004,-2.0157,-2.0368,-2.0618,-2.1014,-2.122,-2.0825,-2.0194,-1.9608,-1.9215,-1.8208,-1.7581,-1.7733,-1.7623,-1.7027,-1.5616,-1.6509,-1.6723,-1.5296,-1.561,-1.654,-1.8037,-1.8087,-1.8771,-2.0391,-2.075,-2.1059,-2.1377,-2.1203,-2.101,-2.0777,-2.0414,-2.0636,-2.1352,-2.1588,-2.2187,-2.3065,-2.3539,-2.3848,-2.3979,-2.4054,-2.4083,-2.4083,-2.4083,-2.4083,-2.4083,-2.4083,-2.4258,-2.4607,-2.5467,-2.5987,-2.6363,-2.7575,-2.779,-2.756,-2.794,-2.8226,-2.8411,-2.8411,-2.8411,-2.8411,-2.8411,-2.8411,-2.8411,-2.8411,-2.8411,-2.8504,-2.8889,-2.8965,-2.9172,-2.9897,-3.0091,-3.0149,-3.0218,-3.0287,-3.0328,-3.0328,-3.0626,-3.0933,-3.1258,-3.1348,-3.1422,-3.1503,-3.1817,-3.24,-3.342,-3.3299,-3.308,-3.308,-3.2983,-3.2498,-3.1438,-3.1956,-3.2352,-3.252,-3.2924,-3.3387,-3.3981,-3.3731,-3.3462,-3.3201,-3.2122,-3.1598,-3.1581,-3.0837,-3.0506,-2.1344,-2.0958,-2.0778,-2.0595,-2.0189,-1.9951,-2.0294,-2.0569,-2.0734,-2.0662,-2.098,-2.1069,-2.0523,-1.9704,-1.8984,-1.8556,-1.7535,-1.6804,-1.6774,-1.6521,-1.607,-1.5242,-1.5516,-1.5444,-1.4609,-1.4739,-1.5529,-1.7066,-1.7332,-1.8063,-1.952,-2.0217,-2.0612,-2.0647,-2.0839,-2.071,-2.022,-2.0471,-2.064,-2.0729,-2.1499,-2.2132,-2.2634,-2.3203,-2.3717,-2.4083,-2.4083,-2.4083,-2.4083,-2.4083,-2.4083,-2.4083,-2.4083,-2.4419,-2.4948,-2.5577,-2.6122,-2.6721,-2.7665,-2.7995,-2.8029,-2.8299,-2.8411,-2.8411,-2.8411,-2.8411,-2.8411,-2.8411,-2.8411,-2.8411,-2.8411,-2.8411,-2.8411,-2.8411,-2.8411,-2.8517,-2.8936,-2.9611,-3.0076,-2.9921,-3.0441,-3.0937,-3.1034,-3.1672,-3.2336,-3.287,-3.2417,-3.1704,-3.0872,-3.1487,-3.2481,-3.3696,-3.3388,-3.3129,-3.3226,-3.3761,-3.3582,-3.2368,-3.342,-3.3875,-3.334,-3.3958,-3.4153,-3.3729,-3.3554,-3.3234,-3.2702,-3.1868,-3.1449,-3.1449,-3.0903,-3.0638,-2.1052,-2.091,-2.0991,-2.0795,-2.0477,-2.0299,-2.0643,-2.0575,0.0,-2.1342,-2.0952,-2.0604,-2.0889,-1.9412,-1.8315,-1.8818,-1.7442,-1.6555,-1.7205,-1.7218,-1.6787,-1.564,-1.6087,-1.605,-1.4922,-1.4871,-1.5164,-1.5861,-1.5992,-1.7074,-1.9483,-1.9127,-1.8977,-1.9235,-1.9747,-1.9813,-1.9347,-1.9354,-1.9678,-2.0227,-2.0506,-2.131,-2.2592,-2.2834,-2.3369,-2.4083,-2.4083,-2.4083,-2.4083,-2.4083,-2.4083,-2.4083,-2.4083,-2.4171,-2.439,-2.5412,-2.5864,-2.6149,-2.7524,-2.7995,-2.8029,-2.8299,-2.8411,-2.8411,-2.8411,-2.8411,-2.8411,-2.8411,-2.8411,-2.8411,-2.8411,-2.8411,-2.8411,-2.8411,-2.8411,-2.8468,-2.8724,-2.9224,-2.9675,-2.9869,-3.0441,-3.1082,-3.1697,-3.2417,-3.274,-3.2271,-3.2093,-3.1526,-3.0253,-3.1202,-3.2093,-3.2352,-3.2805,-3.3307,-3.3874,-3.4036,-3.4003,-3.3744,-3.3955,-3.4036,-3.3947,-3.4284,-3.4448,-3.4341,-3.3354,-3.2812,-3.2702,-3.1355,-3.0688,-3.0704,-3.1184,-3.1416,-2.0526,-2.0414,-2.0347,-2.0294,-2.0292,-2.0311,-2.0364,0.0,0.0,-2.0614,-2.0424,-2.0047,-1.9168,-1.8402,-1.7693,-1.7052,-1.6052,-1.5479,-1.5833,-1.556,-1.5071,-1.4369,-1.4424,-1.4271,-1.3548,-1.3764,-1.4298,-1.5121,-1.5498,-1.6357,-1.7786,-1.8324,-1.8655,-1.8889,-1.9471,-1.9575,-1.9108,-1.9108,-1.9264,-1.9584,-1.9998,-2.0814,-2.199,-2.247,-2.316,-2.4008,-2.4054,-2.4083,-2.4083,-2.4083,-2.4083,-2.4083,-2.4083,-2.4287,-2.4635,-2.5175,-2.5742,-2.639,-2.7163,-2.7675,-2.8029,-2.8226,-2.8348,-2.8411,-2.8411,-2.8411,-2.8411,-2.8411,-2.8411,-2.8411,-2.8411,-2.8411,-2.8411,-2.8411,-2.8493,-2.8597,-2.8685,-2.9129,-2.9538,-2.9665,-3.0335,-3.0888,-3.0895,-3.1494,-3.1591,-3.0506,-3.0328,-2.9939,-2.8892,-2.934,-3.0198,-3.1309,-3.2093,-3.2805,-3.3518,-3.389,-3.4101,-3.4101,-3.4101,-3.4126,-3.4201,-3.4325,-3.4244,-3.394,-3.306,-3.2408,-3.2006,-3.0997,-3.0506,-3.0506,-3.0853,-3.1234,-1.996,-1.9821,-1.9723,-1.9879,-2.0113,-2.0283,-2.0208,-2.056,0.0,-1.9909,-1.9806,-1.9325,-1.7598,-1.724,-1.6683,-1.5165,-1.4591,-1.429,-1.4151,-1.3691,-1.3312,-1.304,-1.2772,-1.2514,-1.2324,-1.2671,-1.3293,-1.4251,-1.495,-1.5635,-1.6275,-1.7621,-1.8396,-1.8391,-1.9087,-1.9301,-1.8942,-1.9042,-1.9108,-1.9108,-1.9616,-2.042,-2.142,-2.2082,-2.2932,-2.392,-2.4037,-2.4083,-2.4083,-2.4083,-2.4083,-2.4083,-2.4083,-2.439,-2.4806,-2.4948,-2.5646,-2.6537,-2.6797,-2.7367,-2.8005,-2.8177,-2.8299,-2.8411,-2.8411,-2.8411,-2.8411,-2.8411,-2.8411,-2.8411,-2.8411,-2.8411,-2.8411,-2.8411,-2.8525,-2.8653,-2.8685,-2.9082,-2.9473,-2.9678,-3.0251,-3.0571,-3.0188,-3.0425,-3.0214,-2.8773,-2.8547,-2.8239,-2.7365,-2.7251,-2.8008,-2.9998,-3.1024,-3.1915,-3.2789,-3.3356,-3.3712,-3.3874,-3.389,-3.4005,-3.425,-3.4275,-3.4072,-3.3597,-3.304,-3.2385,-3.1616,-3.1021,-3.0654,-3.0506,-3.082,-3.1267,-1.9397,-1.9406,-1.9707,-2.0148,-2.0283,-2.038,-2.0739,0.0,-2.078,-2.0334,-1.9268,-1.8286,-1.7898,-1.6227,-1.4776,0.0,0.0,-1.3348,-1.2936,-1.3155,-1.3243,-1.2777,-1.287,-1.2888,-1.2659,-1.2434,-1.2408,-1.2702,-1.3607,-1.4783,-1.6215,-1.698,-1.7197,-1.6806,-1.7876,-1.8411,-1.8371,-1.8875,-1.9108,-1.9108,-1.9164,-1.9977,-2.142,-2.1596,-2.2494,-2.392,-2.4037,-2.4083,-2.4083,-2.4083,-2.4083,-2.4083,-2.4083,-2.4112,-2.4258,-2.4806,-2.537,-2.5973,-2.6666,-2.7367,-2.8005,-2.8177,-2.8299,-2.8411,-2.8411,-2.8411,-2.8411,-2.8411,-2.8411,-2.8411,-2.8411,-2.8411,-2.8411,-2.8411,-2.8396,-2.8493,-2.8653,-2.8936,-2.9419,-3.0327,-3.0203,-3.0172,-3.071,-3.0344,-2.9491,-2.8029,-2.7802,-2.7316,-2.5969,-2.5791,-2.6358,-2.785,-2.9264,-3.0642,-3.1996,-3.2158,-3.2481,-3.3145,-3.3202,-3.3453,-3.4093,-3.4226,-3.4267,-3.4227,-3.3749,-3.3143,-3.2401,-3.1803,-3.1151,-3.0522,-3.1868,-3.2536,-2.0226,-2.0408,-2.0612,-2.0605,-2.0741,-2.074,-2.0147,-2.0283,-2.0272,-1.9301,-1.827,-1.735,-1.6684,-1.5209,-1.3876,0.0,0.0,0.0,-1.2344,-1.2274,-1.213,-1.1827,-1.1662,-1.1421,-1.1049,-1.122,-1.1684,-1.2516,-1.3674,-1.4637,-1.5242,-1.627,-1.6915,-1.7063,-1.751,-1.81,-1.8764,-1.8674,-1.8774,-1.9108,-1.9108,-1.9846,-2.123,-2.1471,-2.2372,-2.373,-2.3995,-2.4083,-2.4083,-2.4083,-2.4083,-2.4083,-2.4083,-2.4083,-2.4112,-2.4361,-2.5048,-2.5837,-2.6135,-2.6956,-2.789,-2.8054,-2.8177,-2.8299,-2.8372,-2.8411,-2.8411,-2.8411,-2.8411,-2.8411,-2.8411,-2.8411,-2.8411,-2.8411,-2.8411,-2.842,-2.8501,-2.8834,-2.9343,-3.0196,-3.0112,-2.9848,-2.9664,-2.9049,-2.8093,-2.6649,-2.6438,-2.6228,-2.5662,-2.5597,-2.6131,-2.7559,-2.8611,-2.981,-3.1212,-3.1729,-3.2141,-3.2417,-3.2838,-3.3234,-3.3485,-3.394,-3.4176,-3.4176,-3.3728,-3.3125,-3.2387,-3.1858,-3.1217,-3.0522,-3.1548,-3.2282,-2.0482,-2.0612,-2.0809,-2.0929,-2.0843,-2.0549,-1.9823,-1.9813,-1.9527,-1.8214,-1.7284,-1.6358,-1.5317,-1.4155,-1.3077,0.0,0.0,-1.1218,-1.1171,-1.0825,-1.0504,-1.0232,-0.9988,-0.9787,-0.9602,-1.0294,-1.1149,-1.2268,-1.3528,-1.4386,-1.4601,-1.5719,-1.6542,-1.6899,-1.7063,-1.7604,-1.8596,-1.8405,-1.8573,-1.9108,-1.9108,-1.9715,-2.0805,-2.1313,-2.2187,-2.3335,-2.3848,-2.4067,-2.4083,-2.4083,-2.4083,-2.4083,-2.4083,-2.4083,-2.4112,-2.4316,-2.4978,-2.5837,-2.6014,-2.6826,-2.7815,-2.7955,-2.8103,-2.8235,-2.8348,-2.8411,-2.8411,-2.8411,-2.8411,-2.8411,-2.8411,-2.8411,-2.8411,-2.8411,-2.8411,-2.842,-2.8493,-2.8811,-2.9343,-3.0172,-2.9913,-2.941,-2.8892,-2.8012,-2.6992,-2.5775,-2.5597,-2.5597,-2.5597,-2.5597,-2.605,-2.7284,-2.8045,-2.9049,-3.049,-3.1089,-3.1461,-3.1672,-3.2158,-3.2643,-3.3064,-3.355,-3.3915,-3.4134,-3.3868,-3.3275,-3.2364,-3.2073,-3.1548,-3.0837,-3.1581,-3.2315,-1.9696,-1.9529,-1.9801,-2.1004,-2.0346,-1.9582,-2.0173,-1.964,-1.8648,-1.7376,-1.6369,-1.5317,-1.3952,-1.312,-1.2231,-1.0999,0.0,0.0,-0.9044,-0.8707,-0.8363,-0.7879,-0.7955,-0.8252,-0.8836,-0.986,-1.085,-1.1632,-1.2842,-1.3818,-1.4565,-1.539,-1.5797,-1.5841,-1.6342,-1.6855,-1.7407,-1.7988,-1.8573,-1.9108,-1.9108,-1.9452,-2.0128,-2.1008,-2.1846,-2.2665,-2.3539,-2.3979,-2.4083,-2.4083,-2.4083,-2.4083,-2.4083,-2.4083,-2.4171,-2.4778,-2.5342,-2.5892,-2.6484,-2.7178,-2.7815,-2.7955,-2.8103,-2.8235,-2.8348,-2.8411,-2.8411,-2.8411,-2.8411,-2.8411,-2.8411,-2.8411,-2.8411,-2.8411,-2.8411,-2.8444,-2.8653,-2.8912,-2.9389,-3.04,-2.9639,-2.8806,-2.8811,-2.764,-2.6458,-2.571,-2.5597,-2.5597,-2.5597,-2.5597,-2.5891,-2.6636,-2.7316,-2.8304,-2.9783,-2.9935,-3.0204,-3.0872,-3.092,-3.1568,-3.3032,-3.3121,-3.3478,-3.4284,-3.4407,-3.3824,-3.25,-3.2635,-3.2315,-3.1615,-3.2348,-3.3083,-1.9556,-2.0015,-2.0526,-2.0486,-1.9789,-1.9048,-1.8722,-1.8061,-1.723,-1.6325,-1.5196,-1.4196,-1.378,-1.2412,-1.1091,-1.0259,-0.964,0.0,-0.8491,-0.8881,-0.8951,-0.8157,-0.838,-0.8669,-0.8744,-0.9694,-1.0475,-1.085,-1.1885,-1.2879,-1.3818,-1.4573,-1.5401,-1.6333,-1.6175,-1.6691,-1.7998,-1.7794,-1.8158,-1.9108,-1.9108,-1.9452,-2.0128,-2.1008,-2.1846,-2.2665,-2.3526,-2.3979,-2.4083,-2.4083,-2.4083,-2.4083,-2.4083,-2.4083,-2.4171,-2.4778,-2.5342,-2.5892,-2.6484,-2.7126,-2.7675,-2.7815,-2.7955,-2.8079,-2.821,-2.8323,-2.8411,-2.8411,-2.8411,-2.8411,-2.8411,-2.8411,-2.8411,-2.8411,-2.8411,-2.8468,-2.8653,-2.8912,-2.9389,-3.04,-2.9639,-2.8811,-2.8811,-2.7624,-2.6442,-2.571,-2.5597,-2.5597,-2.5597,-2.5597,-2.605,-2.7267,-2.7575,-2.8093,-2.907,-2.9605,-2.9977,-3.0204,-3.0645,-3.1114,-3.1568,-3.2562,-3.3218,-3.3478,-3.4056,-3.3672,-3.2298,-3.2471,-3.2227,-3.1615,-3.183,-3.2613,0.0,-1.9649,-1.9969,-1.9784,-1.8814,-1.7809,-1.7524,-1.6699,-1.5773,-1.5084,-1.4047,-1.3142,-1.2698,-1.1385,-1.0171,-0.9545,-0.8666,-0.7914,-0.7632,-0.7951,-0.7938,-0.7264,-0.7934,-0.8418,-0.8264,-0.942,-1.0293,-1.0481,-1.1446,-1.2439,-1.3462,-1.4207,-1.5108,-1.6263,-1.5964,-1.6386,-1.7647,-1.7476,-1.7852,-1.8808,-1.8998,-1.933,-1.9748,-2.0805,-2.1628,-2.2286,-2.3348,-2.3907,0.0,-2.4083,-2.4083,-2.4083,-2.4083,-2.4083,-2.4171,-2.4778,-2.5342,-2.5892,-2.6484,-2.71,-2.7625,-2.7815,-2.8005,-2.8168,-2.825,-2.8323,-2.8411,-2.8411,-2.8411,-2.8411,-2.8411,-2.8411,-2.8411,-2.8411,-2.8411,-2.8468,-2.8653,-2.8912,-2.9231,-2.9681,-2.9027,-2.8304,-2.8045,-2.7041,-2.6134,-2.5662,-2.5597,-2.5597,-2.5597,-2.5597,-2.6034,-2.7203,-2.7332,-2.7721,-2.8709,-2.9475,-2.9896,-2.9896,-3.0279,-3.0652,-3.0888,-3.1785,-3.2424,-3.2748,-3.3486,-3.3347,-3.2269,-3.2426,-3.2182,-3.1598,-3.1598,-3.2078,0.0,-1.853,-1.8411,-1.8901,-1.7488,-1.608,-1.6544,-1.5535,0.0,-1.3715,-1.2974,-1.2157,-1.1023,-1.0099,-0.9382,-0.8941,-0.7578,-0.6605,-0.6546,-0.6151,-0.579,-0.5596,-0.6881,-0.7729,-0.7535,-0.9107,-1.0255,-1.0475,-1.1372,-1.2365,-1.3426,-1.4142,-1.4903,-1.5761,-1.5805,-1.607,-1.6603,-1.7132,-1.7681,-1.8303,-1.8831,-1.9108,-1.9131,-2.0452,-2.1219,-2.1647,-2.2962,-2.3747,-2.4083,-2.4083,-2.4083,-2.4083,-2.4083,-2.4083,-2.4171,-2.4778,-2.5328,-2.5837,-2.6484,-2.7074,-2.76,-2.7905,-2.8168,-2.8387,-2.8387,-2.8411,-2.8411,-2.8411,-2.8411,-2.8411,-2.8411,-2.8411,-2.8411,-2.8411,-2.8411,-2.8468,-2.8653,-2.8842,-2.8876,-2.8455,-2.7954,-2.7409,-2.6778,-2.6066,-2.5597,-2.5597,-2.5597,-2.5597,-2.5597,-2.5597,-2.5907,-2.6685,-2.6766,-2.7332,-2.8762,-2.9459,-2.9832,-2.9896,-2.9896,-3.0188,-3.0791,-3.0872,-3.1313,-3.2159,-3.2843,-3.293,-3.2384,-3.2449,-3.2182,-3.1576,-3.1615,-3.1598,-1.6886,0.0,-1.7266,-1.7394,-1.6651,-1.5704,0.0,-1.4307,-1.3302,0.0,0.0,0.0,-1.1109,-0.9915,-0.8787,-0.8441,-0.7356,-0.6431,-0.5964,-0.5725,-0.5798,-0.6276,-0.7097,-0.7589,-0.7522,-0.8993,-1.0067,-1.0255,-1.0625,-1.1552,-1.3164,-1.3564,-1.4402,-1.577,-1.5805,-1.607,-1.6603,-1.7132,-1.7681,-1.8303,-1.8831,-1.9108,-1.9131,-1.9977,-2.0741,-2.1514,-2.2421,-2.3275,-2.3949,-2.4067,-2.4083,-2.4083,-2.4083,-2.4083,-2.4171,-2.4778,-2.509,-2.5328,-2.6351,-2.6788,-2.7023,-2.7765,-2.8044,-2.8128,-2.8339,-2.8411,-2.8411,-2.8411,-2.8411,-2.8411,-2.8411,-2.8411,-2.8411,-2.8411,-2.8411,-2.8468,-2.8653,-2.835,-2.8065,-2.8155,-2.7322,-2.6575,-2.6415,-2.5954,-2.5597,-2.5597,-2.5597,-2.5597,-2.5597,-2.5597,-2.6066,-2.7332,-2.7462,-2.8061,-2.9524,-2.9281,-2.9297,-2.9848,-2.9896,-2.9961,-3.0139,-3.0635,-3.1267,-3.2043,-3.2756,-3.2844,-3.2245,-3.2367,-3.2081,-3.1446,-3.1555,-3.1598,-1.5676,-1.6175,-1.6776,-1.6776,-1.5867,-1.4855,-1.441,0.0,0.0,0.0,0.0,0.0,0.0,-0.943,-0.8557,-0.7525,-0.7041,-0.6534,-0.5794,-0.5537,-0.5583,-0.6015,-0.6984,-0.7584,-0.7518,-0.896,-0.9992,-1.018,-1.0293,-1.1031,-1.2586,-1.3091,-1.3926,-1.5204,-1.5611,-1.5938,-1.6237,-1.6994,-1.7545,-1.7896,-1.8697,-1.9108,-1.9131,-2.0096,-2.088,-2.1451,-2.2506,-2.3318,-2.392,-2.3979,-2.4037,-2.4083,-2.4083,-2.4083,-2.4141,-2.4476,-2.475,-2.509,-2.5701,-2.6283,-2.693,-2.774,-2.8029,-2.8128,-2.8323,-2.8411,-2.8411,-2.8411,-2.8411,-2.8411,-2.8411,-2.8411,-2.8411,-2.8411,-2.8411,-2.8343,-2.8147,-2.7891,-2.7554,-2.7077,-2.6619,-2.619,-2.5886,-2.5706,-2.5597,-2.5597,-2.5597,-2.5597,-2.5597,-2.5907,-2.6523,-2.7591,-2.7705,-2.8304,-2.9767,-2.9216,-2.9119,-2.9848,-2.9896,-2.9896,-2.9896,-3.0247,-3.0781,-3.147,-3.1898,-3.1969,-3.1694,-3.2174,-3.2058,-3.1462,-3.1555,-3.1598,-1.4833,-1.5521,-1.6407,-1.6178,-1.5049,-1.3931,-1.3774,0.0,0.0,0.0,0.0,0.0,0.0,-0.8751,-0.8202,-0.6762,-0.6661,-0.6548,-0.5755,-0.5499,-0.5399,-0.5361,-0.6666,-0.7552,-0.7514,-0.896,-0.996,-1.0143,-1.018,-1.0738,-1.1959,-1.2762,-1.3673,-1.4681,-1.5426,-1.5805,-1.5805,-1.6864,-1.7407,-1.7407,-1.8563,-1.9108,-1.9131,-2.0291,-2.0996,-2.142,-2.258,0.0,-2.3861,-2.3891,-2.3979,-2.4083,-2.4083,-2.4083,-2.4083,-2.4083,-2.4419,-2.4892,-2.5061,-2.5878,-2.6993,-2.774,-2.8054,-2.8186,-2.8323,-2.8372,-2.8411,-2.8411,-2.8411,-2.8411,-2.8411,-2.8411,-2.8411,-2.8411,-2.8411,-2.8227,-2.7534,-2.745,-2.7121,-2.5934,-2.5914,-2.5931,-2.539,-2.5483,-2.5597,-2.5597,-2.5597,-2.5597,-2.5597,-2.6247,-2.696,-2.764,-2.7802,-2.8417,-2.9783,-2.9329,-2.9232,-2.9848,-2.9896,-2.9896,-2.9896,-2.9994,-3.0263,-3.0726,-3.0953,-3.1086,-3.1108,-3.2076,-3.2223,-3.1627,-3.1852,-3.1813,-1.4727,-1.5152,-1.5473,-1.4256,-1.3955,-1.3677,-1.2759,0.0,0.0,0.0,0.0,0.0,0.0,-0.7977,-0.6834,-0.6976,-0.638,-0.5813,-0.5492,-0.5435,-0.5336,-0.5094,-0.6521,-0.7492,-0.7502,-0.896,-0.9922,-0.996,-1.0105,-1.0807,-1.2168,-1.2865,-1.3781,-1.5054,-1.5576,-1.5805,-1.5805,-1.6864,-1.7407,-1.7407,-1.8563,-1.9108,-1.9108,-1.9297,-2.0031,-2.1155,0.0,-2.2445,-2.3658,-2.3832,-2.3979,-2.4083,-2.4083,-2.4083,-2.4083,-2.4083,-2.4171,-2.4361,-2.5328,-2.6149,-2.6852,-2.7575,-2.793,-2.8054,-2.8186,-2.8323,-2.8411,-2.8411,-2.8411,-2.8411,-2.8411,-2.8411,-2.8411,-2.8411,-2.8411,-2.8227,-2.7534,-2.6926,-2.6346,-2.5798,-2.5428,-2.5231,-2.5291,-2.5483,-2.5597,-2.5597,-2.5597,-2.5597,-2.5597,-2.6247,-2.696,-2.764,-2.8255,-2.8989,-2.9815,-2.9783,-2.9767,-2.988,-2.9896,-2.9896,-2.9896,-3.0441,-3.0538,-3.0058,-3.1218,-3.1589,-3.1108,-3.2527,-3.2875,-3.2194,-3.3069,-3.2728,-1.4168,-1.4022,-1.378,-1.2674,-1.2988,-1.3484,-1.313,0.0,0.0,0.0,0.0,0.0,0.0,-0.7729,-0.7368,-0.7122,-0.6228,-0.5499,-0.5427,-0.5353,-0.5208,-0.5037,-0.6472,-0.7502,-0.7502,-0.896,-0.9884,-0.9884,-0.9992,-1.0363,-1.1136,-1.2168,-1.3047,-1.3753,-1.4883,-1.547,-1.547,-1.6751,-1.7407,-1.7407,-1.8563,-1.9108,-1.9098,-1.9495,-1.9977,-2.0613,0.0,-2.2218,-2.3005,-2.3509,-2.3848,-2.4008,-2.4054,-2.4083,-2.4083,-2.4083,-2.4083,-2.4245,-2.5412,-2.5987,-2.639,-2.7433,-2.784,-2.793,-2.8137,-2.8235,-2.8323,-2.8372,-2.8411,-2.8411,-2.8411,-2.8411,-2.8411,-2.8411,-2.8411,-2.8119,-2.7072,-2.6565,-2.6026,-2.5122,-2.4966,-2.5025,-2.5103,-2.5391,-2.5726,-2.6134,-2.5875,-2.5872,-2.6652,-2.7041,-2.751,-2.8223,-2.8957,-2.9524,-2.9864,-2.9896,-2.9896,-2.9896,-2.9896,-2.9896,-2.9896,-3.0204,-3.022,-2.9918,-3.0545,-3.0729,-3.0449,-3.1587,-3.1998,-3.1665,-3.2607,-3.2665,-1.3455,-1.2954,-1.2471,-1.1483,0.0,-1.2718,-1.3171,-1.176,0.0,0.0,0.0,0.0,-0.7219,-0.7396,-0.7473,-0.6824,-0.5956,-0.5402,-0.5372,-0.5246,-0.5223,-0.526,-0.6588,-0.7579,-0.7774,-0.9074,-0.9884,-0.9884,-0.9884,-1.003,-1.0331,-1.1576,-1.2425,-1.2739,-1.4266,-1.5098,-1.5204,-1.6603,-1.7304,-1.7407,-1.8563,-1.9108,-1.9108,-1.9616,-1.9933,-2.0161,-2.1353,-2.2082,-2.2463,-2.3275,-2.373,-2.392,-2.4067,-2.4083,-2.4083,-2.4083,-2.4083,-2.4258,-2.5258,-2.5687,-2.5973,-2.7178,-2.765,-2.784,-2.8088,-2.8186,-2.8235,-2.8348,-2.8288,-2.8165,-2.8165,-2.8165,-2.8134,-2.798,-2.7934,-2.7596,-2.6395,-2.6103,-2.5733,-2.4596,-2.4726,-2.5005,-2.5045,-2.5371,-2.5775,-2.6361,-2.6118,-2.6264,-2.7332,-2.7753,-2.8174,-2.8746,-2.9459,-2.9896,-2.9896,-2.9896,-2.9896,-2.9896,-2.9896,-2.9896,-2.9896,-2.9896,-2.9896,-2.9896,-2.9896,-2.9902,-2.9924,-3.0721,-3.1108,-3.1124,-3.1994,-3.2413,-1.2806,-1.2549,-1.2312,-1.0773,-1.0433,0.0,-1.1804,-1.0384,0.0,-1.0062,0.0,-0.7327,-0.7296,-0.6505,-0.5794,-0.556,-0.5463,-0.5372,-0.5216,-0.5192,-0.5419,-0.6028,-0.6927,-0.7808,-0.8546,-0.9387,-0.9884,-0.9884,-0.9884,-1.0143,-1.0738,-1.1724,-1.2565,-1.3127,-1.4122,-1.4812,-1.5204,-1.6341,-1.7079,-1.7407,-1.8563,-1.9108,-1.9108,-1.9142,-1.9518,-2.0128,-2.0869,-2.1659,-2.2463,-2.3275,-2.373,-2.392,-2.4067,-2.4083,-2.4083,-2.4083,-2.4083,-2.42,-2.4835,-2.537,-2.5906,-2.6563,-2.7229,-2.7815,-2.798,-2.8103,-2.8235,-2.8348,-2.795,-2.7473,-2.7473,-2.7473,-2.7319,-2.6672,-2.6534,-2.6318,-2.5564,-2.5373,-2.5207,-2.4668,-2.4806,-2.5045,-2.5256,-2.5464,-2.5613,-2.5662,-2.6215,-2.6652,-2.6749,-2.7899,-2.8746,-2.8773,-2.9459,-2.9896,-2.9896,-2.9896,-2.9896,-2.9896,-2.9896,-2.9896,-2.9896,-2.9896,-2.9896,-2.9896,-2.9896,-2.9924,-2.9995,-3.0727,-3.1108,-3.1124,-3.1994,-3.2338,-1.2959,-1.2385,-1.1948,-1.1358,-1.0352,0.0,0.0,-0.9507,-0.8722,-0.8806,-0.8065,-0.7181,-0.6477,-0.6031,-0.5691,-0.5441,-0.5347,-0.5241,-0.5195,-0.5555,-0.5914,-0.617,-0.7391,-0.8351,-0.8661,-0.9425,-0.9884,-0.9884,-0.9884,-1.0143,-1.0775,-1.1515,-1.2211,-1.2813,-1.376,-1.4244,-1.4202,-1.5634,-1.6502,-1.6809,-1.8355,-1.9108,-1.9108,-1.9108,-1.9231,-1.9528,-2.0193,-2.0901,-2.1659,-2.2586,-2.3275,-2.376,-2.3995,-2.4083,-2.4083,-2.4083,-2.4083,-2.42,-2.4778,-2.5132,-2.5453,-2.6404,-2.6893,-2.7203,-2.7715,-2.798,-2.8012,-2.773,-2.7841,-2.8027,-2.8027,-2.7396,-2.6811,-2.698,-2.6688,-2.6195,-2.545,-2.5296,-2.5118,-2.4544,-2.4589,-2.4846,-2.5064,-2.5275,-2.5754,-2.6762,-2.6798,-2.717,-2.8519,-2.8762,-2.8989,-2.9443,-2.9718,-2.9896,-2.9896,-2.9896,-2.9896,-2.9896,-2.9896,-2.9896,-2.9896,-2.9896,-2.9896,-2.9896,-2.9896,-2.9902,-2.9946,-3.0222,-3.0352,-3.0368,-3.1121,-3.1782,-1.2746,-1.2114,-1.1639,-1.1455,0.0,0.0,-0.9014,-0.8434,-0.7915,-0.7905,-0.7489,-0.6863,-0.5984,-0.5769,-0.5639,-0.5403,-0.5227,-0.5132,-0.5132,-0.5529,-0.6012,-0.6546,-0.7621,-0.8504,-0.9046,-0.9576,-0.9884,-0.9884,-1.0067,-1.0368,-1.0775,-1.1558,-1.215,-1.2599,-1.3338,-1.3719,-1.3588,-1.4995,-1.5797,-1.5975,-1.7757,-1.8798,-1.9108,-1.9108,-1.9108,-1.9131,-1.9813,-2.0484,-2.1155,-2.2144,-2.2992,-2.3717,-2.3995,-2.4083,-2.4083,-2.4083,-2.4083,-2.4171,-2.4563,-2.4835,-2.5146,-2.5892,-2.6404,-2.6814,-2.7357,-2.765,-2.7765,-2.7588,-2.7514,-2.7629,-2.8003,-2.7242,-2.6441,-2.6688,-2.6226,-2.5595,-2.5081,-2.4973,-2.4835,-2.4394,-2.4467,-2.465,-2.4846,-2.5278,-2.5994,-2.7098,-2.7324,-2.7883,-2.9362,-2.9313,-2.9345,-2.9848,-2.9896,-2.9896,-2.9896,-2.9896,-2.9896,-2.9896,-2.9896,-2.9896,-2.9896,-2.9896,-2.9896,-2.9896,-2.9896,-2.9896,-2.9896,-2.9896,-2.9896,-2.9896,-3.036,-3.1089,-1.1929,-1.1706,-1.1515,0.0,0.0,0.0,-0.8161,-0.7022,-0.661,-0.7668,-0.7023,-0.6219,-0.5941,-0.575,-0.5521,-0.5321,-0.5132,-0.5018,-0.5018,-0.5018,-0.5631,-0.731,-0.7498,-0.8147,-0.9722,-0.9879,-0.9879,-0.9879,-1.0432,-1.0807,-1.0807,-1.1922,-1.2592,-1.2592,-1.2849,-1.3169,-1.3573,-1.4524,-1.4983,-1.5015,-1.6762,-1.813,-1.9088,-1.9088,-1.9088,-1.9121,-1.9802,-2.0473,-2.1144,-2.2021,-2.3005,-2.392,-2.4067,-2.4083,-2.4083,-2.4083,-2.4083,-2.4083,-2.4083,-2.4476,-2.4977,-2.5005,-2.5756,-2.6695,-2.6849,-2.7111,-2.7488,-2.8024,-2.6988,-2.5968,-2.7079,-2.6872,-2.6195,-2.5465,-2.4773,-2.4302,-2.4302,-2.4302,-2.4302,-2.4302,-2.4467,-2.4609,-2.4609,-2.5543,-2.6286,-2.6302,-2.7727,-2.8773,-2.8806,-2.9443,-2.9896,-2.9896,-2.9896,-2.9896,-2.9896,-2.9896,-2.9896,-2.9896,-2.9896,-2.9896,-2.9896,-2.9896,-2.9896,-2.9896,-2.9896,-2.9896,-2.9896,-2.9896,-2.9896,-2.9896,-2.9896,-3.0336,-1.2335,-1.2114,-1.204,-1.1663,0.0,0.0,0.0,-0.7974,0.0,0.0,-0.6521,-0.6219,-0.5941,-0.5864,-0.575,-0.5556,-0.5323,-0.5207,-0.5207,-0.5589,-0.6203,-0.7106,-0.7724,-0.8411,-0.9324,-0.9416,-0.9416,-0.9416,-0.9559,-1.0023,-1.0845,-1.1198,-1.176,-1.2492,-1.2613,-1.2589,-1.2487,-1.3274,-1.4032,-1.4719,-1.5762,-1.6741,-1.7647,-1.7954,-1.8133,-1.8133,-1.8312,-1.8985,-2.0046,-2.1791,-2.3083,-2.392,-2.4067,-2.4083,-2.4083,-2.4083,-2.4083,-2.4083,-2.4083,-2.4229,-2.4447,-2.4863,-2.5216,-2.5619,-2.6283,-2.6324,-2.6108,-2.5977,-2.5684,-2.544,-2.5531,-2.5424,-2.5294,-2.5299,-2.4773,-2.4302,-2.4302,-2.4302,-2.4302,-2.4302,-2.4343,-2.4426,-2.4569,-2.5044,-2.5779,-2.6894,-2.763,-2.8401,-2.9443,-2.9751,-2.9896,-2.9896,-2.9896,-2.9896,-2.9896,-2.9896,-2.9896,-2.9896,-2.9896,-2.9896,-2.9896,-2.9896,-2.9896,-2.9896,-2.9896,-2.9896,-2.9896,-2.9896,-2.9896,-2.9896,-2.9896,-3.0336,-1.2922,-1.2556,0.0,-1.215,-1.1694,-1.0944,-0.9599,-0.8199,-0.6984,-0.6416,-0.63,-0.6261,-0.6099,-0.598,-0.5864,-0.575,-0.5476,-0.5282,-0.5282,-0.5736,-0.6345,-0.7031,-0.7756,-0.8458,-0.9146,-0.9206,-0.9206,-0.9206,-0.941,-0.9863,-1.0563,-1.1018,-1.1539,-1.2187,-1.226,-1.22,-1.2003,-1.2588,-1.3195,-1.3774,-1.4899,-1.5667,-1.6191,-1.7215,-1.7699,-1.7699,-1.7986,-1.8615,-1.9593,-2.1326,-2.2569,-2.3483,-2.3673,-2.3731,-2.3757,-2.3992,-2.3939,-2.377,-2.4005,-2.4083,-2.4171,-2.4534,-2.4806,-2.5118,-2.5742,-2.5655,-2.532,-2.5373,-2.5029,-2.4664,-2.4611,-2.4492,-2.4554,-2.517,-2.4773,-2.4302,-2.4302,-2.4302,-2.4302,-2.4302,-2.4302,-2.4343,-2.4467,-2.4925,-2.5694,-2.6947,-2.786,-2.8672,-2.9356,-2.9718,-2.9783,-2.9491,-2.9718,-2.9896,-2.9896,-2.9896,-2.9896,-2.9896,-2.9896,-2.9896,-2.9896,-2.9896,-2.9896,-2.9896,-2.9896,-2.9896,-2.9896,-2.9896,-2.9896,-2.9896,-2.9896,-3.0173,-1.3463,-1.2936,-1.2415,-1.2368,-1.2133,-1.1477,-0.982,-0.8046,-0.6676,-0.6374,-0.63,-0.63,-0.63,-0.6099,-0.5941,-0.5941,-0.5592,-0.5359,-0.5321,-0.5676,-0.6257,-0.6999,-0.7614,-0.8303,-0.9077,-0.9141,-0.9141,-0.9141,-0.9656,-0.9995,-1.0099,-1.107,-1.1662,-1.177,-1.189,-1.1959,-1.1959,-1.2322,-1.2522,-1.2544,-1.4114,-1.4869,-1.498,-1.6769,-1.7575,-1.7616,-1.8246,-1.8877,-1.9551,-2.0497,-2.1599,-2.2677,-2.292,-2.3089,-2.3197,-2.3731,-2.3613,-2.3274,-2.3822,-2.4044,-2.4083,-2.4083,-2.4476,-2.4977,-2.5245,-2.5051,-2.4892,-2.5586,-2.4713,-2.3649,-2.4053,-2.3926,-2.3932,-2.49,-2.4685,-2.4302,-2.4302,-2.4302,-2.4302,-2.4302,-2.4302,-2.4302,-2.4302,-2.5035,-2.5873,-2.6645,-2.8269,-2.9261,-2.8849,-2.9394,-2.954,-2.8876,-2.9394,-2.9815,-2.988,-2.9896,-2.9896,-2.9896,-2.9896,-2.9896,-2.9896,-2.9896,-2.9896,-2.9896,-2.9896,-2.9896,-2.9896,-2.9896,-2.9896,-2.9896,-2.9896,-2.9924,-1.3217,-1.3105,0.0,-1.278,-1.1985,-1.1143,-1.0602,-0.921,-0.774,-0.6753,-0.6412,-0.63,-0.63,-0.6261,-0.6219,-0.6219,-0.5983,-0.5709,-0.5556,-0.6073,-0.6568,-0.6817,-0.7535,-0.8156,-0.86,-0.8662,-0.8662,-0.8662,-0.8761,-0.9177,-0.9973,-1.0264,-1.076,-1.1613,-1.1668,-1.1694,-1.1694,-1.1757,-1.2119,-1.2742,-1.3366,-1.4183,-1.5186,-1.6222,-1.6674,-1.6724,-1.7174,-1.7755,-1.848,-1.9172,-2.0251,-2.1487,-2.1644,-2.2063,-2.2597,-2.2727,-2.2934,-2.3208,-2.3339,-2.3691,-2.4083,-2.4083,-2.42,-2.4332,-2.4609,-2.4136,-2.3587,-2.4005,-2.3336,-2.2615,-2.2956,-2.2991,-2.3075,-2.3592,-2.4016,-2.4302,-2.4302,-2.4302,-2.4302,-2.4302,-2.4302,-2.4302,-2.4302,-2.4591,-2.5393,-2.6999,-2.8105,-2.8747,-2.8785,-2.894,-2.8989,-2.8827,-2.894,-2.9264,-2.9848,-2.9896,-2.9896,-2.9896,-2.9896,-2.9896,-2.9896,-2.9896,-2.9896,-2.9896,-2.9896,-2.9896,-2.9896,-2.9896,-2.9896,-2.9896,-2.9896,-2.9902,-1.3844,0.0,0.0,-1.2716,-1.212,-1.1552,-1.1062,-1.0228,-0.9243,-0.8232,-0.7173,-0.6412,-0.6338,-0.63,-0.63,-0.63,-0.604,-0.5876,-0.6142,-0.6466,-0.6876,-0.7411,-0.802,-0.8499,-0.8672,-0.8678,-0.8635,-0.8522,-0.8738,-0.9113,-0.9646,-1.0123,-1.0636,-1.1216,-1.1466,-1.1591,-1.1591,-1.1591,-1.1895,-1.2474,-1.3025,-1.3923,-1.5089,-1.599,-1.6413,-1.6423,-1.6622,-1.7082,-1.7691,-1.8087,-1.908,-2.0402,-2.0529,-2.1026,-2.1714,-2.1971,-2.2197,-2.2439,-2.2714,-2.3014,-2.3276,-2.3302,-2.3302,-2.3345,-2.3613,-2.3138,-2.2625,-2.3036,-2.2623,-2.2077,-2.2379,-2.2595,-2.2754,-2.2957,-2.3566,-2.4051,-2.4051,-2.4177,-2.4302,-2.4302,-2.4302,-2.4302,-2.4302,-2.4663,-2.5342,-2.6544,-2.7323,-2.7897,-2.823,-2.8579,-2.8811,-2.8811,-2.9119,-2.9475,-2.9864,-2.9896,-2.9896,-2.9896,-2.9896,-2.9896,-2.9896,-2.9896,-2.9896,-2.9896,-2.9896,-2.9896,-2.9896,-2.9896,-2.9896,-2.9896,-2.9896,-2.9896,-1.4529,0.0,-1.3382,-1.268,-1.2409,-1.212,-1.1446,-1.1062,-1.064,-0.997,-0.8194,-0.6791,-0.6756,-0.6606,-0.6521,-0.6643,-0.6369,-0.6341,-0.6869,-0.7049,-0.7389,-0.8065,-0.8627,-0.8929,-0.8895,-0.8895,-0.8814,-0.8592,-0.8988,-0.9256,-0.9306,-1.0161,-1.0706,-1.0807,-1.131,-1.1591,-1.1591,-1.1591,-1.1747,-1.2027,-1.2903,-1.3782,-1.4745,-1.5691,-1.6202,-1.6288,-1.6345,-1.6637,-1.7073,-1.7196,-1.8041,-1.931,-1.9436,-1.9939,-2.0697,-2.1207,-2.1386,-2.1472,-2.2047,-2.231,-2.2388,-2.2387,-2.24,-2.2427,-2.2657,-2.2352,-2.2001,-2.2506,-2.2238,-2.1864,-2.2137,-2.2426,-2.2603,-2.2603,-2.3135,-2.3653,-2.376,-2.403,-2.4219,-2.4281,-2.4302,-2.4281,-2.4219,-2.4722,-2.5329,-2.5894,-2.6467,-2.6999,-2.7466,-2.8061,-2.8466,-2.8595,-2.9167,-2.9621,-2.988,-2.9896,-2.9896,-2.9896,-2.9896,-2.9896,-2.9896,-2.9896,-2.9896,-2.9896,-2.9896,-2.9896,-2.9896,-2.9896,-2.9896,-2.9896,-2.9896,-2.9896,-1.4274,0.0,-1.3769,0.0,-1.2813,-1.2268,-1.2157,-1.1589,-1.0993,-1.0714,-0.9021,-0.7859,-0.8504,-0.7936,-0.7507,-0.7967,-0.7987,-0.7838,-0.7534,-0.8101,-0.8394,-0.7991,-0.8596,-0.9024,-0.8895,-0.8895,-0.8884,-0.8852,-0.8913,-0.9053,-0.9285,-0.9805,-1.0313,-1.08,-1.131,-1.1591,-1.1591,-1.1591,-1.1622,-1.1685,-1.2781,-1.3511,-1.3902,-1.4706,-1.5342,-1.5827,-1.623,-1.6431,-1.6516,-1.6545,-1.7149,-1.8137,-1.8164,-1.8762,-1.9662,-2.0064,-2.055,-2.1038,-2.1459,-2.1969,-2.2388,-2.2388,-2.2414,-2.24,-2.2455,-2.2194,-2.1963,-2.228,-2.2092,-2.1864,-2.2137,-2.2217,-2.2278,-2.2278,-2.2549,-2.3024,-2.3653,-2.3839,-2.3946,-2.424,-2.4302,-2.4198,-2.3925,-2.4191,-2.4787,-2.5852,-2.6088,-2.6316,-2.6771,-2.6911,-2.7203,-2.7786,-2.7948,-2.8498,-2.9783,-2.9896,-2.9896,-2.9896,-2.9896,-2.9896,-2.9896,-2.9896,-2.9896,-2.9896,-2.9896,-2.9896,-2.9896,-2.9896,-2.9896,-2.9896,-2.9896,-2.9896,-1.4973,-1.4948,-1.4836,0.0,-1.3528,-1.2952,-1.2952,-1.2335,-1.1744,-1.1657,-1.049,-0.9362,-0.9074,-0.8623,-0.8326,-0.83,-0.8242,-0.8129,-0.801,-0.827,-0.8497,-0.8624,-0.8998,-0.9187,-0.9024,-0.8909,-0.8739,-0.8538,-0.8752,-0.8957,-0.9068,-0.9655,-1.0117,-1.0345,-1.0566,-1.0856,-1.1153,-1.0856,-1.0951,-1.1428,-1.239,-1.2995,-1.3338,-1.4151,-1.4931,-1.5701,-1.5914,-1.6144,-1.6413,-1.6413,-1.6846,-1.7562,-1.7523,-1.8154,-1.909,-1.9251,-1.9779,-2.0423,-2.0617,-2.0992,-2.1459,-2.1459,-2.1446,-2.1446,-2.1459,-2.1327,-2.1293,-2.1693,-2.1686,-2.1688,-2.2091,-2.2208,-2.2208,-2.2208,-2.231,-2.2549,-2.3068,-2.337,-2.3625,-2.3952,-2.403,-2.403,-2.4073,-2.4198,-2.4555,-2.5316,-2.5444,-2.5727,-2.6597,-2.6701,-2.7122,-2.819,-2.832,-2.8741,-2.9799,-2.9896,-2.9896,-2.9896,-2.9896,-2.9896,-2.9896,-2.9896,-2.9896,-2.9896,-2.9896,-2.9896,-2.9896,-2.9896,-2.9896,-2.9896,-2.9896,-2.9896,0.0,0.0,-1.5657,-1.5037,-1.435,-1.3709,-1.3535,-1.3171,-1.2769,-1.2372,-1.1879,-1.1118,-0.9976,-0.9528,-0.921,-0.8922,-0.87,-0.8538,-0.8506,-0.8419,-0.8524,-0.9067,-0.9215,-0.9222,-0.9086,-0.8935,-0.8697,-0.8296,-0.8671,-0.8917,-0.8892,-0.9531,-0.992,-0.9983,-0.9983,-1.018,-1.0573,-1.0212,-1.0401,-1.1178,-1.195,-1.2513,-1.2889,-1.367,-1.4517,-1.5323,-1.5585,-1.5914,-1.623,-1.6355,-1.6744,-1.7267,-1.7228,-1.7772,-1.8637,-1.8771,-1.9172,-1.9721,-1.9914,-2.0245,-2.0536,-2.0649,-2.0699,-2.0699,-2.0699,-2.0699,-2.0799,-2.1277,-2.1399,-2.152,-2.2067,-2.2208,-2.2208,-2.2208,-2.2208,-2.2287,-2.264,-2.3016,-2.3326,-2.3501,-2.3674,-2.3861,-2.403,-2.4177,-2.4426,-2.4846,-2.4966,-2.533,-2.6228,-2.6406,-2.696,-2.8369,-2.8514,-2.8892,-2.9815,-2.9896,-2.9896,-2.9896,-2.9896,-2.9896,-2.9896,-2.9896,-2.9896,-2.9896,-2.9896,-2.9896,-2.9896,-2.9896,-2.9896,-2.9896,-2.9896,-2.9896,0.0,-1.5798,0.0,-1.5762,-1.5144,-1.435,-1.368,-1.3998,-1.4063,-1.2592,-1.2879,-1.3055,-1.2033,-1.0925,-1.0211,-1.0429,-1.0094,-0.964,-0.9129,-0.8842,-0.8723,-0.8886,-0.8921,-0.8933,-0.9017,-0.8996,-0.8824,-0.8432,-0.8763,-0.8972,-0.8892,-0.9371,-0.9736,-0.9977,-0.9983,-1.0021,-1.0053,-1.0021,-1.0281,-1.0839,-1.15,-1.2089,-1.2544,-1.3238,-1.3821,-1.4339,-1.5293,-1.5701,-1.5769,-1.623,-1.6733,-1.719,-1.719,-1.7579,-1.8193,-1.8637,-1.8825,-1.8972,-1.9747,-2.0016,-2.0105,-2.0574,-2.0699,-2.0699,-2.0699,-2.0699,-2.0799,-2.1277,-2.1399,-2.152,-2.2067,-2.2208,-2.2208,-2.2208,-2.2208,-2.2287,-2.264,-2.3016,-2.3194,-2.2822,-2.3312,-2.3696,-2.3407,-2.3882,-2.4364,-2.4589,-2.4846,-2.508,-2.5342,-2.5551,-2.6196,-2.7624,-2.7769,-2.8336,-2.9767,-2.9896,-2.9896,-2.9896,-2.9896,-2.9896,-2.9896,-2.9896,-2.9896,-2.9896,-2.9896,-2.9896,-2.9896,-2.9896,-2.9896,-2.9896,-2.9896,-2.9896,-1.6004,0.0,0.0,-1.6077,-1.5549,-1.4977,-1.4988,-1.4788,-1.4422,-1.3882,-1.3991,-1.4099,-1.3738,-1.2395,-1.1174,-1.0563,-1.033,-1.0014,-0.9389,-0.9063,-0.8943,-0.9071,-0.8893,-0.8741,-0.8683,-0.886,-0.9,-0.8968,-0.8803,-0.8779,-0.9009,-0.8669,-0.8575,-0.8822,-0.8859,-0.8908,-0.9049,-1.0034,-1.0288,-0.9843,-1.1476,-1.2189,-1.2089,-1.3047,-1.3601,-1.3782,-1.4449,-1.4902,-1.5225,-1.5507,-1.6075,-1.6747,-1.6888,-1.7429,-1.8111,-1.8286,-1.8545,-1.8851,-1.9119,-1.9408,-1.9682,-2.0105,-2.0232,-2.0321,-2.0599,-2.0799,-2.0972,-2.1302,-2.152,-2.1722,-2.2114,-2.2208,-2.2208,-2.2208,-2.2208,-2.2217,-2.2356,-2.2495,-2.2609,-2.2686,-2.2897,-2.3135,-2.3275,-2.3689,-2.4051,-2.4245,-2.4369,-2.4614,-2.522,-2.513,-2.5556,-2.6904,-2.7446,-2.8109,-2.9119,-2.9621,-2.9896,-2.9896,-2.9896,-2.9896,-2.9896,-2.9896,-2.9896,-2.9896,-2.9896,-2.9896,-2.9896,-2.9896,-2.9896,-2.9896,-2.9896,-2.9896,-1.6005,-1.59,-1.579,-1.6211,-1.5835,-1.5459,-1.5713,-1.5484,-1.5066,-1.4684,-1.4816,-1.4931,-1.4637,-1.354,-1.238,-1.1505,-1.1042,-1.0609,-1.02,-0.9858,-0.9655,-0.9618,-0.9541,-0.9267,-0.8634,-0.925,-0.9484,-0.8924,-0.9007,-0.9061,-0.9007,-0.844,-0.8143,-0.8202,-0.8257,-0.8382,-0.8511,-0.9504,-0.9786,-0.9306,-1.0905,-1.1717,-1.1834,-1.2765,-1.329,-1.3511,-1.3821,-1.424,-1.4686,-1.4971,-1.5546,-1.6226,-1.6567,-1.714,-1.7815,-1.803,-1.8313,-1.8583,-1.8744,-1.8972,-1.9263,-1.9682,-1.9901,-2.0055,-2.0372,-2.0711,-2.1057,-2.1326,-2.1592,-2.1864,-2.2137,-2.2208,-2.2208,-2.2208,-2.2208,-2.2208,-2.2208,-2.2208,-2.2278,-2.248,-2.2603,-2.2777,-2.3061,-2.348,-2.3861,-2.3973,-2.4057,-2.4369,-2.5103,-2.4918,-2.5155,-2.6334,-2.7009,-2.7595,-2.8184,-2.879,-2.9264,-2.9524,-2.9524,-2.9637,-2.988,-2.9896,-2.9896,-2.9896,-2.9896,-2.9896,-2.9896,-2.9896,-2.9896,-2.9896,-2.9896,-2.9896,0.0,0.0,0.0,-1.6184,-1.5973,-1.5709,-1.5774,-1.6048,-1.5956,-1.4877,-1.5278,-1.5561,-1.4807,-1.4315,-1.3871,-1.3416,-1.2317,-1.1564,-1.16,-1.1262,-1.0862,-1.049,-1.0817,-1.0495,-0.8904,-1.0203,-1.031,-0.8357,-0.9462,-0.9824,-0.8904,-0.8751,-0.8538,-0.8202,-0.8388,-0.8517,-0.8517,-0.8511,-0.877,-0.9306,-0.9799,-1.064,-1.1803,-1.2258,-1.2848,-1.3511,-1.348,-1.3731,-1.4219,-1.4686,-1.5138,-1.5642,-1.6226,-1.6765,-1.7257,-1.7854,-1.8084,-1.8166,-1.861,-1.8771,-1.8851,-1.9237,-1.9656,-1.9965,-1.9965,-2.0434,-2.1033,-2.1302,-2.1578,-2.1864,-2.2137,-2.2208,-2.2208,-2.2208,-2.2208,-2.2208,-2.2208,-2.2208,-2.2208,-2.2208,-2.2457,-2.2686,-2.2686,-2.329,-2.3775,-2.3775,-2.3931,-2.4287,-2.4886,-2.4784,-2.4999,-2.5851,-2.6379,-2.6764,-2.7031,-2.7462,-2.7976,-2.8709,-2.8778,-2.9086,-2.9799,-2.9848,-2.9864,-2.9864,-2.988,-2.988,-2.9864,-2.988,-2.988,-2.9864,-2.9848,-2.9848,-1.546,0.0,0.0,0.0,0.0,0.0,-1.5671,-1.5805,-1.5842,-1.5836,-1.6027,-1.6095,-1.5882,-1.5309,-1.4824,-1.4629,-1.3271,-1.2203,-1.2118,-1.1619,-1.137,-1.1598,-1.1279,-1.084,-1.0408,-1.1033,-1.1339,-1.101,-1.0588,-1.0328,-1.0317,-0.9144,-0.8429,-0.8342,-0.8457,-0.8517,-0.8517,-0.8894,-0.9022,-0.8958,-1.0053,-1.0892,-1.1454,-1.1671,-1.242,-1.3472,-1.2978,-1.313,-1.3731,-1.4001,-1.449,-1.5119,-1.5449,-1.6216,-1.723,-1.7379,-1.7733,-1.8111,-1.8247,-1.8275,-1.8367,-1.8825,-1.9025,-1.9198,-1.9486,-2.0016,-2.0623,-2.0883,-2.1372,-2.1864,-2.2137,-2.2208,-2.2208,-2.2208,-2.2208,-2.2208,-2.2208,-2.2208,-2.2208,-2.2208,-2.2263,-2.2333,-2.2333,-2.2709,-2.2987,-2.2987,-2.3054,-2.3341,-2.4036,-2.3837,-2.3903,-2.4694,-2.5311,-2.5853,-2.6271,-2.6888,-2.748,-2.7976,-2.7996,-2.8093,-2.8304,-2.8827,-2.9102,-2.9102,-2.9621,-2.9637,-2.9119,-2.9637,-2.9621,-2.9102,-2.8547,-2.8579,-1.5322,-1.4983,-1.4891,-1.5056,0.0,0.0,-1.556,-1.556,-1.556,-1.5973,-1.6056,-1.6056,-1.6056,-1.5549,-1.5159,-1.5113,-1.4096,-1.3327,-1.3237,-1.288,-1.2621,-1.2592,-1.239,-1.1977,-1.1307,-1.201,-1.2364,-1.2052,-1.1576,-1.1041,-1.0509,-0.9224,-0.8373,-0.8089,-0.8419,-0.8511,-0.8284,-0.8829,-0.9022,-0.8894,-0.9773,-1.0426,-1.0899,-1.1024,-1.1803,-1.307,-1.2665,-1.2887,-1.3511,-1.3731,-1.4082,-1.4579,-1.5021,-1.5709,-1.6472,-1.6726,-1.7213,-1.7733,-1.7733,-1.7881,-1.815,-1.841,-1.8637,-1.8851,-1.909,-1.9746,-2.0472,-2.0734,-2.1372,-2.1996,-2.2161,-2.2208,-2.2208,-2.2208,-2.2208,-2.2208,-2.2208,-2.2208,-2.2208,-2.2208,-2.2208,-2.2208,-2.2208,-2.2495,-2.2694,-2.2694,-2.2694,-2.2957,-2.3631,-2.3406,-2.3384,-2.3873,-2.4499,-2.4898,-2.4988,-2.5733,-2.6406,-2.6956,-2.7167,-2.7413,-2.7688,-2.8109,-2.8336,-2.8336,-2.8757,-2.8778,-2.8336,-2.9086,-2.907,-2.832,-2.7899,-2.8093,-1.546,-1.4983,-1.4772,-1.5038,-1.4873,0.0,-1.5414,-1.5322,-1.5203,-1.5551,-1.5625,-1.5625,-1.5625,-1.5331,-1.5084,-1.5038,-1.4744,-1.4515,-1.4515,-1.4396,-1.4109,-1.3489,-1.3791,-1.3472,-1.2053,-1.3109,-1.3402,-1.222,-1.2297,-1.1699,-1.0062,-0.9211,-0.8437,-0.7705,-0.8361,-0.8474,-0.8019,-0.8474,-0.8829,-0.9049,-0.921,-0.9652,-1.0307,-1.0383,-1.1132,-1.2381,-1.2381,-1.2787,-1.345,-1.37,-1.389,-1.407,-1.4824,-1.5206,-1.5468,-1.5997,-1.6613,-1.7202,-1.7202,-1.7611,-1.8084,-1.8084,-1.8383,-1.8718,-1.8718,-1.9434,-2.0296,-2.0696,-2.1492,-2.2208,-2.2208,-2.2208,-2.2208,-2.2208,-2.2208,-2.2208,-2.2208,-2.2208,-2.2208,-2.2208,-2.2208,-2.2208,-2.2208,-2.2434,-2.264,-2.264,-2.264,-2.2844,-2.3399,-2.3253,-2.3165,-2.3312,-2.3803,-2.3988,-2.3616,-2.4318,-2.5091,-2.5844,-2.6266,-2.6791,-2.7446,-2.7559,-2.7591,-2.7591,-2.7591,-2.7591,-2.7591,-2.8239,-2.8223,-2.7591,-2.751,-2.7899,-1.626,-1.6028,-1.5826,-1.5239,-1.5285,0.0,-1.4854,-1.4928,-1.512,-1.5194,-1.5212,-1.5212,-1.5212,-1.5157,-1.5001,-1.468,-1.4561,-1.4515,-1.4515,-1.4485,-1.4417,-1.4297,-1.4267,-1.4112,-1.3784,-1.4179,-1.4215,-1.3627,-1.2543,-1.1471,-1.043,-0.961,-0.8847,-0.8099,-0.8124,-0.8117,-0.7987,-0.8117,-0.8538,-0.9242,-0.9274,-0.9716,-1.0453,-0.9919,-1.044,-1.1703,-1.1703,-1.2166,-1.2986,-1.367,-1.398,-1.404,-1.4348,-1.4834,-1.541,-1.5517,-1.6244,-1.7202,-1.7202,-1.7611,-1.8084,-1.8084,-1.8166,-1.8247,-1.8247,-1.8652,-1.9356,-2.0472,-2.1492,-2.2208,-2.2208,-2.2208,-2.2208,-2.2208,-2.2208,-2.2208,-2.2208,-2.2208,-2.2208,-2.2208,-2.2208,-2.2208,-2.2208,-2.224,-2.2287,-2.2287,-2.2287,-2.2379,-2.2623,-2.2586,-2.2646,-2.288,-2.3029,-2.3238,-2.3573,-2.3767,-2.4213,-2.5052,-2.5203,-2.5479,-2.6002,-2.6587,-2.6895,-2.6895,-2.6895,-2.6895,-2.6895,-2.7041,-2.7041,-2.6879,-2.6296,-2.6681,-1.6553,-1.6288,-1.612,-1.5304,-1.5249,0.0,0.0,-1.4671,-1.4808,-1.4808,-1.4808,-1.4808,-1.4808,-1.4808,-1.4826,-1.494,-1.4714,-1.4704,-1.5303,-1.4882,-1.4515,-1.4515,-1.4704,-1.4809,-1.472,-1.4986,-1.4952,-1.4333,-1.3091,-1.1988,-1.1178,-1.004,-0.892,-0.7842,-0.8009,-0.7814,-0.7223,-0.7461,-0.8047,-0.8914,-0.8914,-0.93,-0.9983,-0.9638,-1.004,-1.1,-1.1,-1.1679,-1.2826,-1.3321,-1.3761,-1.4169,-1.4327,-1.4625,-1.4961,-1.4961,-1.5526,-1.6368,-1.6641,-1.7157,-1.7705,-1.7991,-1.8084,-1.8084,-1.8084,-1.856,-1.9344,-2.0472,-2.1275,-2.1864,-2.2137,-2.2208,-2.2208,-2.2208,-2.2208,-2.2208,-2.2208,-2.2208,-2.2208,-2.2208,-2.2208,-2.2208,-2.2208,-2.2208,-2.2208,-2.2208,-2.2208,-2.2231,-2.2301,-2.2417,-2.2546,-2.2689,-2.2803,-2.297,-2.3231,-2.348,-2.3894,-2.4558,-2.4799,-2.5111,-2.5578,-2.5937,-2.615,-2.615,-2.615,-2.615,-2.615,-2.615,-2.615,-2.615,-2.5759,-2.6341,-1.6807,-1.6431,-1.6138,-1.5395,-1.5212,-1.5093,0.0,0.0,0.0,-1.4533,-1.4595,-1.4675,-1.4675,-1.4675,-1.4872,-1.5468,-1.5098,-1.5069,-1.614,-1.5497,-1.4902,-1.4843,-1.5079,-1.5203,-1.516,-1.5392,-1.5317,-1.48,-1.3664,-1.268,-1.1985,-1.0536,-0.9043,-0.7517,-0.7842,-0.7512,-0.64,-0.6835,-0.7456,-0.8296,-0.8425,-0.8786,-0.9318,-0.9446,-0.9798,-1.0295,-1.0453,-1.1257,-1.2481,-1.2848,-1.345,-1.4178,-1.4417,-1.4515,-1.4515,-1.4515,-1.4882,-1.5497,-1.6083,-1.6698,-1.7285,-1.7909,-1.8084,-1.8084,-1.8084,-1.8682,-1.9553,-2.0434,-2.1006,-2.1482,-2.2053,-2.2208,-2.2208,-2.2208,-2.2208,-2.2208,-2.2208,-2.2208,-2.2208,-2.2208,-2.2208,-2.2208,-2.2208,-2.2208,-2.2208,-2.2208,-2.2208,-2.2208,-2.2208,-2.2417,-2.2555,-2.2615,-2.2775,-2.288,-2.2888,-2.3253,-2.3674,-2.4135,-2.4558,-2.4993,-2.5448,-2.5543,-2.5597,-2.5597,-2.5597,-2.5559,-2.5467,-2.5559,-2.5597,-2.5597,-2.5597,-2.6341,-1.7394,-1.6853,-1.6178,-1.5735,-1.5625,-1.5423,-1.468,0.0,-1.4937,-1.4579,0.0,-1.5303,-1.5303,0.0,0.0,-1.6112,-1.5786,-1.5671,-1.6226,-1.6386,-1.6358,-1.6112,-1.5216,-1.4812,-1.5312,-1.4918,-1.4864,-1.5369,-1.4084,-1.3054,-1.2526,-1.133,-0.9723,-0.7739,-0.7544,-0.7153,-0.64,-0.6465,-0.6826,-0.7549,-0.8199,-0.8554,-0.8619,-0.9215,-0.9548,-0.9638,-1.0231,-1.0755,-1.1298,-1.2512,-1.323,-1.3662,-1.4258,-1.4515,-1.4515,-1.4515,-1.4882,-1.5497,-1.6083,-1.6698,-1.7285,-1.7909,-1.8084,-1.8084,-1.8084,-1.864,-1.9357,-2.0055,-2.0733,-2.1382,-2.203,-2.2208,-2.2208,-2.2208,-2.2208,-2.2208,-2.2208,-2.2208,-2.2208,-2.2208,-2.2208,-2.2208,-2.2208,-2.2208,-2.2208,-2.2208,-2.2208,-2.2208,-2.2208,-2.2324,-2.2463,-2.2592,-2.2735,-2.2841,-2.2888,-2.2955,-2.3187,-2.3653,-2.4099,-2.4553,-2.4962,-2.5375,-2.5597,-2.5597,-2.5597,-2.5394,-2.4977,-2.5394,-2.5597,-2.5597,-2.5597,-2.6341,-1.7284,-1.6908,-1.6505,-1.5854,-1.5515,-1.5203,-1.4643,-1.4643,-1.4708,-1.4543,0.0,0.0,0.0,0.0,0.0,0.0,-1.6546,-1.6574,-1.7506,-1.7118,-1.6631,-1.6454,-1.6283,-1.6224,-1.6264,-1.6247,-1.5965,-1.5309,-1.4805,-1.3913,-1.25,-1.1684,-1.0341,-0.8355,-0.8188,-0.7767,-0.699,-0.699,-0.7349,-0.8032,-0.8361,-0.8721,-0.9087,-0.9382,-0.9516,-0.9516,-0.9798,-1.032,-1.108,-1.2043,-1.2848,-1.3571,-1.4228,-1.4515,-1.4515,-1.4515,-1.4654,-1.4961,-1.5584,-1.6159,-1.6838,-1.7799,-1.8084,-1.8084,-1.8084,-1.841,-1.8854,-1.9449,-2.0156,-2.0881,-2.1479,-2.1898,-2.2208,-2.2208,-2.2208,-2.2208,-2.2208,-2.2208,-2.2208,-2.2208,-2.2208,-2.2208,-2.2208,-2.2208,-2.2208,-2.2208,-2.2208,-2.2208,-2.2208,-2.2324,-2.2417,-2.2486,-2.2666,-2.2795,-2.2826,-2.288,-2.3098,-2.3573,-2.4036,-2.4385,-2.4538,-2.4751,-2.4846,-2.4846,-2.4846,-2.4751,-2.4553,-2.4993,-2.5188,-2.5188,-2.547,-2.6147,-1.6872,-1.6661,-1.6431,-1.5835,-1.5395,-1.5001,-1.4607,-1.4515,-1.4565,-1.4754,-1.5371,0.0,0.0,0.0,-1.7146,-1.7655,0.0,-1.7396,-1.8441,-1.7875,-1.7285,-1.7101,-1.7268,-1.7231,-1.6815,-1.7009,-1.6697,-1.5601,-1.5544,-1.4862,-1.3218,-1.2447,-1.1238,-0.939,-0.9068,-0.8481,-0.7503,-0.7503,-0.7733,-0.8199,-0.8393,-0.8753,-0.9215,-0.942,-0.9516,-0.9516,-0.9516,-0.9977,-1.0804,-1.164,-1.2481,-1.3321,-1.4169,-1.4515,-1.4515,-1.4515,-1.4515,-1.4595,-1.5186,-1.5911,-1.6726,-1.776,-1.8084,-1.8084,-1.8084,-1.8193,-1.8437,-1.9028,-1.9657,-2.0295,-2.1004,-2.1589,-2.202,-2.2184,-2.2208,-2.2208,-2.2208,-2.2208,-2.2208,-2.2208,-2.2208,-2.2208,-2.2208,-2.2208,-2.2208,-2.2208,-2.2208,-2.2208,-2.2208,-2.2324,-2.2394,-2.2394,-2.2606,-2.2749,-2.2749,-2.2789,-2.3031,-2.3508,-2.3909,-2.4177,-2.4281,-2.4302,-2.4302,-2.4302,-2.4302,-2.4302,-2.4302,-2.4699,-2.4902,-2.4902,-2.5375,-2.6005,-1.623,-1.6037,-1.5716,-1.5698,-1.5395,-1.5001,-1.4607,-1.4515,-1.4704,-1.542,-1.6044,-1.6708,-1.749,-1.7655,-1.7859,-1.8467,-1.8182,0.0,0.0,-1.8801,-1.8827,-1.856,-1.7859,-1.7168,-1.657,-1.64,-1.6393,-1.6527,-1.6206,-1.5751,-1.523,-1.3962,-1.2527,-1.0974,-1.0037,-0.8997,-0.7783,-0.7778,-0.7683,-0.7451,-0.8161,-0.8522,-0.8554,-0.9215,-0.9516,-0.9516,-0.9516,-0.9702,-1.0142,-1.1461,-1.2197,-1.2665,-1.398,-1.4515,-1.4515,-1.4515,-1.4515,-1.4595,-1.5186,-1.6169,-1.7257,-1.7909,-1.8084,-1.8084,-1.8084,-1.8084,-1.8275,-1.9001,-1.9305,-1.9696,-2.0906,-2.1299,-2.1568,-2.2091,-2.2208,-2.2208,-2.2208,-2.2208,-2.2208,-2.2208,-2.2208,-2.2208,-2.2208,-2.2208,-2.2208,-2.2208,-2.2208,-2.2208,-2.2208,-2.2324,-2.2394,-2.2394,-2.2509,-2.2615,-2.2615,-2.2615,-2.2851,-2.3363,-2.3551,-2.3824,-2.4281,-2.4302,-2.4302,-2.4302,-2.4302,-2.4302,-2.4302,-2.4699,-2.4902,-2.4902,-2.5375,-2.6005,0.0,0.0,-1.5359,-1.5625,-1.5194,-1.4744,-1.4873,-1.475,-1.4834,-1.5468,-1.6255,-1.7,-1.7573,-1.8159,-1.8614,-1.8706,-1.8667,-1.8694,0.0,-1.8934,-1.8972,-1.8881,-1.856,-1.8061,-1.7352,-1.7529,-1.7525,-1.7091,-1.7032,-1.6572,-1.5664,-1.499,-1.3757,-1.1914,-1.143,-1.0707,-0.9668,-0.9333,-0.9148,-0.9064,-0.9129,-0.9151,-0.9183,-0.9382,-0.9516,-0.9516,-0.9644,-0.9798,-1.011,-1.1586,-1.2328,-1.2634,-1.398,-1.4515,-1.4515,-1.4515,-1.4515,-1.4595,-1.5186,-1.5921,-1.6698,-1.7324,-1.776,-1.8084,-1.8084,-1.8084,-1.8166,-1.8572,-1.9028,-1.9501,-2.0016,-2.0759,-2.1447,-2.164,-2.1949,-2.2208,-2.2208,-2.2208,-2.2208,-2.2208,-2.2208,-2.2208,-2.2208,-2.2208,-2.2208,-2.2208,-2.2208,-2.2208,-2.2208,-2.2254,-2.2278,-2.2278,-2.2394,-2.2463,-2.2463,-2.2629,-2.2834,-2.3053,-2.312,-2.3209,-2.3363,-2.3363,-2.3363,-2.3363,-2.3363,-2.3538,-2.3846,-2.4287,-2.4639,-2.4902,-2.5375,-2.5726,-1.5441,-1.5294,0.0,-1.5414,-1.5093,-1.4753,-1.4864,-1.4911,-1.5147,-1.5786,-1.6624,-1.7418,-1.7913,-1.8548,-1.8972,-1.8825,-1.8919,-1.8987,0.0,-1.8987,-1.8987,-1.8987,-1.8866,-1.8598,-1.8143,-1.8317,-1.8212,-1.7599,-1.7813,-1.7491,-1.6362,-1.6005,-1.4975,-1.3075,-1.2618,-1.1915,-1.0857,-1.0377,-1.0098,-1.0001,-0.9669,-0.9516,-0.9516,-0.9516,-0.9516,-0.9516,-0.9708,-0.9862,-1.011,-1.1655,-1.2389,-1.2634,-1.398,-1.4515,-1.4515,-1.4515,-1.4515,-1.4595,-1.5186,-1.5806,-1.6386,-1.7006,-1.7611,-1.8084,-1.8084,-1.8084,-1.8139,-1.834,-1.8747,-1.9174,-1.9526,-2.0207,-2.0932,-2.1326,-2.1664,-2.1973,-2.2161,-2.2208,-2.2208,-2.2208,-2.2208,-2.2208,-2.2208,-2.2208,-2.2208,-2.2208,-2.2208,-2.2208,-2.2208,-2.2208,-2.2208,-2.2208,-2.2278,-2.2347,-2.2394,-2.2606,-2.2758,-2.2872,-2.288,-2.2888,-2.2888,-2.2888,-2.2888,-2.2888,-2.3053,-2.337,-2.3846,-2.4307,-2.4735,-2.515,-2.5467,-2.5597]}]]